<?xml version="1.0" encoding="UTF-8" standalone="no" ?>
<gpx xmlns="http://www.topografix.com/GPX/1/1" xmlns:xsi="http://www.w3.org/2001/XMLSchema-instance" xsi:schemaLocation="http://www.topografix.com/GPX/1/1 http://www.topografix.com/GPX/1/1/gpx.xsd" version="1.1" creator="VisuGPX - https://www.visugpx.com">
  <metadata>
    <name>serre 20km d ~600m</name>
    <desc><![CDATA[sympathique parcours trail dans la forêt de la serre.
Départ parking de l'Hermitage 
petite marre très pittoresque au 11 ième km
bonne ballade]]></desc>
  </metadata>
  <trk>
    <name><![CDATA[serre 20km d ~600m_1]]></name>
    <trkseg>
      <trkpt lat="47.18668" lon="5.54964">
        <ele>372.6572265625</ele>
        <time>2011-01-15T08:07:09Z</time>
      </trkpt>
      <trkpt lat="47.18669" lon="5.54958">
        <ele>372.41003417969</ele>
        <time>2011-01-15T08:07:16Z</time>
      </trkpt>
      <trkpt lat="47.1867" lon="5.54942">
        <ele>371.76800537109</ele>
        <time>2011-01-15T08:07:22Z</time>
      </trkpt>
      <trkpt lat="47.18673" lon="5.54934">
        <ele>371.41439819336</ele>
        <time>2011-01-15T08:07:25Z</time>
      </trkpt>
      <trkpt lat="47.18676" lon="5.54921">
        <ele>370.8376159668</ele>
        <time>2011-01-15T08:07:30Z</time>
      </trkpt>
      <trkpt lat="47.1868" lon="5.54907">
        <ele>370.08901977539</ele>
        <time>2011-01-15T08:07:35Z</time>
      </trkpt>
      <trkpt lat="47.18679" lon="5.54894">
        <ele>369.52362060547</ele>
        <time>2011-01-15T08:07:39Z</time>
      </trkpt>
      <trkpt lat="47.18688" lon="5.5488">
        <ele>368.33123779297</ele>
        <time>2011-01-15T08:07:45Z</time>
      </trkpt>
      <trkpt lat="47.18694" lon="5.54876">
        <ele>367.77752685547</ele>
        <time>2011-01-15T08:07:48Z</time>
      </trkpt>
      <trkpt lat="47.18707" lon="5.54873">
        <ele>366.72680664062</ele>
        <time>2011-01-15T08:07:55Z</time>
      </trkpt>
      <trkpt lat="47.18718" lon="5.54874">
        <ele>366.05172729492</ele>
        <time>2011-01-15T08:08:00Z</time>
      </trkpt>
      <trkpt lat="47.18729" lon="5.54872">
        <ele>365.17196655273</ele>
        <time>2011-01-15T08:08:05Z</time>
      </trkpt>
      <trkpt lat="47.18742" lon="5.54883">
        <ele>365.18905639648</ele>
        <time>2011-01-15T08:08:11Z</time>
      </trkpt>
      <trkpt lat="47.18751" lon="5.54896">
        <ele>365.84625244141</ele>
        <time>2011-01-15T08:08:16Z</time>
      </trkpt>
      <trkpt lat="47.18758" lon="5.54907">
        <ele>365.34371948242</ele>
        <time>2011-01-15T08:08:21Z</time>
      </trkpt>
      <trkpt lat="47.18765" lon="5.54917">
        <ele>364.3427734375</ele>
        <time>2011-01-15T08:08:25Z</time>
      </trkpt>
      <trkpt lat="47.18773" lon="5.54939">
        <ele>363.23980712891</ele>
        <time>2011-01-15T08:08:31Z</time>
      </trkpt>
      <trkpt lat="47.18779" lon="5.5495">
        <ele>362.21139526367</ele>
        <time>2011-01-15T08:08:34Z</time>
      </trkpt>
      <trkpt lat="47.18775" lon="5.54973">
        <ele>363.78689575195</ele>
        <time>2011-01-15T08:08:40Z</time>
      </trkpt>
      <trkpt lat="47.18773" lon="5.54978">
        <ele>364.61975097656</ele>
        <time>2011-01-15T08:08:42Z</time>
      </trkpt>
      <trkpt lat="47.18774" lon="5.54998">
        <ele>364.88388061523</ele>
        <time>2011-01-15T08:08:48Z</time>
      </trkpt>
      <trkpt lat="47.18779" lon="5.55019">
        <ele>364.73492431641</ele>
        <time>2011-01-15T08:08:54Z</time>
      </trkpt>
      <trkpt lat="47.18782" lon="5.55029">
        <ele>364.76065063477</ele>
        <time>2011-01-15T08:08:58Z</time>
      </trkpt>
      <trkpt lat="47.18783" lon="5.55034">
        <ele>364.93618774414</ele>
        <time>2011-01-15T08:09:03Z</time>
      </trkpt>
      <trkpt lat="47.18786" lon="5.55044">
        <ele>364.93014526367</ele>
        <time>2011-01-15T08:09:07Z</time>
      </trkpt>
      <trkpt lat="47.18792" lon="5.55054">
        <ele>364.61801147461</ele>
        <time>2011-01-15T08:09:12Z</time>
      </trkpt>
      <trkpt lat="47.18797" lon="5.55059">
        <ele>364.24200439453</ele>
        <time>2011-01-15T08:09:17Z</time>
      </trkpt>
      <trkpt lat="47.18805" lon="5.55053">
        <ele>362.51544189453</ele>
        <time>2011-01-15T08:09:21Z</time>
      </trkpt>
      <trkpt lat="47.18812" lon="5.55049">
        <ele>360.79122924805</ele>
        <time>2011-01-15T08:09:24Z</time>
      </trkpt>
      <trkpt lat="47.18817" lon="5.55046">
        <ele>359.56930541992</ele>
        <time>2011-01-15T08:09:26Z</time>
      </trkpt>
      <trkpt lat="47.18821" lon="5.5504">
        <ele>358.1044921875</ele>
        <time>2011-01-15T08:09:28Z</time>
      </trkpt>
      <trkpt lat="47.18837" lon="5.55027">
        <ele>353.62927246094</ele>
        <time>2011-01-15T08:09:34Z</time>
      </trkpt>
      <trkpt lat="47.18846" lon="5.55012">
        <ele>350.88903808594</ele>
        <time>2011-01-15T08:09:40Z</time>
      </trkpt>
      <trkpt lat="47.18858" lon="5.55">
        <ele>348.57901000977</ele>
        <time>2011-01-15T08:09:45Z</time>
      </trkpt>
      <trkpt lat="47.1887" lon="5.54991">
        <ele>347.37930297852</ele>
        <time>2011-01-15T08:09:50Z</time>
      </trkpt>
      <trkpt lat="47.18879" lon="5.54979">
        <ele>346.25430297852</ele>
        <time>2011-01-15T08:09:55Z</time>
      </trkpt>
      <trkpt lat="47.18885" lon="5.54974">
        <ele>345.4748840332</ele>
        <time>2011-01-15T08:09:58Z</time>
      </trkpt>
      <trkpt lat="47.18898" lon="5.54966">
        <ele>344.08874511719</ele>
        <time>2011-01-15T08:10:02Z</time>
      </trkpt>
      <trkpt lat="47.18905" lon="5.54953">
        <ele>342.63763427734</ele>
        <time>2011-01-15T08:10:06Z</time>
      </trkpt>
      <trkpt lat="47.18912" lon="5.54949">
        <ele>341.76025390625</ele>
        <time>2011-01-15T08:10:09Z</time>
      </trkpt>
      <trkpt lat="47.18917" lon="5.54942">
        <ele>340.83026123047</ele>
        <time>2011-01-15T08:10:14Z</time>
      </trkpt>
      <trkpt lat="47.1892" lon="5.54939">
        <ele>340.91381835938</ele>
        <time>2011-01-15T08:10:16Z</time>
      </trkpt>
      <trkpt lat="47.1892" lon="5.54936">
        <ele>340.72210693359</ele>
        <time>2011-01-15T08:10:18Z</time>
      </trkpt>
      <trkpt lat="47.18929" lon="5.54933">
        <ele>341.23709106445</ele>
        <time>2011-01-15T08:10:23Z</time>
      </trkpt>
      <trkpt lat="47.1893" lon="5.54932">
        <ele>341.35202026367</ele>
        <time>2011-01-15T08:10:25Z</time>
      </trkpt>
      <trkpt lat="47.18934" lon="5.54929">
        <ele>341.41744995117</ele>
        <time>2011-01-15T08:10:29Z</time>
      </trkpt>
      <trkpt lat="47.18941" lon="5.54923">
        <ele>341.49230957031</ele>
        <time>2011-01-15T08:10:36Z</time>
      </trkpt>
      <trkpt lat="47.18949" lon="5.54913">
        <ele>341.52850341797</ele>
        <time>2011-01-15T08:10:43Z</time>
      </trkpt>
      <trkpt lat="47.18952" lon="5.54911">
        <ele>341.68054199219</ele>
        <time>2011-01-15T08:10:45Z</time>
      </trkpt>
      <trkpt lat="47.1896" lon="5.54903">
        <ele>341.88552856445</ele>
        <time>2011-01-15T08:10:50Z</time>
      </trkpt>
      <trkpt lat="47.18966" lon="5.54896">
        <ele>341.91473388672</ele>
        <time>2011-01-15T08:10:53Z</time>
      </trkpt>
      <trkpt lat="47.18972" lon="5.54891">
        <ele>342.04858398438</ele>
        <time>2011-01-15T08:10:56Z</time>
      </trkpt>
      <trkpt lat="47.18983" lon="5.54885">
        <ele>342.2712097168</ele>
        <time>2011-01-15T08:11:00Z</time>
      </trkpt>
      <trkpt lat="47.18995" lon="5.54875">
        <ele>342.21017456055</ele>
        <time>2011-01-15T08:11:05Z</time>
      </trkpt>
      <trkpt lat="47.19" lon="5.5487">
        <ele>342.05187988281</ele>
        <time>2011-01-15T08:11:07Z</time>
      </trkpt>
      <trkpt lat="47.19007" lon="5.54857">
        <ele>341.11538696289</ele>
        <time>2011-01-15T08:11:11Z</time>
      </trkpt>
      <trkpt lat="47.19016" lon="5.54846">
        <ele>340.36059570312</ele>
        <time>2011-01-15T08:11:15Z</time>
      </trkpt>
      <trkpt lat="47.19028" lon="5.54832">
        <ele>339.5334777832</ele>
        <time>2011-01-15T08:11:21Z</time>
      </trkpt>
      <trkpt lat="47.19038" lon="5.54829">
        <ele>339.50369262695</ele>
        <time>2011-01-15T08:11:25Z</time>
      </trkpt>
      <trkpt lat="47.19045" lon="5.54828">
        <ele>339.62802124023</ele>
        <time>2011-01-15T08:11:28Z</time>
      </trkpt>
      <trkpt lat="47.19056" lon="5.5483">
        <ele>340.07455444336</ele>
        <time>2011-01-15T08:11:33Z</time>
      </trkpt>
      <trkpt lat="47.19065" lon="5.54828">
        <ele>340.15078735352</ele>
        <time>2011-01-15T08:11:37Z</time>
      </trkpt>
      <trkpt lat="47.19076" lon="5.54834">
        <ele>340.83856201172</ele>
        <time>2011-01-15T08:11:42Z</time>
      </trkpt>
      <trkpt lat="47.19084" lon="5.54844">
        <ele>341.61602783203</ele>
        <time>2011-01-15T08:11:46Z</time>
      </trkpt>
      <trkpt lat="47.19094" lon="5.54859">
        <ele>342.61602783203</ele>
        <time>2011-01-15T08:11:51Z</time>
      </trkpt>
      <trkpt lat="47.191" lon="5.54872">
        <ele>343.42498779297</ele>
        <time>2011-01-15T08:11:56Z</time>
      </trkpt>
      <trkpt lat="47.19108" lon="5.54887">
        <ele>344.34555053711</ele>
        <time>2011-01-15T08:12:02Z</time>
      </trkpt>
      <trkpt lat="47.19115" lon="5.54901">
        <ele>345.14190673828</ele>
        <time>2011-01-15T08:12:07Z</time>
      </trkpt>
      <trkpt lat="47.1912" lon="5.54911">
        <ele>345.69973754883</ele>
        <time>2011-01-15T08:12:11Z</time>
      </trkpt>
      <trkpt lat="47.19128" lon="5.54928">
        <ele>347.15289306641</ele>
        <time>2011-01-15T08:12:17Z</time>
      </trkpt>
      <trkpt lat="47.19129" lon="5.54931">
        <ele>347.48742675781</ele>
        <time>2011-01-15T08:12:18Z</time>
      </trkpt>
      <trkpt lat="47.19135" lon="5.54946">
        <ele>348.99862670898</ele>
        <time>2011-01-15T08:12:23Z</time>
      </trkpt>
      <trkpt lat="47.19136" lon="5.54948">
        <ele>349.27508544922</ele>
        <time>2011-01-15T08:12:24Z</time>
      </trkpt>
      <trkpt lat="47.19138" lon="5.54953">
        <ele>349.73645019531</ele>
        <time>2011-01-15T08:12:26Z</time>
      </trkpt>
      <trkpt lat="47.19144" lon="5.54966">
        <ele>351.14727783203</ele>
        <time>2011-01-15T08:12:31Z</time>
      </trkpt>
      <trkpt lat="47.19146" lon="5.5497">
        <ele>351.62170410156</ele>
        <time>2011-01-15T08:12:33Z</time>
      </trkpt>
      <trkpt lat="47.19152" lon="5.54981">
        <ele>352.84085083008</ele>
        <time>2011-01-15T08:12:38Z</time>
      </trkpt>
      <trkpt lat="47.19158" lon="5.54996">
        <ele>354.44262695312</ele>
        <time>2011-01-15T08:12:44Z</time>
      </trkpt>
      <trkpt lat="47.19162" lon="5.55013">
        <ele>356.0354309082</ele>
        <time>2011-01-15T08:12:50Z</time>
      </trkpt>
      <trkpt lat="47.19165" lon="5.55018">
        <ele>356.50628662109</ele>
        <time>2011-01-15T08:12:52Z</time>
      </trkpt>
      <trkpt lat="47.19169" lon="5.55032">
        <ele>357.51531982422</ele>
        <time>2011-01-15T08:12:57Z</time>
      </trkpt>
      <trkpt lat="47.19173" lon="5.55039">
        <ele>357.83020019531</ele>
        <time>2011-01-15T08:13:00Z</time>
      </trkpt>
      <trkpt lat="47.1918" lon="5.55055">
        <ele>358.68231201172</ele>
        <time>2011-01-15T08:13:07Z</time>
      </trkpt>
      <trkpt lat="47.19188" lon="5.5507">
        <ele>359.34555053711</ele>
        <time>2011-01-15T08:13:13Z</time>
      </trkpt>
      <trkpt lat="47.19194" lon="5.55082">
        <ele>359.92135620117</ele>
        <time>2011-01-15T08:13:17Z</time>
      </trkpt>
      <trkpt lat="47.19203" lon="5.55095">
        <ele>359.96517944336</ele>
        <time>2011-01-15T08:13:21Z</time>
      </trkpt>
      <trkpt lat="47.19209" lon="5.5511">
        <ele>360.23754882812</ele>
        <time>2011-01-15T08:13:26Z</time>
      </trkpt>
      <trkpt lat="47.19215" lon="5.55128">
        <ele>360.67242431641</ele>
        <time>2011-01-15T08:13:33Z</time>
      </trkpt>
      <trkpt lat="47.1922" lon="5.55137">
        <ele>360.75939941406</ele>
        <time>2011-01-15T08:13:38Z</time>
      </trkpt>
      <trkpt lat="47.1922" lon="5.55138">
        <ele>360.7799987793</ele>
        <time>2011-01-15T08:13:39Z</time>
      </trkpt>
      <trkpt lat="47.19222" lon="5.55152">
        <ele>361.33618164062</ele>
        <time>2011-01-15T08:13:45Z</time>
      </trkpt>
      <trkpt lat="47.19223" lon="5.55154">
        <ele>361.34762573242</ele>
        <time>2011-01-15T08:13:47Z</time>
      </trkpt>
      <trkpt lat="47.19228" lon="5.55163">
        <ele>361.40942382812</ele>
        <time>2011-01-15T08:13:51Z</time>
      </trkpt>
      <trkpt lat="47.1923" lon="5.55166">
        <ele>361.36822509766</ele>
        <time>2011-01-15T08:13:54Z</time>
      </trkpt>
      <trkpt lat="47.19239" lon="5.55177">
        <ele>361.03790283203</ele>
        <time>2011-01-15T08:14:01Z</time>
      </trkpt>
      <trkpt lat="47.1924" lon="5.55182">
        <ele>361.04943847656</ele>
        <time>2011-01-15T08:14:03Z</time>
      </trkpt>
      <trkpt lat="47.19246" lon="5.55199">
        <ele>361.03350830078</ele>
        <time>2011-01-15T08:14:08Z</time>
      </trkpt>
      <trkpt lat="47.1925" lon="5.55207">
        <ele>360.99063110352</ele>
        <time>2011-01-15T08:14:12Z</time>
      </trkpt>
      <trkpt lat="47.19252" lon="5.55211">
        <ele>360.90768432617</ele>
        <time>2011-01-15T08:14:15Z</time>
      </trkpt>
      <trkpt lat="47.19255" lon="5.55212">
        <ele>360.73049926758</ele>
        <time>2011-01-15T08:14:17Z</time>
      </trkpt>
      <trkpt lat="47.19265" lon="5.55226">
        <ele>360.41662597656</ele>
        <time>2011-01-15T08:14:23Z</time>
      </trkpt>
      <trkpt lat="47.19271" lon="5.55237">
        <ele>360.17559814453</ele>
        <time>2011-01-15T08:14:27Z</time>
      </trkpt>
      <trkpt lat="47.19274" lon="5.55243">
        <ele>360.11175537109</ele>
        <time>2011-01-15T08:14:29Z</time>
      </trkpt>
      <trkpt lat="47.1928" lon="5.55257">
        <ele>359.73504638672</ele>
        <time>2011-01-15T08:14:34Z</time>
      </trkpt>
      <trkpt lat="47.19285" lon="5.55266">
        <ele>359.24765014648</ele>
        <time>2011-01-15T08:14:39Z</time>
      </trkpt>
      <trkpt lat="47.19293" lon="5.55278">
        <ele>358.58822631836</ele>
        <time>2011-01-15T08:14:43Z</time>
      </trkpt>
      <trkpt lat="47.19301" lon="5.55287">
        <ele>357.99642944336</ele>
        <time>2011-01-15T08:14:47Z</time>
      </trkpt>
      <trkpt lat="47.1931" lon="5.55303">
        <ele>357.32461547852</ele>
        <time>2011-01-15T08:14:53Z</time>
      </trkpt>
      <trkpt lat="47.19317" lon="5.55311">
        <ele>356.89639282227</ele>
        <time>2011-01-15T08:14:56Z</time>
      </trkpt>
      <trkpt lat="47.19325" lon="5.55326">
        <ele>356.40557861328</ele>
        <time>2011-01-15T08:15:01Z</time>
      </trkpt>
      <trkpt lat="47.19329" lon="5.55331">
        <ele>356.18920898438</ele>
        <time>2011-01-15T08:15:03Z</time>
      </trkpt>
      <trkpt lat="47.1934" lon="5.55353">
        <ele>355.77523803711</ele>
        <time>2011-01-15T08:15:10Z</time>
      </trkpt>
      <trkpt lat="47.19345" lon="5.55362">
        <ele>355.50228881836</ele>
        <time>2011-01-15T08:15:13Z</time>
      </trkpt>
      <trkpt lat="47.19353" lon="5.55377">
        <ele>355.10119628906</ele>
        <time>2011-01-15T08:15:18Z</time>
      </trkpt>
      <trkpt lat="47.19362" lon="5.55392">
        <ele>354.65029907227</ele>
        <time>2011-01-15T08:15:23Z</time>
      </trkpt>
      <trkpt lat="47.1937" lon="5.55405">
        <ele>354.25259399414</ele>
        <time>2011-01-15T08:15:27Z</time>
      </trkpt>
      <trkpt lat="47.19377" lon="5.55418">
        <ele>353.82763671875</ele>
        <time>2011-01-15T08:15:31Z</time>
      </trkpt>
      <trkpt lat="47.19384" lon="5.55434">
        <ele>353.00927734375</ele>
        <time>2011-01-15T08:15:36Z</time>
      </trkpt>
      <trkpt lat="47.1939" lon="5.55453">
        <ele>352.17517089844</ele>
        <time>2011-01-15T08:15:41Z</time>
      </trkpt>
      <trkpt lat="47.194" lon="5.55468">
        <ele>351.07925415039</ele>
        <time>2011-01-15T08:15:46Z</time>
      </trkpt>
      <trkpt lat="47.1941" lon="5.55482">
        <ele>350.02017211914</ele>
        <time>2011-01-15T08:15:50Z</time>
      </trkpt>
      <trkpt lat="47.19421" lon="5.55495">
        <ele>347.99850463867</ele>
        <time>2011-01-15T08:15:55Z</time>
      </trkpt>
      <trkpt lat="47.19437" lon="5.55504">
        <ele>343.27526855469</ele>
        <time>2011-01-15T08:16:01Z</time>
      </trkpt>
      <trkpt lat="47.1944" lon="5.55504">
        <ele>342.65908813477</ele>
        <time>2011-01-15T08:16:02Z</time>
      </trkpt>
      <trkpt lat="47.19448" lon="5.55498">
        <ele>340.92990112305</ele>
        <time>2011-01-15T08:16:06Z</time>
      </trkpt>
      <trkpt lat="47.19457" lon="5.55498">
        <ele>338.49377441406</ele>
        <time>2011-01-15T08:16:11Z</time>
      </trkpt>
      <trkpt lat="47.19464" lon="5.55511">
        <ele>335.73303222656</ele>
        <time>2011-01-15T08:16:15Z</time>
      </trkpt>
      <trkpt lat="47.19466" lon="5.55515">
        <ele>335.12832641602</ele>
        <time>2011-01-15T08:16:16Z</time>
      </trkpt>
      <trkpt lat="47.19467" lon="5.55519">
        <ele>334.54437255859</ele>
        <time>2011-01-15T08:16:18Z</time>
      </trkpt>
      <trkpt lat="47.19473" lon="5.55532">
        <ele>332.11169433594</ele>
        <time>2011-01-15T08:16:25Z</time>
      </trkpt>
      <trkpt lat="47.19473" lon="5.55536">
        <ele>331.85269165039</ele>
        <time>2011-01-15T08:16:29Z</time>
      </trkpt>
      <trkpt lat="47.19473" lon="5.55537">
        <ele>331.80697631836</ele>
        <time>2011-01-15T08:16:30Z</time>
      </trkpt>
      <trkpt lat="47.19474" lon="5.55544">
        <ele>330.96887207031</ele>
        <time>2011-01-15T08:16:36Z</time>
      </trkpt>
      <trkpt lat="47.19476" lon="5.55548">
        <ele>330.28210449219</ele>
        <time>2011-01-15T08:16:38Z</time>
      </trkpt>
      <trkpt lat="47.19478" lon="5.55563">
        <ele>328.76052856445</ele>
        <time>2011-01-15T08:16:43Z</time>
      </trkpt>
      <trkpt lat="47.1948" lon="5.55571">
        <ele>327.86758422852</ele>
        <time>2011-01-15T08:16:45Z</time>
      </trkpt>
      <trkpt lat="47.19487" lon="5.55592">
        <ele>326.35601806641</ele>
        <time>2011-01-15T08:16:51Z</time>
      </trkpt>
      <trkpt lat="47.1949" lon="5.55601">
        <ele>326.54400634766</ele>
        <time>2011-01-15T08:16:54Z</time>
      </trkpt>
      <trkpt lat="47.19495" lon="5.55616">
        <ele>327.29861450195</ele>
        <time>2011-01-15T08:16:59Z</time>
      </trkpt>
      <trkpt lat="47.19501" lon="5.55628">
        <ele>327.76116943359</ele>
        <time>2011-01-15T08:17:04Z</time>
      </trkpt>
      <trkpt lat="47.19504" lon="5.55639">
        <ele>328.8059387207</ele>
        <time>2011-01-15T08:17:09Z</time>
      </trkpt>
      <trkpt lat="47.19507" lon="5.55649">
        <ele>329.72610473633</ele>
        <time>2011-01-15T08:17:13Z</time>
      </trkpt>
      <trkpt lat="47.19513" lon="5.55661">
        <ele>330.61801147461</ele>
        <time>2011-01-15T08:17:18Z</time>
      </trkpt>
      <trkpt lat="47.19513" lon="5.55663">
        <ele>330.79742431641</ele>
        <time>2011-01-15T08:17:19Z</time>
      </trkpt>
      <trkpt lat="47.19514" lon="5.55668">
        <ele>331.24703979492</ele>
        <time>2011-01-15T08:17:21Z</time>
      </trkpt>
      <trkpt lat="47.19518" lon="5.55682">
        <ele>332.29223632812</ele>
        <time>2011-01-15T08:17:26Z</time>
      </trkpt>
      <trkpt lat="47.19521" lon="5.55696">
        <ele>333.47399902344</ele>
        <time>2011-01-15T08:17:30Z</time>
      </trkpt>
      <trkpt lat="47.19531" lon="5.55718">
        <ele>334.21575927734</ele>
        <time>2011-01-15T08:17:36Z</time>
      </trkpt>
      <trkpt lat="47.19532" lon="5.5573">
        <ele>335.19143676758</ele>
        <time>2011-01-15T08:17:41Z</time>
      </trkpt>
      <trkpt lat="47.19532" lon="5.55734">
        <ele>335.56350708008</ele>
        <time>2011-01-15T08:17:47Z</time>
      </trkpt>
      <trkpt lat="47.19534" lon="5.55739">
        <ele>335.82885742188</ele>
        <time>2011-01-15T08:17:52Z</time>
      </trkpt>
      <trkpt lat="47.19536" lon="5.55748">
        <ele>336.24011230469</ele>
        <time>2011-01-15T08:17:58Z</time>
      </trkpt>
      <trkpt lat="47.1954" lon="5.5576">
        <ele>336.05587768555</ele>
        <time>2011-01-15T08:18:03Z</time>
      </trkpt>
      <trkpt lat="47.19542" lon="5.55774">
        <ele>335.95809936523</ele>
        <time>2011-01-15T08:18:08Z</time>
      </trkpt>
      <trkpt lat="47.19543" lon="5.55777">
        <ele>335.7197265625</ele>
        <time>2011-01-15T08:18:09Z</time>
      </trkpt>
      <trkpt lat="47.1955" lon="5.55797">
        <ele>334.77185058594</ele>
        <time>2011-01-15T08:18:15Z</time>
      </trkpt>
      <trkpt lat="47.19555" lon="5.55815">
        <ele>333.8342590332</ele>
        <time>2011-01-15T08:18:19Z</time>
      </trkpt>
      <trkpt lat="47.1956" lon="5.55829">
        <ele>332.9436340332</ele>
        <time>2011-01-15T08:18:23Z</time>
      </trkpt>
      <trkpt lat="47.1957" lon="5.5585">
        <ele>330.43176269531</ele>
        <time>2011-01-15T08:18:28Z</time>
      </trkpt>
      <trkpt lat="47.19574" lon="5.55867">
        <ele>328.95916748047</ele>
        <time>2011-01-15T08:18:32Z</time>
      </trkpt>
      <trkpt lat="47.19574" lon="5.55871">
        <ele>328.74108886719</ele>
        <time>2011-01-15T08:18:33Z</time>
      </trkpt>
      <trkpt lat="47.1958" lon="5.55887">
        <ele>326.84384155273</ele>
        <time>2011-01-15T08:18:38Z</time>
      </trkpt>
      <trkpt lat="47.19585" lon="5.55901">
        <ele>324.95239257812</ele>
        <time>2011-01-15T08:18:43Z</time>
      </trkpt>
      <trkpt lat="47.19592" lon="5.55922">
        <ele>322.61465454102</ele>
        <time>2011-01-15T08:18:50Z</time>
      </trkpt>
      <trkpt lat="47.19596" lon="5.55937">
        <ele>321.56677246094</ele>
        <time>2011-01-15T08:18:54Z</time>
      </trkpt>
      <trkpt lat="47.19598" lon="5.55944">
        <ele>320.98782348633</ele>
        <time>2011-01-15T08:18:56Z</time>
      </trkpt>
      <trkpt lat="47.19604" lon="5.55963">
        <ele>319.4641418457</ele>
        <time>2011-01-15T08:19:01Z</time>
      </trkpt>
      <trkpt lat="47.19608" lon="5.55975">
        <ele>318.41412353516</ele>
        <time>2011-01-15T08:19:05Z</time>
      </trkpt>
      <trkpt lat="47.19611" lon="5.55986">
        <ele>317.70230102539</ele>
        <time>2011-01-15T08:19:09Z</time>
      </trkpt>
      <trkpt lat="47.19615" lon="5.55997">
        <ele>316.77780151367</ele>
        <time>2011-01-15T08:19:12Z</time>
      </trkpt>
      <trkpt lat="47.1962" lon="5.56007">
        <ele>316.37097167969</ele>
        <time>2011-01-15T08:19:15Z</time>
      </trkpt>
      <trkpt lat="47.19624" lon="5.56022">
        <ele>317.1296081543</ele>
        <time>2011-01-15T08:19:20Z</time>
      </trkpt>
      <trkpt lat="47.19625" lon="5.56028">
        <ele>317.47003173828</ele>
        <time>2011-01-15T08:19:22Z</time>
      </trkpt>
      <trkpt lat="47.19625" lon="5.56035">
        <ele>318.41339111328</ele>
        <time>2011-01-15T08:19:24Z</time>
      </trkpt>
      <trkpt lat="47.19629" lon="5.56047">
        <ele>318.85491943359</ele>
        <time>2011-01-15T08:19:28Z</time>
      </trkpt>
      <trkpt lat="47.19635" lon="5.56072">
        <ele>320.24743652344</ele>
        <time>2011-01-15T08:19:35Z</time>
      </trkpt>
      <trkpt lat="47.19641" lon="5.56089">
        <ele>320.57080078125</ele>
        <time>2011-01-15T08:19:40Z</time>
      </trkpt>
      <trkpt lat="47.19645" lon="5.56103">
        <ele>321.30868530273</ele>
        <time>2011-01-15T08:19:45Z</time>
      </trkpt>
      <trkpt lat="47.19648" lon="5.56116">
        <ele>321.9977722168</ele>
        <time>2011-01-15T08:19:50Z</time>
      </trkpt>
      <trkpt lat="47.1965" lon="5.56119">
        <ele>322.07598876953</ele>
        <time>2011-01-15T08:19:51Z</time>
      </trkpt>
      <trkpt lat="47.19652" lon="5.56125">
        <ele>322.18963623047</ele>
        <time>2011-01-15T08:19:53Z</time>
      </trkpt>
      <trkpt lat="47.19658" lon="5.56141">
        <ele>322.86309814453</ele>
        <time>2011-01-15T08:19:58Z</time>
      </trkpt>
      <trkpt lat="47.19662" lon="5.56154">
        <ele>323.47067260742</ele>
        <time>2011-01-15T08:20:02Z</time>
      </trkpt>
      <trkpt lat="47.19667" lon="5.56172">
        <ele>324.36395263672</ele>
        <time>2011-01-15T08:20:08Z</time>
      </trkpt>
      <trkpt lat="47.19673" lon="5.56191">
        <ele>324.79354858398</ele>
        <time>2011-01-15T08:20:14Z</time>
      </trkpt>
      <trkpt lat="47.19674" lon="5.56194">
        <ele>324.7815246582</ele>
        <time>2011-01-15T08:20:15Z</time>
      </trkpt>
      <trkpt lat="47.19678" lon="5.56208">
        <ele>325.02661132812</ele>
        <time>2011-01-15T08:20:20Z</time>
      </trkpt>
      <trkpt lat="47.19682" lon="5.56223">
        <ele>325.59176635742</ele>
        <time>2011-01-15T08:20:24Z</time>
      </trkpt>
      <trkpt lat="47.19684" lon="5.56234">
        <ele>325.98480224609</ele>
        <time>2011-01-15T08:20:27Z</time>
      </trkpt>
      <trkpt lat="47.19693" lon="5.56252">
        <ele>325.59680175781</ele>
        <time>2011-01-15T08:20:34Z</time>
      </trkpt>
      <trkpt lat="47.19697" lon="5.56264">
        <ele>326.19705200195</ele>
        <time>2011-01-15T08:20:42Z</time>
      </trkpt>
      <trkpt lat="47.19698" lon="5.56269">
        <ele>326.63485717773</ele>
        <time>2011-01-15T08:20:50Z</time>
      </trkpt>
      <trkpt lat="47.19696" lon="5.56268">
        <ele>327.02816772461</ele>
        <time>2011-01-15T08:20:59Z</time>
      </trkpt>
      <trkpt lat="47.19696" lon="5.56265">
        <ele>326.46105957031</ele>
        <time>2011-01-15T08:21:13Z</time>
      </trkpt>
      <trkpt lat="47.19696" lon="5.56264">
        <ele>326.43606567383</ele>
        <time>2011-01-15T08:21:24Z</time>
      </trkpt>
      <trkpt lat="47.19696" lon="5.56261">
        <ele>326.08673095703</ele>
        <time>2011-01-15T08:21:38Z</time>
      </trkpt>
      <trkpt lat="47.19693" lon="5.56263">
        <ele>326.87280273438</ele>
        <time>2011-01-15T08:21:46Z</time>
      </trkpt>
      <trkpt lat="47.1969" lon="5.56257">
        <ele>326.90167236328</ele>
        <time>2011-01-15T08:22:09Z</time>
      </trkpt>
      <trkpt lat="47.1969" lon="5.56257">
        <ele>326.87844848633</ele>
        <time>2011-01-15T08:22:11Z</time>
      </trkpt>
      <trkpt lat="47.19695" lon="5.56265">
        <ele>326.64791870117</ele>
        <time>2011-01-15T08:22:21Z</time>
      </trkpt>
      <trkpt lat="47.19698" lon="5.56272">
        <ele>326.9098815918</ele>
        <time>2011-01-15T08:22:28Z</time>
      </trkpt>
      <trkpt lat="47.19699" lon="5.56272">
        <ele>326.72970581055</ele>
        <time>2011-01-15T08:22:30Z</time>
      </trkpt>
      <trkpt lat="47.19707" lon="5.56273">
        <ele>325.14465332031</ele>
        <time>2011-01-15T08:22:35Z</time>
      </trkpt>
      <trkpt lat="47.19709" lon="5.56273">
        <ele>324.7028503418</ele>
        <time>2011-01-15T08:22:36Z</time>
      </trkpt>
      <trkpt lat="47.19722" lon="5.56271">
        <ele>321.70370483398</ele>
        <time>2011-01-15T08:22:41Z</time>
      </trkpt>
      <trkpt lat="47.19733" lon="5.56267">
        <ele>318.8166809082</ele>
        <time>2011-01-15T08:22:45Z</time>
      </trkpt>
      <trkpt lat="47.1975" lon="5.56274">
        <ele>316.17651367188</ele>
        <time>2011-01-15T08:22:50Z</time>
      </trkpt>
      <trkpt lat="47.19765" lon="5.56287">
        <ele>314.13632202148</ele>
        <time>2011-01-15T08:22:55Z</time>
      </trkpt>
      <trkpt lat="47.19778" lon="5.56299">
        <ele>312.30599975586</ele>
        <time>2011-01-15T08:23:00Z</time>
      </trkpt>
      <trkpt lat="47.19788" lon="5.56311">
        <ele>311.07070922852</ele>
        <time>2011-01-15T08:23:04Z</time>
      </trkpt>
      <trkpt lat="47.19793" lon="5.56318">
        <ele>310.74072265625</ele>
        <time>2011-01-15T08:23:06Z</time>
      </trkpt>
      <trkpt lat="47.19797" lon="5.5632">
        <ele>309.83325195312</ele>
        <time>2011-01-15T08:23:08Z</time>
      </trkpt>
      <trkpt lat="47.19806" lon="5.5633">
        <ele>308.88784790039</ele>
        <time>2011-01-15T08:23:12Z</time>
      </trkpt>
      <trkpt lat="47.19819" lon="5.56351">
        <ele>307.5920715332</ele>
        <time>2011-01-15T08:23:18Z</time>
      </trkpt>
      <trkpt lat="47.19825" lon="5.56362">
        <ele>307.27749633789</ele>
        <time>2011-01-15T08:23:22Z</time>
      </trkpt>
      <trkpt lat="47.19829" lon="5.56368">
        <ele>306.85800170898</ele>
        <time>2011-01-15T08:23:24Z</time>
      </trkpt>
      <trkpt lat="47.19837" lon="5.5639">
        <ele>307.55828857422</ele>
        <time>2011-01-15T08:23:30Z</time>
      </trkpt>
      <trkpt lat="47.19843" lon="5.56405">
        <ele>308.28518676758</ele>
        <time>2011-01-15T08:23:35Z</time>
      </trkpt>
      <trkpt lat="47.1985" lon="5.56422">
        <ele>308.76104736328</ele>
        <time>2011-01-15T08:23:40Z</time>
      </trkpt>
      <trkpt lat="47.19852" lon="5.5643">
        <ele>308.84146118164</ele>
        <time>2011-01-15T08:23:42Z</time>
      </trkpt>
      <trkpt lat="47.19863" lon="5.56435">
        <ele>307.36322021484</ele>
        <time>2011-01-15T08:23:47Z</time>
      </trkpt>
      <trkpt lat="47.19883" lon="5.56433">
        <ele>303.78100585938</ele>
        <time>2011-01-15T08:23:52Z</time>
      </trkpt>
      <trkpt lat="47.19902" lon="5.56429">
        <ele>300.50344848633</ele>
        <time>2011-01-15T08:23:56Z</time>
      </trkpt>
      <trkpt lat="47.19912" lon="5.56423">
        <ele>298.77453613281</ele>
        <time>2011-01-15T08:23:59Z</time>
      </trkpt>
      <trkpt lat="47.19925" lon="5.56416">
        <ele>297.03121948242</ele>
        <time>2011-01-15T08:24:04Z</time>
      </trkpt>
      <trkpt lat="47.19938" lon="5.56404">
        <ele>294.58654785156</ele>
        <time>2011-01-15T08:24:09Z</time>
      </trkpt>
      <trkpt lat="47.19952" lon="5.56394">
        <ele>292.41223144531</ele>
        <time>2011-01-15T08:24:13Z</time>
      </trkpt>
      <trkpt lat="47.19965" lon="5.5639">
        <ele>290.9377746582</ele>
        <time>2011-01-15T08:24:17Z</time>
      </trkpt>
      <trkpt lat="47.19975" lon="5.56382">
        <ele>289.52282714844</ele>
        <time>2011-01-15T08:24:22Z</time>
      </trkpt>
      <trkpt lat="47.1999" lon="5.56368">
        <ele>287.70111083984</ele>
        <time>2011-01-15T08:24:28Z</time>
      </trkpt>
      <trkpt lat="47.20004" lon="5.56356">
        <ele>286.00692749023</ele>
        <time>2011-01-15T08:24:33Z</time>
      </trkpt>
      <trkpt lat="47.20022" lon="5.56353">
        <ele>283.31900024414</ele>
        <time>2011-01-15T08:24:39Z</time>
      </trkpt>
      <trkpt lat="47.20036" lon="5.56345">
        <ele>280.97061157227</ele>
        <time>2011-01-15T08:24:44Z</time>
      </trkpt>
      <trkpt lat="47.20052" lon="5.56334">
        <ele>277.96710205078</ele>
        <time>2011-01-15T08:24:49Z</time>
      </trkpt>
      <trkpt lat="47.2006" lon="5.56328">
        <ele>276.56271362305</ele>
        <time>2011-01-15T08:24:52Z</time>
      </trkpt>
      <trkpt lat="47.20066" lon="5.56323">
        <ele>275.74502563477</ele>
        <time>2011-01-15T08:24:54Z</time>
      </trkpt>
      <trkpt lat="47.20079" lon="5.56317">
        <ele>273.81820678711</ele>
        <time>2011-01-15T08:24:58Z</time>
      </trkpt>
      <trkpt lat="47.20094" lon="5.56312">
        <ele>271.96694946289</ele>
        <time>2011-01-15T08:25:03Z</time>
      </trkpt>
      <trkpt lat="47.20104" lon="5.56309">
        <ele>270.59646606445</ele>
        <time>2011-01-15T08:25:06Z</time>
      </trkpt>
      <trkpt lat="47.20119" lon="5.5629">
        <ele>268.32437133789</ele>
        <time>2011-01-15T08:25:12Z</time>
      </trkpt>
      <trkpt lat="47.20121" lon="5.56287">
        <ele>268.0295715332</ele>
        <time>2011-01-15T08:25:13Z</time>
      </trkpt>
      <trkpt lat="47.20131" lon="5.56264">
        <ele>265.84387207031</ele>
        <time>2011-01-15T08:25:18Z</time>
      </trkpt>
      <trkpt lat="47.20138" lon="5.56246">
        <ele>263.83901977539</ele>
        <time>2011-01-15T08:25:22Z</time>
      </trkpt>
      <trkpt lat="47.20151" lon="5.56232">
        <ele>260.45785522461</ele>
        <time>2011-01-15T08:25:27Z</time>
      </trkpt>
      <trkpt lat="47.20154" lon="5.56215">
        <ele>258.58923339844</ele>
        <time>2011-01-15T08:25:31Z</time>
      </trkpt>
      <trkpt lat="47.20155" lon="5.562">
        <ele>257.33108520508</ele>
        <time>2011-01-15T08:25:34Z</time>
      </trkpt>
      <trkpt lat="47.20157" lon="5.56181">
        <ele>255.57385253906</ele>
        <time>2011-01-15T08:25:39Z</time>
      </trkpt>
      <trkpt lat="47.20155" lon="5.5616">
        <ele>253.98477172852</ele>
        <time>2011-01-15T08:25:44Z</time>
      </trkpt>
      <trkpt lat="47.20155" lon="5.56158">
        <ele>253.76310729981</ele>
        <time>2011-01-15T08:25:45Z</time>
      </trkpt>
      <trkpt lat="47.20154" lon="5.56151">
        <ele>253.02757263184</ele>
        <time>2011-01-15T08:25:49Z</time>
      </trkpt>
      <trkpt lat="47.20152" lon="5.56149">
        <ele>253.01631164551</ele>
        <time>2011-01-15T08:25:50Z</time>
      </trkpt>
      <trkpt lat="47.20151" lon="5.56143">
        <ele>252.49038696289</ele>
        <time>2011-01-15T08:25:54Z</time>
      </trkpt>
      <trkpt lat="47.20148" lon="5.56124">
        <ele>250.44898986816</ele>
        <time>2011-01-15T08:26:00Z</time>
      </trkpt>
      <trkpt lat="47.20145" lon="5.56099">
        <ele>247.77737426758</ele>
        <time>2011-01-15T08:26:04Z</time>
      </trkpt>
      <trkpt lat="47.20144" lon="5.56072">
        <ele>244.97509765625</ele>
        <time>2011-01-15T08:26:08Z</time>
      </trkpt>
      <trkpt lat="47.20148" lon="5.56049">
        <ele>241.81770324707</ele>
        <time>2011-01-15T08:26:13Z</time>
      </trkpt>
      <trkpt lat="47.20148" lon="5.56044">
        <ele>241.36825561523</ele>
        <time>2011-01-15T08:26:14Z</time>
      </trkpt>
      <trkpt lat="47.20148" lon="5.56025">
        <ele>239.3583984375</ele>
        <time>2011-01-15T08:26:19Z</time>
      </trkpt>
      <trkpt lat="47.20148" lon="5.56017">
        <ele>238.58456420898</ele>
        <time>2011-01-15T08:26:21Z</time>
      </trkpt>
      <trkpt lat="47.20144" lon="5.55991">
        <ele>236.85835266113</ele>
        <time>2011-01-15T08:26:26Z</time>
      </trkpt>
      <trkpt lat="47.20142" lon="5.55967">
        <ele>234.89506530762</ele>
        <time>2011-01-15T08:26:31Z</time>
      </trkpt>
      <trkpt lat="47.20145" lon="5.55946">
        <ele>232.66763305664</ele>
        <time>2011-01-15T08:26:36Z</time>
      </trkpt>
      <trkpt lat="47.20148" lon="5.55929">
        <ele>230.72138977051</ele>
        <time>2011-01-15T08:26:40Z</time>
      </trkpt>
      <trkpt lat="47.2015" lon="5.55925">
        <ele>230.10746765137</ele>
        <time>2011-01-15T08:26:41Z</time>
      </trkpt>
      <trkpt lat="47.20162" lon="5.55908">
        <ele>227.86662292481</ele>
        <time>2011-01-15T08:26:46Z</time>
      </trkpt>
      <trkpt lat="47.20166" lon="5.55901">
        <ele>227.46534729004</ele>
        <time>2011-01-15T08:26:48Z</time>
      </trkpt>
      <trkpt lat="47.20177" lon="5.55883">
        <ele>229.09327697754</ele>
        <time>2011-01-15T08:26:54Z</time>
      </trkpt>
      <trkpt lat="47.20184" lon="5.55869">
        <ele>230.38856506348</ele>
        <time>2011-01-15T08:26:58Z</time>
      </trkpt>
      <trkpt lat="47.20189" lon="5.55861">
        <ele>231.51647949219</ele>
        <time>2011-01-15T08:27:01Z</time>
      </trkpt>
      <trkpt lat="47.20196" lon="5.55858">
        <ele>232.58689880371</ele>
        <time>2011-01-15T08:27:04Z</time>
      </trkpt>
      <trkpt lat="47.20209" lon="5.55862">
        <ele>234.13626098633</ele>
        <time>2011-01-15T08:27:10Z</time>
      </trkpt>
      <trkpt lat="47.2021" lon="5.55864">
        <ele>234.20854187012</ele>
        <time>2011-01-15T08:27:11Z</time>
      </trkpt>
      <trkpt lat="47.20219" lon="5.55876">
        <ele>234.59071350098</ele>
        <time>2011-01-15T08:27:17Z</time>
      </trkpt>
      <trkpt lat="47.20226" lon="5.55883">
        <ele>234.8332824707</ele>
        <time>2011-01-15T08:27:21Z</time>
      </trkpt>
      <trkpt lat="47.20229" lon="5.55885">
        <ele>235.01142883301</ele>
        <time>2011-01-15T08:27:23Z</time>
      </trkpt>
      <trkpt lat="47.20246" lon="5.5589">
        <ele>236.46144104004</ele>
        <time>2011-01-15T08:27:28Z</time>
      </trkpt>
      <trkpt lat="47.20249" lon="5.55891">
        <ele>236.59996032715</ele>
        <time>2011-01-15T08:27:29Z</time>
      </trkpt>
      <trkpt lat="47.20266" lon="5.55895">
        <ele>238.89489746094</ele>
        <time>2011-01-15T08:27:35Z</time>
      </trkpt>
      <trkpt lat="47.20269" lon="5.55896">
        <ele>239.34948730469</ele>
        <time>2011-01-15T08:27:36Z</time>
      </trkpt>
      <trkpt lat="47.20288" lon="5.55901">
        <ele>241.94422912598</ele>
        <time>2011-01-15T08:27:42Z</time>
      </trkpt>
      <trkpt lat="47.20305" lon="5.55906">
        <ele>243.95710754394</ele>
        <time>2011-01-15T08:27:48Z</time>
      </trkpt>
      <trkpt lat="47.20308" lon="5.55907">
        <ele>244.30354309082</ele>
        <time>2011-01-15T08:27:49Z</time>
      </trkpt>
      <trkpt lat="47.20318" lon="5.55911">
        <ele>245.42442321777</ele>
        <time>2011-01-15T08:27:53Z</time>
      </trkpt>
      <trkpt lat="47.20323" lon="5.55911">
        <ele>246.16516113281</ele>
        <time>2011-01-15T08:27:55Z</time>
      </trkpt>
      <trkpt lat="47.20333" lon="5.55912">
        <ele>247.53791809082</ele>
        <time>2011-01-15T08:27:59Z</time>
      </trkpt>
      <trkpt lat="47.20343" lon="5.55916">
        <ele>248.41484069824</ele>
        <time>2011-01-15T08:28:03Z</time>
      </trkpt>
      <trkpt lat="47.20345" lon="5.55917">
        <ele>248.64598083496</ele>
        <time>2011-01-15T08:28:04Z</time>
      </trkpt>
      <trkpt lat="47.20356" lon="5.55924">
        <ele>249.42189025879</ele>
        <time>2011-01-15T08:28:10Z</time>
      </trkpt>
      <trkpt lat="47.20366" lon="5.55926">
        <ele>250.66471862793</ele>
        <time>2011-01-15T08:28:14Z</time>
      </trkpt>
      <trkpt lat="47.20373" lon="5.55935">
        <ele>250.7282409668</ele>
        <time>2011-01-15T08:28:17Z</time>
      </trkpt>
      <trkpt lat="47.2038" lon="5.55942">
        <ele>250.98573303223</ele>
        <time>2011-01-15T08:28:20Z</time>
      </trkpt>
      <trkpt lat="47.20393" lon="5.55949">
        <ele>252.16676330566</ele>
        <time>2011-01-15T08:28:26Z</time>
      </trkpt>
      <trkpt lat="47.20406" lon="5.55947">
        <ele>254.19407653809</ele>
        <time>2011-01-15T08:28:31Z</time>
      </trkpt>
      <trkpt lat="47.2041" lon="5.55944">
        <ele>255.00775146484</ele>
        <time>2011-01-15T08:28:33Z</time>
      </trkpt>
      <trkpt lat="47.20411" lon="5.55934">
        <ele>256.30035400391</ele>
        <time>2011-01-15T08:28:37Z</time>
      </trkpt>
      <trkpt lat="47.20404" lon="5.55913">
        <ele>257.50033569336</ele>
        <time>2011-01-15T08:28:43Z</time>
      </trkpt>
      <trkpt lat="47.20396" lon="5.55892">
        <ele>258.49752807617</ele>
        <time>2011-01-15T08:28:49Z</time>
      </trkpt>
      <trkpt lat="47.20393" lon="5.55874">
        <ele>259.91009521484</ele>
        <time>2011-01-15T08:28:54Z</time>
      </trkpt>
      <trkpt lat="47.2039" lon="5.55855">
        <ele>261.59637451172</ele>
        <time>2011-01-15T08:28:59Z</time>
      </trkpt>
      <trkpt lat="47.20389" lon="5.55848">
        <ele>262.10977172852</ele>
        <time>2011-01-15T08:29:01Z</time>
      </trkpt>
      <trkpt lat="47.20384" lon="5.55834">
        <ele>263.16598510742</ele>
        <time>2011-01-15T08:29:06Z</time>
      </trkpt>
      <trkpt lat="47.2038" lon="5.55824">
        <ele>263.59158325195</ele>
        <time>2011-01-15T08:29:09Z</time>
      </trkpt>
      <trkpt lat="47.20375" lon="5.55813">
        <ele>264.06585693359</ele>
        <time>2011-01-15T08:29:13Z</time>
      </trkpt>
      <trkpt lat="47.20364" lon="5.55792">
        <ele>265.13589477539</ele>
        <time>2011-01-15T08:29:20Z</time>
      </trkpt>
      <trkpt lat="47.20355" lon="5.55772">
        <ele>266.51895141602</ele>
        <time>2011-01-15T08:29:26Z</time>
      </trkpt>
      <trkpt lat="47.20353" lon="5.55768">
        <ele>266.75769042969</ele>
        <time>2011-01-15T08:29:27Z</time>
      </trkpt>
      <trkpt lat="47.20346" lon="5.55755">
        <ele>267.82720947266</ele>
        <time>2011-01-15T08:29:32Z</time>
      </trkpt>
      <trkpt lat="47.20341" lon="5.55731">
        <ele>268.78479003906</ele>
        <time>2011-01-15T08:29:38Z</time>
      </trkpt>
      <trkpt lat="47.20338" lon="5.55711">
        <ele>269.45294189453</ele>
        <time>2011-01-15T08:29:43Z</time>
      </trkpt>
      <trkpt lat="47.20335" lon="5.55686">
        <ele>270.31460571289</ele>
        <time>2011-01-15T08:29:49Z</time>
      </trkpt>
      <trkpt lat="47.2033" lon="5.55669">
        <ele>270.50439453125</ele>
        <time>2011-01-15T08:29:53Z</time>
      </trkpt>
      <trkpt lat="47.20325" lon="5.55647">
        <ele>270.73129272461</ele>
        <time>2011-01-15T08:29:59Z</time>
      </trkpt>
      <trkpt lat="47.20319" lon="5.55629">
        <ele>270.91262817383</ele>
        <time>2011-01-15T08:30:04Z</time>
      </trkpt>
      <trkpt lat="47.20314" lon="5.55615">
        <ele>270.99462890625</ele>
        <time>2011-01-15T08:30:08Z</time>
      </trkpt>
      <trkpt lat="47.20309" lon="5.55595">
        <ele>271.43627929688</ele>
        <time>2011-01-15T08:30:13Z</time>
      </trkpt>
      <trkpt lat="47.20306" lon="5.55581">
        <ele>271.80996704102</ele>
        <time>2011-01-15T08:30:16Z</time>
      </trkpt>
      <trkpt lat="47.20304" lon="5.55559">
        <ele>272.31640625</ele>
        <time>2011-01-15T08:30:21Z</time>
      </trkpt>
      <trkpt lat="47.20304" lon="5.55543">
        <ele>272.86199951172</ele>
        <time>2011-01-15T08:30:25Z</time>
      </trkpt>
      <trkpt lat="47.20304" lon="5.55531">
        <ele>273.24536132812</ele>
        <time>2011-01-15T08:30:28Z</time>
      </trkpt>
      <trkpt lat="47.20303" lon="5.55512">
        <ele>273.79736328125</ele>
        <time>2011-01-15T08:30:33Z</time>
      </trkpt>
      <trkpt lat="47.203" lon="5.55492">
        <ele>273.759765625</ele>
        <time>2011-01-15T08:30:38Z</time>
      </trkpt>
      <trkpt lat="47.20291" lon="5.55475">
        <ele>272.87466430664</ele>
        <time>2011-01-15T08:30:43Z</time>
      </trkpt>
      <trkpt lat="47.20277" lon="5.55464">
        <ele>272.05334472656</ele>
        <time>2011-01-15T08:30:49Z</time>
      </trkpt>
      <trkpt lat="47.20265" lon="5.55451">
        <ele>271.48678588867</ele>
        <time>2011-01-15T08:30:54Z</time>
      </trkpt>
      <trkpt lat="47.20259" lon="5.55437">
        <ele>271.20776367188</ele>
        <time>2011-01-15T08:30:58Z</time>
      </trkpt>
      <trkpt lat="47.20261" lon="5.55415">
        <ele>271.11358642578</ele>
        <time>2011-01-15T08:31:03Z</time>
      </trkpt>
      <trkpt lat="47.20265" lon="5.554">
        <ele>271.02062988281</ele>
        <time>2011-01-15T08:31:07Z</time>
      </trkpt>
      <trkpt lat="47.20268" lon="5.55393">
        <ele>270.990234375</ele>
        <time>2011-01-15T08:31:09Z</time>
      </trkpt>
      <trkpt lat="47.20273" lon="5.55378">
        <ele>270.9462890625</ele>
        <time>2011-01-15T08:31:13Z</time>
      </trkpt>
      <trkpt lat="47.20283" lon="5.5536">
        <ele>270.98071289062</ele>
        <time>2011-01-15T08:31:19Z</time>
      </trkpt>
      <trkpt lat="47.2029" lon="5.55342">
        <ele>271.01516723633</ele>
        <time>2011-01-15T08:31:24Z</time>
      </trkpt>
      <trkpt lat="47.20295" lon="5.55328">
        <ele>271.35110473633</ele>
        <time>2011-01-15T08:31:28Z</time>
      </trkpt>
      <trkpt lat="47.20303" lon="5.55311">
        <ele>272.44781494141</ele>
        <time>2011-01-15T08:31:33Z</time>
      </trkpt>
      <trkpt lat="47.20305" lon="5.55304">
        <ele>272.94519042969</ele>
        <time>2011-01-15T08:31:35Z</time>
      </trkpt>
      <trkpt lat="47.20311" lon="5.55286">
        <ele>274.24630737305</ele>
        <time>2011-01-15T08:31:40Z</time>
      </trkpt>
      <trkpt lat="47.20313" lon="5.55279">
        <ele>274.77523803711</ele>
        <time>2011-01-15T08:31:42Z</time>
      </trkpt>
      <trkpt lat="47.20321" lon="5.55262">
        <ele>276.35757446289</ele>
        <time>2011-01-15T08:31:48Z</time>
      </trkpt>
      <trkpt lat="47.20325" lon="5.55248">
        <ele>277.54373168945</ele>
        <time>2011-01-15T08:31:52Z</time>
      </trkpt>
      <trkpt lat="47.20329" lon="5.55236">
        <ele>279.02368164062</ele>
        <time>2011-01-15T08:31:56Z</time>
      </trkpt>
      <trkpt lat="47.20329" lon="5.55228">
        <ele>279.74765014648</ele>
        <time>2011-01-15T08:31:58Z</time>
      </trkpt>
      <trkpt lat="47.20325" lon="5.55207">
        <ele>281.48013305664</ele>
        <time>2011-01-15T08:32:04Z</time>
      </trkpt>
      <trkpt lat="47.20317" lon="5.55189">
        <ele>282.56118774414</ele>
        <time>2011-01-15T08:32:10Z</time>
      </trkpt>
      <trkpt lat="47.20306" lon="5.55172">
        <ele>283.26663208008</ele>
        <time>2011-01-15T08:32:17Z</time>
      </trkpt>
      <trkpt lat="47.20298" lon="5.55159">
        <ele>283.59344482422</ele>
        <time>2011-01-15T08:32:22Z</time>
      </trkpt>
      <trkpt lat="47.20291" lon="5.55144">
        <ele>284.05529785156</ele>
        <time>2011-01-15T08:32:27Z</time>
      </trkpt>
      <trkpt lat="47.20284" lon="5.55129">
        <ele>284.76550292969</ele>
        <time>2011-01-15T08:32:32Z</time>
      </trkpt>
      <trkpt lat="47.20277" lon="5.55113">
        <ele>285.55740356445</ele>
        <time>2011-01-15T08:32:37Z</time>
      </trkpt>
      <trkpt lat="47.2027" lon="5.55096">
        <ele>286.60739135742</ele>
        <time>2011-01-15T08:32:43Z</time>
      </trkpt>
      <trkpt lat="47.20264" lon="5.55078">
        <ele>287.81893920898</ele>
        <time>2011-01-15T08:32:49Z</time>
      </trkpt>
      <trkpt lat="47.20262" lon="5.55063">
        <ele>288.58489990234</ele>
        <time>2011-01-15T08:32:53Z</time>
      </trkpt>
      <trkpt lat="47.20263" lon="5.55041">
        <ele>289.84851074219</ele>
        <time>2011-01-15T08:32:59Z</time>
      </trkpt>
      <trkpt lat="47.20267" lon="5.55023">
        <ele>290.94104003906</ele>
        <time>2011-01-15T08:33:04Z</time>
      </trkpt>
      <trkpt lat="47.20273" lon="5.55004">
        <ele>292.05630493164</ele>
        <time>2011-01-15T08:33:09Z</time>
      </trkpt>
      <trkpt lat="47.2028" lon="5.54993">
        <ele>292.64553833008</ele>
        <time>2011-01-15T08:33:13Z</time>
      </trkpt>
      <trkpt lat="47.20288" lon="5.54973">
        <ele>293.5520324707</ele>
        <time>2011-01-15T08:33:19Z</time>
      </trkpt>
      <trkpt lat="47.20296" lon="5.54954">
        <ele>294.50921630859</ele>
        <time>2011-01-15T08:33:25Z</time>
      </trkpt>
      <trkpt lat="47.20303" lon="5.54943">
        <ele>295.11651611328</ele>
        <time>2011-01-15T08:33:29Z</time>
      </trkpt>
      <trkpt lat="47.20308" lon="5.54934">
        <ele>295.63339233398</ele>
        <time>2011-01-15T08:33:32Z</time>
      </trkpt>
      <trkpt lat="47.20316" lon="5.54913">
        <ele>296.90615844727</ele>
        <time>2011-01-15T08:33:38Z</time>
      </trkpt>
      <trkpt lat="47.20326" lon="5.54895">
        <ele>298.80963134766</ele>
        <time>2011-01-15T08:33:44Z</time>
      </trkpt>
      <trkpt lat="47.20337" lon="5.54878">
        <ele>300.49621582031</ele>
        <time>2011-01-15T08:33:50Z</time>
      </trkpt>
      <trkpt lat="47.20345" lon="5.54865">
        <ele>301.34710693359</ele>
        <time>2011-01-15T08:33:55Z</time>
      </trkpt>
      <trkpt lat="47.2035" lon="5.54856">
        <ele>301.94143676758</ele>
        <time>2011-01-15T08:33:58Z</time>
      </trkpt>
      <trkpt lat="47.2036" lon="5.54846">
        <ele>302.61138916016</ele>
        <time>2011-01-15T08:34:03Z</time>
      </trkpt>
      <trkpt lat="47.20371" lon="5.54827">
        <ele>304.50259399414</ele>
        <time>2011-01-15T08:34:10Z</time>
      </trkpt>
      <trkpt lat="47.20381" lon="5.54814">
        <ele>306.30917358398</ele>
        <time>2011-01-15T08:34:16Z</time>
      </trkpt>
      <trkpt lat="47.20389" lon="5.54803">
        <ele>308.04135131836</ele>
        <time>2011-01-15T08:34:21Z</time>
      </trkpt>
      <trkpt lat="47.20396" lon="5.54791">
        <ele>310.29385375977</ele>
        <time>2011-01-15T08:34:26Z</time>
      </trkpt>
      <trkpt lat="47.20403" lon="5.54778">
        <ele>312.77349853516</ele>
        <time>2011-01-15T08:34:31Z</time>
      </trkpt>
      <trkpt lat="47.2041" lon="5.54767">
        <ele>315.14361572266</ele>
        <time>2011-01-15T08:34:36Z</time>
      </trkpt>
      <trkpt lat="47.20416" lon="5.54763">
        <ele>316.39501953125</ele>
        <time>2011-01-15T08:34:39Z</time>
      </trkpt>
      <trkpt lat="47.20429" lon="5.54756">
        <ele>317.54620361328</ele>
        <time>2011-01-15T08:34:45Z</time>
      </trkpt>
      <trkpt lat="47.20437" lon="5.54752">
        <ele>318.41949462891</ele>
        <time>2011-01-15T08:34:49Z</time>
      </trkpt>
      <trkpt lat="47.20441" lon="5.5475">
        <ele>318.73147583008</ele>
        <time>2011-01-15T08:34:51Z</time>
      </trkpt>
      <trkpt lat="47.20452" lon="5.54746">
        <ele>319.17965698242</ele>
        <time>2011-01-15T08:34:56Z</time>
      </trkpt>
      <trkpt lat="47.20461" lon="5.54744">
        <ele>319.45016479492</ele>
        <time>2011-01-15T08:35:00Z</time>
      </trkpt>
      <trkpt lat="47.20472" lon="5.5474">
        <ele>319.92819213867</ele>
        <time>2011-01-15T08:35:05Z</time>
      </trkpt>
      <trkpt lat="47.20482" lon="5.54738">
        <ele>320.13702392578</ele>
        <time>2011-01-15T08:35:10Z</time>
      </trkpt>
      <trkpt lat="47.20496" lon="5.54732">
        <ele>320.98425292969</ele>
        <time>2011-01-15T08:35:16Z</time>
      </trkpt>
      <trkpt lat="47.20509" lon="5.54728">
        <ele>321.82525634766</ele>
        <time>2011-01-15T08:35:21Z</time>
      </trkpt>
      <trkpt lat="47.20521" lon="5.54721">
        <ele>323.18292236328</ele>
        <time>2011-01-15T08:35:26Z</time>
      </trkpt>
      <trkpt lat="47.20533" lon="5.54711">
        <ele>324.80523681641</ele>
        <time>2011-01-15T08:35:31Z</time>
      </trkpt>
      <trkpt lat="47.20535" lon="5.54709">
        <ele>325.17468261719</ele>
        <time>2011-01-15T08:35:32Z</time>
      </trkpt>
      <trkpt lat="47.20544" lon="5.54703">
        <ele>326.04281616211</ele>
        <time>2011-01-15T08:35:36Z</time>
      </trkpt>
      <trkpt lat="47.20543" lon="5.54699">
        <ele>326.48593139648</ele>
        <time>2011-01-15T08:35:40Z</time>
      </trkpt>
      <trkpt lat="47.20536" lon="5.54707">
        <ele>325.41397094727</ele>
        <time>2011-01-15T08:35:44Z</time>
      </trkpt>
      <trkpt lat="47.20532" lon="5.5471">
        <ele>325.01321411133</ele>
        <time>2011-01-15T08:35:46Z</time>
      </trkpt>
      <trkpt lat="47.20523" lon="5.54712">
        <ele>324.57861328125</ele>
        <time>2011-01-15T08:35:51Z</time>
      </trkpt>
      <trkpt lat="47.20514" lon="5.54718">
        <ele>323.5133972168</ele>
        <time>2011-01-15T08:35:55Z</time>
      </trkpt>
      <trkpt lat="47.2051" lon="5.5472">
        <ele>323.11529541016</ele>
        <time>2011-01-15T08:35:57Z</time>
      </trkpt>
      <trkpt lat="47.20498" lon="5.54726">
        <ele>321.97409057617</ele>
        <time>2011-01-15T08:36:02Z</time>
      </trkpt>
      <trkpt lat="47.20483" lon="5.5473">
        <ele>321.39581298828</ele>
        <time>2011-01-15T08:36:08Z</time>
      </trkpt>
      <trkpt lat="47.20474" lon="5.54731">
        <ele>321.30340576172</ele>
        <time>2011-01-15T08:36:12Z</time>
      </trkpt>
      <trkpt lat="47.20462" lon="5.54734">
        <ele>320.99710083008</ele>
        <time>2011-01-15T08:36:18Z</time>
      </trkpt>
      <trkpt lat="47.20451" lon="5.54739">
        <ele>320.30325317383</ele>
        <time>2011-01-15T08:36:23Z</time>
      </trkpt>
      <trkpt lat="47.2044" lon="5.54744">
        <ele>319.6858215332</ele>
        <time>2011-01-15T08:36:28Z</time>
      </trkpt>
      <trkpt lat="47.20428" lon="5.54748">
        <ele>319.0927734375</ele>
        <time>2011-01-15T08:36:33Z</time>
      </trkpt>
      <trkpt lat="47.20416" lon="5.54755">
        <ele>317.87585449219</ele>
        <time>2011-01-15T08:36:39Z</time>
      </trkpt>
      <trkpt lat="47.20407" lon="5.54763">
        <ele>315.78726196289</ele>
        <time>2011-01-15T08:36:44Z</time>
      </trkpt>
      <trkpt lat="47.20395" lon="5.54781">
        <ele>312.07803344727</ele>
        <time>2011-01-15T08:36:51Z</time>
      </trkpt>
      <trkpt lat="47.20384" lon="5.54801">
        <ele>308.41961669922</ele>
        <time>2011-01-15T08:36:58Z</time>
      </trkpt>
      <trkpt lat="47.20375" lon="5.54816">
        <ele>306.11950683594</ele>
        <time>2011-01-15T08:37:03Z</time>
      </trkpt>
      <trkpt lat="47.20366" lon="5.54829">
        <ele>304.35168457031</ele>
        <time>2011-01-15T08:37:08Z</time>
      </trkpt>
      <trkpt lat="47.20358" lon="5.54844">
        <ele>302.95193481445</ele>
        <time>2011-01-15T08:37:14Z</time>
      </trkpt>
      <trkpt lat="47.20354" lon="5.54851">
        <ele>302.39877319336</ele>
        <time>2011-01-15T08:37:17Z</time>
      </trkpt>
      <trkpt lat="47.20357" lon="5.54849">
        <ele>302.44638061523</ele>
        <time>2011-01-15T08:37:21Z</time>
      </trkpt>
      <trkpt lat="47.20364" lon="5.54837">
        <ele>303.54382324219</ele>
        <time>2011-01-15T08:37:26Z</time>
      </trkpt>
      <trkpt lat="47.20372" lon="5.54824">
        <ele>304.96401977539</ele>
        <time>2011-01-15T08:37:32Z</time>
      </trkpt>
      <trkpt lat="47.20379" lon="5.54813">
        <ele>306.51205444336</ele>
        <time>2011-01-15T08:37:37Z</time>
      </trkpt>
      <trkpt lat="47.20387" lon="5.54802">
        <ele>308.26275634766</ele>
        <time>2011-01-15T08:37:42Z</time>
      </trkpt>
      <trkpt lat="47.20396" lon="5.54785">
        <ele>311.24209594727</ele>
        <time>2011-01-15T08:37:49Z</time>
      </trkpt>
      <trkpt lat="47.20404" lon="5.54776">
        <ele>313.27835083008</ele>
        <time>2011-01-15T08:37:54Z</time>
      </trkpt>
      <trkpt lat="47.20413" lon="5.54766">
        <ele>315.58023071289</ele>
        <time>2011-01-15T08:38:00Z</time>
      </trkpt>
      <trkpt lat="47.20422" lon="5.54761">
        <ele>316.7463684082</ele>
        <time>2011-01-15T08:38:05Z</time>
      </trkpt>
      <trkpt lat="47.20431" lon="5.54756">
        <ele>317.65908813477</ele>
        <time>2011-01-15T08:38:10Z</time>
      </trkpt>
      <trkpt lat="47.2044" lon="5.5475">
        <ele>318.72625732422</ele>
        <time>2011-01-15T08:38:15Z</time>
      </trkpt>
      <trkpt lat="47.20452" lon="5.54745">
        <ele>319.42211914062</ele>
        <time>2011-01-15T08:38:21Z</time>
      </trkpt>
      <trkpt lat="47.20461" lon="5.5474">
        <ele>320.10800170898</ele>
        <time>2011-01-15T08:38:26Z</time>
      </trkpt>
      <trkpt lat="47.20471" lon="5.54736">
        <ele>320.63577270508</ele>
        <time>2011-01-15T08:38:31Z</time>
      </trkpt>
      <trkpt lat="47.20475" lon="5.54732">
        <ele>321.18081665039</ele>
        <time>2011-01-15T08:38:33Z</time>
      </trkpt>
      <trkpt lat="47.20487" lon="5.54729">
        <ele>321.55960083008</ele>
        <time>2011-01-15T08:38:39Z</time>
      </trkpt>
      <trkpt lat="47.20494" lon="5.54728">
        <ele>321.67459106445</ele>
        <time>2011-01-15T08:38:43Z</time>
      </trkpt>
      <trkpt lat="47.2051" lon="5.54723">
        <ele>322.76214599609</ele>
        <time>2011-01-15T08:38:50Z</time>
      </trkpt>
      <trkpt lat="47.2052" lon="5.54715">
        <ele>324.13076782227</ele>
        <time>2011-01-15T08:38:56Z</time>
      </trkpt>
      <trkpt lat="47.20528" lon="5.5471">
        <ele>324.96310424805</ele>
        <time>2011-01-15T08:39:01Z</time>
      </trkpt>
      <trkpt lat="47.20535" lon="5.54706">
        <ele>325.60388183594</ele>
        <time>2011-01-15T08:39:05Z</time>
      </trkpt>
      <trkpt lat="47.20547" lon="5.54699">
        <ele>326.53518676758</ele>
        <time>2011-01-15T08:39:11Z</time>
      </trkpt>
      <trkpt lat="47.20554" lon="5.54696">
        <ele>326.91815185547</ele>
        <time>2011-01-15T08:39:14Z</time>
      </trkpt>
      <trkpt lat="47.20563" lon="5.54694">
        <ele>327.12707519531</ele>
        <time>2011-01-15T08:39:18Z</time>
      </trkpt>
      <trkpt lat="47.20572" lon="5.54693">
        <ele>327.22106933594</ele>
        <time>2011-01-15T08:39:24Z</time>
      </trkpt>
      <trkpt lat="47.20582" lon="5.54695">
        <ele>326.99227905273</ele>
        <time>2011-01-15T08:39:32Z</time>
      </trkpt>
      <trkpt lat="47.20591" lon="5.547">
        <ele>326.48620605469</ele>
        <time>2011-01-15T08:39:39Z</time>
      </trkpt>
      <trkpt lat="47.20593" lon="5.54702">
        <ele>326.33462524414</ele>
        <time>2011-01-15T08:39:41Z</time>
      </trkpt>
      <trkpt lat="47.206" lon="5.5471">
        <ele>325.72784423828</ele>
        <time>2011-01-15T08:39:46Z</time>
      </trkpt>
      <trkpt lat="47.20613" lon="5.5473">
        <ele>324.62438964844</ele>
        <time>2011-01-15T08:39:52Z</time>
      </trkpt>
      <trkpt lat="47.2062" lon="5.54743">
        <ele>324.11349487305</ele>
        <time>2011-01-15T08:39:56Z</time>
      </trkpt>
      <trkpt lat="47.20626" lon="5.54755">
        <ele>323.92993164062</ele>
        <time>2011-01-15T08:40:01Z</time>
      </trkpt>
      <trkpt lat="47.20627" lon="5.54763">
        <ele>323.71508789062</ele>
        <time>2011-01-15T08:40:07Z</time>
      </trkpt>
      <trkpt lat="47.20628" lon="5.54765">
        <ele>323.68890380859</ele>
        <time>2011-01-15T08:40:14Z</time>
      </trkpt>
      <trkpt lat="47.20628" lon="5.54765">
        <ele>323.73303222656</ele>
        <time>2011-01-15T08:40:24Z</time>
      </trkpt>
      <trkpt lat="47.2063" lon="5.54767">
        <ele>323.78930664062</ele>
        <time>2011-01-15T08:40:31Z</time>
      </trkpt>
      <trkpt lat="47.20631" lon="5.54771">
        <ele>323.83059692383</ele>
        <time>2011-01-15T08:40:38Z</time>
      </trkpt>
      <trkpt lat="47.20633" lon="5.54776">
        <ele>323.84268188477</ele>
        <time>2011-01-15T08:40:45Z</time>
      </trkpt>
      <trkpt lat="47.20634" lon="5.54777">
        <ele>323.85296630859</ele>
        <time>2011-01-15T08:40:51Z</time>
      </trkpt>
      <trkpt lat="47.20633" lon="5.54777">
        <ele>323.81930541992</ele>
        <time>2011-01-15T08:40:57Z</time>
      </trkpt>
      <trkpt lat="47.20634" lon="5.54779">
        <ele>323.7864074707</ele>
        <time>2011-01-15T08:41:05Z</time>
      </trkpt>
      <trkpt lat="47.20636" lon="5.54791">
        <ele>323.74960327148</ele>
        <time>2011-01-15T08:41:14Z</time>
      </trkpt>
      <trkpt lat="47.2064" lon="5.54799">
        <ele>323.9208984375</ele>
        <time>2011-01-15T08:41:22Z</time>
      </trkpt>
      <trkpt lat="47.20643" lon="5.5481">
        <ele>324.05480957031</ele>
        <time>2011-01-15T08:41:30Z</time>
      </trkpt>
      <trkpt lat="47.20644" lon="5.54814">
        <ele>324.16088867188</ele>
        <time>2011-01-15T08:41:33Z</time>
      </trkpt>
      <trkpt lat="47.20647" lon="5.54827">
        <ele>324.34121704102</ele>
        <time>2011-01-15T08:41:42Z</time>
      </trkpt>
      <trkpt lat="47.20649" lon="5.54841">
        <ele>324.17211914062</ele>
        <time>2011-01-15T08:41:49Z</time>
      </trkpt>
      <trkpt lat="47.2066" lon="5.54859">
        <ele>325.09918212891</ele>
        <time>2011-01-15T08:41:54Z</time>
      </trkpt>
      <trkpt lat="47.20662" lon="5.54862">
        <ele>325.22470092773</ele>
        <time>2011-01-15T08:41:55Z</time>
      </trkpt>
      <trkpt lat="47.20667" lon="5.54875">
        <ele>325.51962280273</ele>
        <time>2011-01-15T08:41:59Z</time>
      </trkpt>
      <trkpt lat="47.20677" lon="5.54893">
        <ele>325.09918212891</ele>
        <time>2011-01-15T08:42:05Z</time>
      </trkpt>
      <trkpt lat="47.20688" lon="5.54912">
        <ele>324.89135742188</ele>
        <time>2011-01-15T08:42:11Z</time>
      </trkpt>
      <trkpt lat="47.2069" lon="5.54916">
        <ele>324.85787963867</ele>
        <time>2011-01-15T08:42:12Z</time>
      </trkpt>
      <trkpt lat="47.20698" lon="5.54932">
        <ele>324.79974365234</ele>
        <time>2011-01-15T08:42:17Z</time>
      </trkpt>
      <trkpt lat="47.207" lon="5.54935">
        <ele>324.78677368164</ele>
        <time>2011-01-15T08:42:18Z</time>
      </trkpt>
      <trkpt lat="47.20708" lon="5.54947">
        <ele>324.93841552734</ele>
        <time>2011-01-15T08:42:22Z</time>
      </trkpt>
      <trkpt lat="47.20715" lon="5.54963">
        <ele>325.01358032227</ele>
        <time>2011-01-15T08:42:27Z</time>
      </trkpt>
      <trkpt lat="47.20716" lon="5.54966">
        <ele>325.02972412109</ele>
        <time>2011-01-15T08:42:28Z</time>
      </trkpt>
      <trkpt lat="47.20726" lon="5.54985">
        <ele>325.44998168945</ele>
        <time>2011-01-15T08:42:34Z</time>
      </trkpt>
      <trkpt lat="47.20736" lon="5.54999">
        <ele>326.02032470703</ele>
        <time>2011-01-15T08:42:38Z</time>
      </trkpt>
      <trkpt lat="47.20739" lon="5.55002">
        <ele>326.06854248047</ele>
        <time>2011-01-15T08:42:39Z</time>
      </trkpt>
      <trkpt lat="47.20747" lon="5.55021">
        <ele>325.76739501953</ele>
        <time>2011-01-15T08:42:44Z</time>
      </trkpt>
      <trkpt lat="47.20753" lon="5.55045">
        <ele>324.79162597656</ele>
        <time>2011-01-15T08:42:50Z</time>
      </trkpt>
      <trkpt lat="47.20762" lon="5.55062">
        <ele>323.90197753906</ele>
        <time>2011-01-15T08:42:55Z</time>
      </trkpt>
      <trkpt lat="47.20767" lon="5.55071">
        <ele>323.51303100586</ele>
        <time>2011-01-15T08:42:58Z</time>
      </trkpt>
      <trkpt lat="47.20774" lon="5.55082">
        <ele>323.06314086914</ele>
        <time>2011-01-15T08:43:02Z</time>
      </trkpt>
      <trkpt lat="47.20779" lon="5.55088">
        <ele>322.51754760742</ele>
        <time>2011-01-15T08:43:04Z</time>
      </trkpt>
      <trkpt lat="47.20783" lon="5.55093">
        <ele>321.96057128906</ele>
        <time>2011-01-15T08:43:06Z</time>
      </trkpt>
      <trkpt lat="47.20792" lon="5.55113">
        <ele>319.80892944336</ele>
        <time>2011-01-15T08:43:12Z</time>
      </trkpt>
      <trkpt lat="47.20794" lon="5.55116">
        <ele>319.45764160156</ele>
        <time>2011-01-15T08:43:13Z</time>
      </trkpt>
      <trkpt lat="47.20804" lon="5.55132">
        <ele>318.07464599609</ele>
        <time>2011-01-15T08:43:18Z</time>
      </trkpt>
      <trkpt lat="47.20815" lon="5.55146">
        <ele>317.09487915039</ele>
        <time>2011-01-15T08:43:22Z</time>
      </trkpt>
      <trkpt lat="47.20818" lon="5.55151">
        <ele>316.6672668457</ele>
        <time>2011-01-15T08:43:24Z</time>
      </trkpt>
      <trkpt lat="47.20831" lon="5.55164">
        <ele>316.16979980469</ele>
        <time>2011-01-15T08:43:29Z</time>
      </trkpt>
      <trkpt lat="47.20844" lon="5.55177">
        <ele>313.35665893555</ele>
        <time>2011-01-15T08:43:34Z</time>
      </trkpt>
      <trkpt lat="47.20849" lon="5.55186">
        <ele>311.40084838867</ele>
        <time>2011-01-15T08:43:37Z</time>
      </trkpt>
      <trkpt lat="47.20848" lon="5.55202">
        <ele>309.1005859375</ele>
        <time>2011-01-15T08:43:41Z</time>
      </trkpt>
      <trkpt lat="47.20839" lon="5.55216">
        <ele>307.80685424805</ele>
        <time>2011-01-15T08:43:45Z</time>
      </trkpt>
      <trkpt lat="47.20829" lon="5.55227">
        <ele>306.38793945312</ele>
        <time>2011-01-15T08:43:49Z</time>
      </trkpt>
      <trkpt lat="47.20825" lon="5.55233">
        <ele>305.19085693359</ele>
        <time>2011-01-15T08:43:51Z</time>
      </trkpt>
      <trkpt lat="47.20819" lon="5.55256">
        <ele>301.39431762695</ele>
        <time>2011-01-15T08:43:57Z</time>
      </trkpt>
      <trkpt lat="47.20816" lon="5.55279">
        <ele>298.24188232422</ele>
        <time>2011-01-15T08:44:02Z</time>
      </trkpt>
      <trkpt lat="47.20815" lon="5.55306">
        <ele>294.72131347656</ele>
        <time>2011-01-15T08:44:07Z</time>
      </trkpt>
      <trkpt lat="47.20815" lon="5.55317">
        <ele>293.42361450195</ele>
        <time>2011-01-15T08:44:09Z</time>
      </trkpt>
      <trkpt lat="47.20821" lon="5.55337">
        <ele>291.13705444336</ele>
        <time>2011-01-15T08:44:13Z</time>
      </trkpt>
      <trkpt lat="47.20823" lon="5.55342">
        <ele>290.73931884766</ele>
        <time>2011-01-15T08:44:14Z</time>
      </trkpt>
      <trkpt lat="47.20832" lon="5.55364">
        <ele>288.67205810547</ele>
        <time>2011-01-15T08:44:19Z</time>
      </trkpt>
      <trkpt lat="47.20837" lon="5.55384">
        <ele>286.20889282227</ele>
        <time>2011-01-15T08:44:23Z</time>
      </trkpt>
      <trkpt lat="47.20833" lon="5.55399">
        <ele>284.90823364258</ele>
        <time>2011-01-15T08:44:26Z</time>
      </trkpt>
      <trkpt lat="47.20832" lon="5.55433">
        <ele>282.19372558594</ele>
        <time>2011-01-15T08:44:33Z</time>
      </trkpt>
      <trkpt lat="47.20837" lon="5.55459">
        <ele>280.65640258789</ele>
        <time>2011-01-15T08:44:38Z</time>
      </trkpt>
      <trkpt lat="47.20842" lon="5.5548">
        <ele>279.08627319336</ele>
        <time>2011-01-15T08:44:43Z</time>
      </trkpt>
      <trkpt lat="47.20845" lon="5.55509">
        <ele>277.73086547852</ele>
        <time>2011-01-15T08:44:49Z</time>
      </trkpt>
      <trkpt lat="47.20845" lon="5.55522">
        <ele>277.53695678711</ele>
        <time>2011-01-15T08:44:52Z</time>
      </trkpt>
      <trkpt lat="47.20856" lon="5.55551">
        <ele>275.7536315918</ele>
        <time>2011-01-15T08:44:59Z</time>
      </trkpt>
      <trkpt lat="47.20861" lon="5.55578">
        <ele>274.51617431641</ele>
        <time>2011-01-15T08:45:05Z</time>
      </trkpt>
      <trkpt lat="47.2086" lon="5.55605">
        <ele>274.25207519531</ele>
        <time>2011-01-15T08:45:11Z</time>
      </trkpt>
      <trkpt lat="47.20858" lon="5.55627">
        <ele>274.40045166016</ele>
        <time>2011-01-15T08:45:16Z</time>
      </trkpt>
      <trkpt lat="47.20852" lon="5.55651">
        <ele>275.20361328125</ele>
        <time>2011-01-15T08:45:22Z</time>
      </trkpt>
      <trkpt lat="47.20848" lon="5.55677">
        <ele>275.48901367188</ele>
        <time>2011-01-15T08:45:28Z</time>
      </trkpt>
      <trkpt lat="47.20847" lon="5.55692">
        <ele>274.65026855469</ele>
        <time>2011-01-15T08:45:32Z</time>
      </trkpt>
      <trkpt lat="47.20845" lon="5.55717">
        <ele>273.65539550781</ele>
        <time>2011-01-15T08:45:38Z</time>
      </trkpt>
      <trkpt lat="47.20844" lon="5.55737">
        <ele>272.83303833008</ele>
        <time>2011-01-15T08:45:43Z</time>
      </trkpt>
      <trkpt lat="47.2084" lon="5.5576">
        <ele>272.20001220703</ele>
        <time>2011-01-15T08:45:48Z</time>
      </trkpt>
      <trkpt lat="47.20833" lon="5.55786">
        <ele>271.57681274414</ele>
        <time>2011-01-15T08:45:54Z</time>
      </trkpt>
      <trkpt lat="47.20826" lon="5.55802">
        <ele>270.05236816406</ele>
        <time>2011-01-15T08:45:58Z</time>
      </trkpt>
      <trkpt lat="47.20819" lon="5.55818">
        <ele>268.59298706055</ele>
        <time>2011-01-15T08:46:02Z</time>
      </trkpt>
      <trkpt lat="47.20808" lon="5.55833">
        <ele>267.37103271484</ele>
        <time>2011-01-15T08:46:07Z</time>
      </trkpt>
      <trkpt lat="47.208" lon="5.5584">
        <ele>266.97003173828</ele>
        <time>2011-01-15T08:46:09Z</time>
      </trkpt>
      <trkpt lat="47.20788" lon="5.55845">
        <ele>266.70492553711</ele>
        <time>2011-01-15T08:46:13Z</time>
      </trkpt>
      <trkpt lat="47.20774" lon="5.55846">
        <ele>266.64703369141</ele>
        <time>2011-01-15T08:46:18Z</time>
      </trkpt>
      <trkpt lat="47.20763" lon="5.55852">
        <ele>266.18518066406</ele>
        <time>2011-01-15T08:46:22Z</time>
      </trkpt>
      <trkpt lat="47.20758" lon="5.55867">
        <ele>264.82278442383</ele>
        <time>2011-01-15T08:46:26Z</time>
      </trkpt>
      <trkpt lat="47.20761" lon="5.55884">
        <ele>263.3415222168</ele>
        <time>2011-01-15T08:46:30Z</time>
      </trkpt>
      <trkpt lat="47.20763" lon="5.55888">
        <ele>263.01220703125</ele>
        <time>2011-01-15T08:46:31Z</time>
      </trkpt>
      <trkpt lat="47.20763" lon="5.55897">
        <ele>262.22296142578</ele>
        <time>2011-01-15T08:46:33Z</time>
      </trkpt>
      <trkpt lat="47.20774" lon="5.55931">
        <ele>259.57681274414</ele>
        <time>2011-01-15T08:46:41Z</time>
      </trkpt>
      <trkpt lat="47.20776" lon="5.5594">
        <ele>258.81564331055</ele>
        <time>2011-01-15T08:46:43Z</time>
      </trkpt>
      <trkpt lat="47.20771" lon="5.55962">
        <ele>256.70944213867</ele>
        <time>2011-01-15T08:46:48Z</time>
      </trkpt>
      <trkpt lat="47.20764" lon="5.55966">
        <ele>256.13565063477</ele>
        <time>2011-01-15T08:46:50Z</time>
      </trkpt>
      <trkpt lat="47.2075" lon="5.55964">
        <ele>256.06164550781</ele>
        <time>2011-01-15T08:46:54Z</time>
      </trkpt>
      <trkpt lat="47.20732" lon="5.55963">
        <ele>254.35696411133</ele>
        <time>2011-01-15T08:47:00Z</time>
      </trkpt>
      <trkpt lat="47.20724" lon="5.55965">
        <ele>253.38418579102</ele>
        <time>2011-01-15T08:47:03Z</time>
      </trkpt>
      <trkpt lat="47.20712" lon="5.55972">
        <ele>251.71290588379</ele>
        <time>2011-01-15T08:47:08Z</time>
      </trkpt>
      <trkpt lat="47.20704" lon="5.55981">
        <ele>250.36140441894</ele>
        <time>2011-01-15T08:47:11Z</time>
      </trkpt>
      <trkpt lat="47.20689" lon="5.56003">
        <ele>247.72152709961</ele>
        <time>2011-01-15T08:47:17Z</time>
      </trkpt>
      <trkpt lat="47.20678" lon="5.56024">
        <ele>245.78518676758</ele>
        <time>2011-01-15T08:47:22Z</time>
      </trkpt>
      <trkpt lat="47.20668" lon="5.56044">
        <ele>243.947265625</ele>
        <time>2011-01-15T08:47:27Z</time>
      </trkpt>
      <trkpt lat="47.20662" lon="5.56065">
        <ele>242.39234924316</ele>
        <time>2011-01-15T08:47:32Z</time>
      </trkpt>
      <trkpt lat="47.20661" lon="5.56087">
        <ele>241.3532409668</ele>
        <time>2011-01-15T08:47:37Z</time>
      </trkpt>
      <trkpt lat="47.20661" lon="5.56108">
        <ele>240.95791625977</ele>
        <time>2011-01-15T08:47:41Z</time>
      </trkpt>
      <trkpt lat="47.20661" lon="5.56129">
        <ele>240.50215148926</ele>
        <time>2011-01-15T08:47:45Z</time>
      </trkpt>
      <trkpt lat="47.20656" lon="5.56149">
        <ele>239.82037353516</ele>
        <time>2011-01-15T08:47:49Z</time>
      </trkpt>
      <trkpt lat="47.20649" lon="5.5617">
        <ele>238.99960327148</ele>
        <time>2011-01-15T08:47:54Z</time>
      </trkpt>
      <trkpt lat="47.20639" lon="5.56188">
        <ele>237.5352935791</ele>
        <time>2011-01-15T08:47:59Z</time>
      </trkpt>
      <trkpt lat="47.2063" lon="5.56201">
        <ele>236.27201843262</ele>
        <time>2011-01-15T08:48:03Z</time>
      </trkpt>
      <trkpt lat="47.2062" lon="5.5622">
        <ele>234.34605407715</ele>
        <time>2011-01-15T08:48:08Z</time>
      </trkpt>
      <trkpt lat="47.20619" lon="5.56239">
        <ele>233.08865356445</ele>
        <time>2011-01-15T08:48:11Z</time>
      </trkpt>
      <trkpt lat="47.2062" lon="5.56266">
        <ele>231.66384887695</ele>
        <time>2011-01-15T08:48:16Z</time>
      </trkpt>
      <trkpt lat="47.20623" lon="5.56293">
        <ele>230.46775817871</ele>
        <time>2011-01-15T08:48:22Z</time>
      </trkpt>
      <trkpt lat="47.20625" lon="5.56316">
        <ele>229.35346984863</ele>
        <time>2011-01-15T08:48:27Z</time>
      </trkpt>
      <trkpt lat="47.20625" lon="5.56342">
        <ele>228.16352844238</ele>
        <time>2011-01-15T08:48:33Z</time>
      </trkpt>
      <trkpt lat="47.20626" lon="5.56365">
        <ele>227.49150085449</ele>
        <time>2011-01-15T08:48:38Z</time>
      </trkpt>
      <trkpt lat="47.20628" lon="5.56392">
        <ele>226.66934204102</ele>
        <time>2011-01-15T08:48:44Z</time>
      </trkpt>
      <trkpt lat="47.20633" lon="5.56412">
        <ele>226.30812072754</ele>
        <time>2011-01-15T08:48:49Z</time>
      </trkpt>
      <trkpt lat="47.20638" lon="5.56428">
        <ele>226.52423095703</ele>
        <time>2011-01-15T08:48:53Z</time>
      </trkpt>
      <trkpt lat="47.20645" lon="5.56446">
        <ele>226.8397064209</ele>
        <time>2011-01-15T08:48:58Z</time>
      </trkpt>
      <trkpt lat="47.20658" lon="5.56464">
        <ele>227.06639099121</ele>
        <time>2011-01-15T08:49:04Z</time>
      </trkpt>
      <trkpt lat="47.20671" lon="5.56481">
        <ele>227.14689636231</ele>
        <time>2011-01-15T08:49:09Z</time>
      </trkpt>
      <trkpt lat="47.20684" lon="5.565">
        <ele>227.62487792969</ele>
        <time>2011-01-15T08:49:14Z</time>
      </trkpt>
      <trkpt lat="47.20691" lon="5.56515">
        <ele>227.93914794922</ele>
        <time>2011-01-15T08:49:18Z</time>
      </trkpt>
      <trkpt lat="47.20695" lon="5.56529">
        <ele>227.91313171387</ele>
        <time>2011-01-15T08:49:23Z</time>
      </trkpt>
      <trkpt lat="47.207" lon="5.56549">
        <ele>227.57720947266</ele>
        <time>2011-01-15T08:49:28Z</time>
      </trkpt>
      <trkpt lat="47.20704" lon="5.56567">
        <ele>227.04510498047</ele>
        <time>2011-01-15T08:49:32Z</time>
      </trkpt>
      <trkpt lat="47.20705" lon="5.56581">
        <ele>226.56648254394</ele>
        <time>2011-01-15T08:49:35Z</time>
      </trkpt>
      <trkpt lat="47.20703" lon="5.566">
        <ele>226.29008483887</ele>
        <time>2011-01-15T08:49:39Z</time>
      </trkpt>
      <trkpt lat="47.207" lon="5.56621">
        <ele>226.12686157227</ele>
        <time>2011-01-15T08:49:44Z</time>
      </trkpt>
      <trkpt lat="47.207" lon="5.56628">
        <ele>226.07817077637</ele>
        <time>2011-01-15T08:49:46Z</time>
      </trkpt>
      <trkpt lat="47.20697" lon="5.56642">
        <ele>226.05253601074</ele>
        <time>2011-01-15T08:49:50Z</time>
      </trkpt>
      <trkpt lat="47.20695" lon="5.56648">
        <ele>226.0595703125</ele>
        <time>2011-01-15T08:49:52Z</time>
      </trkpt>
      <trkpt lat="47.20697" lon="5.56664">
        <ele>225.935546875</ele>
        <time>2011-01-15T08:49:57Z</time>
      </trkpt>
      <trkpt lat="47.20691" lon="5.56667">
        <ele>226.13319396973</ele>
        <time>2011-01-15T08:50:01Z</time>
      </trkpt>
      <trkpt lat="47.20689" lon="5.56671">
        <ele>226.49809265137</ele>
        <time>2011-01-15T08:50:07Z</time>
      </trkpt>
      <trkpt lat="47.20685" lon="5.56672">
        <ele>226.75555419922</ele>
        <time>2011-01-15T08:50:45Z</time>
      </trkpt>
      <trkpt lat="47.20687" lon="5.56666">
        <ele>226.26402282715</ele>
        <time>2011-01-15T08:50:52Z</time>
      </trkpt>
      <trkpt lat="47.20694" lon="5.56666">
        <ele>226.02102661133</ele>
        <time>2011-01-15T08:50:58Z</time>
      </trkpt>
      <trkpt lat="47.20695" lon="5.56666">
        <ele>225.96592712402</ele>
        <time>2011-01-15T08:50:59Z</time>
      </trkpt>
      <trkpt lat="47.20703" lon="5.56673">
        <ele>226.11985778809</ele>
        <time>2011-01-15T08:51:04Z</time>
      </trkpt>
      <trkpt lat="47.20713" lon="5.56682">
        <ele>226.20617675781</ele>
        <time>2011-01-15T08:51:08Z</time>
      </trkpt>
      <trkpt lat="47.2073" lon="5.56696">
        <ele>226.09313964844</ele>
        <time>2011-01-15T08:51:13Z</time>
      </trkpt>
      <trkpt lat="47.20743" lon="5.56716">
        <ele>226.25576782227</ele>
        <time>2011-01-15T08:51:20Z</time>
      </trkpt>
      <trkpt lat="47.20752" lon="5.5673">
        <ele>226.08204650879</ele>
        <time>2011-01-15T08:51:24Z</time>
      </trkpt>
      <trkpt lat="47.20766" lon="5.5674">
        <ele>224.89112854004</ele>
        <time>2011-01-15T08:51:28Z</time>
      </trkpt>
      <trkpt lat="47.20781" lon="5.56753">
        <ele>223.27842712402</ele>
        <time>2011-01-15T08:51:33Z</time>
      </trkpt>
      <trkpt lat="47.20788" lon="5.56771">
        <ele>222.75614929199</ele>
        <time>2011-01-15T08:51:38Z</time>
      </trkpt>
      <trkpt lat="47.20798" lon="5.56789">
        <ele>222.0867767334</ele>
        <time>2011-01-15T08:51:43Z</time>
      </trkpt>
      <trkpt lat="47.20802" lon="5.56805">
        <ele>221.9981842041</ele>
        <time>2011-01-15T08:51:47Z</time>
      </trkpt>
      <trkpt lat="47.20809" lon="5.56823">
        <ele>221.80424499512</ele>
        <time>2011-01-15T08:51:52Z</time>
      </trkpt>
      <trkpt lat="47.20811" lon="5.56831">
        <ele>221.84574890137</ele>
        <time>2011-01-15T08:51:54Z</time>
      </trkpt>
      <trkpt lat="47.20807" lon="5.56849">
        <ele>223.55705261231</ele>
        <time>2011-01-15T08:51:59Z</time>
      </trkpt>
      <trkpt lat="47.208" lon="5.56861">
        <ele>224.93284606934</ele>
        <time>2011-01-15T08:52:03Z</time>
      </trkpt>
      <trkpt lat="47.2079" lon="5.56879">
        <ele>226.54928588867</ele>
        <time>2011-01-15T08:52:09Z</time>
      </trkpt>
      <trkpt lat="47.20784" lon="5.56894">
        <ele>227.55416870117</ele>
        <time>2011-01-15T08:52:14Z</time>
      </trkpt>
      <trkpt lat="47.20781" lon="5.56911">
        <ele>228.47590637207</ele>
        <time>2011-01-15T08:52:19Z</time>
      </trkpt>
      <trkpt lat="47.20783" lon="5.56926">
        <ele>229.37261962891</ele>
        <time>2011-01-15T08:52:23Z</time>
      </trkpt>
      <trkpt lat="47.20784" lon="5.56935">
        <ele>229.93960571289</ele>
        <time>2011-01-15T08:52:25Z</time>
      </trkpt>
      <trkpt lat="47.20786" lon="5.5695">
        <ele>230.97595214844</ele>
        <time>2011-01-15T08:52:30Z</time>
      </trkpt>
      <trkpt lat="47.20784" lon="5.56959">
        <ele>231.46424865723</ele>
        <time>2011-01-15T08:52:33Z</time>
      </trkpt>
      <trkpt lat="47.20783" lon="5.56978">
        <ele>232.59025573731</ele>
        <time>2011-01-15T08:52:39Z</time>
      </trkpt>
      <trkpt lat="47.20784" lon="5.56992">
        <ele>233.54396057129</ele>
        <time>2011-01-15T08:52:43Z</time>
      </trkpt>
      <trkpt lat="47.20782" lon="5.57">
        <ele>233.90606689453</ele>
        <time>2011-01-15T08:52:45Z</time>
      </trkpt>
      <trkpt lat="47.20779" lon="5.57022">
        <ele>234.99417114258</ele>
        <time>2011-01-15T08:52:51Z</time>
      </trkpt>
      <trkpt lat="47.20784" lon="5.5704">
        <ele>236.25317382812</ele>
        <time>2011-01-15T08:52:57Z</time>
      </trkpt>
      <trkpt lat="47.20785" lon="5.57048">
        <ele>236.76057434082</ele>
        <time>2011-01-15T08:53:01Z</time>
      </trkpt>
      <trkpt lat="47.20782" lon="5.57058">
        <ele>237.16235351562</ele>
        <time>2011-01-15T08:53:04Z</time>
      </trkpt>
      <trkpt lat="47.20783" lon="5.57069">
        <ele>237.82835388184</ele>
        <time>2011-01-15T08:53:08Z</time>
      </trkpt>
      <trkpt lat="47.20782" lon="5.57091">
        <ele>239.11518859863</ele>
        <time>2011-01-15T08:53:15Z</time>
      </trkpt>
      <trkpt lat="47.20785" lon="5.57106">
        <ele>240.30215454102</ele>
        <time>2011-01-15T08:53:20Z</time>
      </trkpt>
      <trkpt lat="47.20788" lon="5.57122">
        <ele>241.48356628418</ele>
        <time>2011-01-15T08:53:25Z</time>
      </trkpt>
      <trkpt lat="47.20788" lon="5.57137">
        <ele>242.50021362305</ele>
        <time>2011-01-15T08:53:30Z</time>
      </trkpt>
      <trkpt lat="47.20786" lon="5.57153">
        <ele>243.63533020019</ele>
        <time>2011-01-15T08:53:35Z</time>
      </trkpt>
      <trkpt lat="47.20786" lon="5.57176">
        <ele>245.50112915039</ele>
        <time>2011-01-15T08:53:41Z</time>
      </trkpt>
      <trkpt lat="47.20783" lon="5.57192">
        <ele>247.22108459473</ele>
        <time>2011-01-15T08:53:47Z</time>
      </trkpt>
      <trkpt lat="47.20784" lon="5.57199">
        <ele>247.92240905762</ele>
        <time>2011-01-15T08:53:49Z</time>
      </trkpt>
      <trkpt lat="47.20786" lon="5.57223">
        <ele>250.37731933594</ele>
        <time>2011-01-15T08:53:56Z</time>
      </trkpt>
      <trkpt lat="47.20788" lon="5.5723">
        <ele>251.01654052734</ele>
        <time>2011-01-15T08:53:58Z</time>
      </trkpt>
      <trkpt lat="47.20797" lon="5.57247">
        <ele>252.59513854981</ele>
        <time>2011-01-15T08:54:05Z</time>
      </trkpt>
      <trkpt lat="47.20802" lon="5.57259">
        <ele>253.45701599121</ele>
        <time>2011-01-15T08:54:09Z</time>
      </trkpt>
      <trkpt lat="47.20804" lon="5.57284">
        <ele>255.29296875</ele>
        <time>2011-01-15T08:54:16Z</time>
      </trkpt>
      <trkpt lat="47.20803" lon="5.57308">
        <ele>257.07455444336</ele>
        <time>2011-01-15T08:54:22Z</time>
      </trkpt>
      <trkpt lat="47.20796" lon="5.57323">
        <ele>258.24908447266</ele>
        <time>2011-01-15T08:54:27Z</time>
      </trkpt>
      <trkpt lat="47.20786" lon="5.57341">
        <ele>259.65228271484</ele>
        <time>2011-01-15T08:54:33Z</time>
      </trkpt>
      <trkpt lat="47.20779" lon="5.57351">
        <ele>260.50946044922</ele>
        <time>2011-01-15T08:54:37Z</time>
      </trkpt>
      <trkpt lat="47.20773" lon="5.57363">
        <ele>261.50680541992</ele>
        <time>2011-01-15T08:54:41Z</time>
      </trkpt>
      <trkpt lat="47.20766" lon="5.57375">
        <ele>262.54022216797</ele>
        <time>2011-01-15T08:54:46Z</time>
      </trkpt>
      <trkpt lat="47.20764" lon="5.57383">
        <ele>263.20910644531</ele>
        <time>2011-01-15T08:54:49Z</time>
      </trkpt>
      <trkpt lat="47.2076" lon="5.57401">
        <ele>264.65106201172</ele>
        <time>2011-01-15T08:54:55Z</time>
      </trkpt>
      <trkpt lat="47.20758" lon="5.57413">
        <ele>265.7165222168</ele>
        <time>2011-01-15T08:54:59Z</time>
      </trkpt>
      <trkpt lat="47.20757" lon="5.57436">
        <ele>268.40371704102</ele>
        <time>2011-01-15T08:55:05Z</time>
      </trkpt>
      <trkpt lat="47.20758" lon="5.57442">
        <ele>269.04907226562</ele>
        <time>2011-01-15T08:55:07Z</time>
      </trkpt>
      <trkpt lat="47.2076" lon="5.57455">
        <ele>270.77471923828</ele>
        <time>2011-01-15T08:55:12Z</time>
      </trkpt>
      <trkpt lat="47.20763" lon="5.57471">
        <ele>272.68099975586</ele>
        <time>2011-01-15T08:55:18Z</time>
      </trkpt>
      <trkpt lat="47.20765" lon="5.57483">
        <ele>274.22799682617</ele>
        <time>2011-01-15T08:55:22Z</time>
      </trkpt>
      <trkpt lat="47.20766" lon="5.57488">
        <ele>274.85003662109</ele>
        <time>2011-01-15T08:55:24Z</time>
      </trkpt>
      <trkpt lat="47.20768" lon="5.57493">
        <ele>275.52770996094</ele>
        <time>2011-01-15T08:55:26Z</time>
      </trkpt>
      <trkpt lat="47.2077" lon="5.57508">
        <ele>277.76672363281</ele>
        <time>2011-01-15T08:55:31Z</time>
      </trkpt>
      <trkpt lat="47.20772" lon="5.5752">
        <ele>279.55227661133</ele>
        <time>2011-01-15T08:55:35Z</time>
      </trkpt>
      <trkpt lat="47.20772" lon="5.57533">
        <ele>281.60049438477</ele>
        <time>2011-01-15T08:55:39Z</time>
      </trkpt>
      <trkpt lat="47.20771" lon="5.57553">
        <ele>284.65673828125</ele>
        <time>2011-01-15T08:55:45Z</time>
      </trkpt>
      <trkpt lat="47.20771" lon="5.57569">
        <ele>287.05462646484</ele>
        <time>2011-01-15T08:55:50Z</time>
      </trkpt>
      <trkpt lat="47.20772" lon="5.57591">
        <ele>290.49456787109</ele>
        <time>2011-01-15T08:55:57Z</time>
      </trkpt>
      <trkpt lat="47.20773" lon="5.57605">
        <ele>292.55209350586</ele>
        <time>2011-01-15T08:56:01Z</time>
      </trkpt>
      <trkpt lat="47.20774" lon="5.57622">
        <ele>295.22326660156</ele>
        <time>2011-01-15T08:56:07Z</time>
      </trkpt>
      <trkpt lat="47.20775" lon="5.57625">
        <ele>295.72506713867</ele>
        <time>2011-01-15T08:56:08Z</time>
      </trkpt>
      <trkpt lat="47.20774" lon="5.57642">
        <ele>298.3948059082</ele>
        <time>2011-01-15T08:56:14Z</time>
      </trkpt>
      <trkpt lat="47.20774" lon="5.57645">
        <ele>298.84878540039</ele>
        <time>2011-01-15T08:56:15Z</time>
      </trkpt>
      <trkpt lat="47.20777" lon="5.57661">
        <ele>301.13732910156</ele>
        <time>2011-01-15T08:56:21Z</time>
      </trkpt>
      <trkpt lat="47.20778" lon="5.57665">
        <ele>301.81723022461</ele>
        <time>2011-01-15T08:56:23Z</time>
      </trkpt>
      <trkpt lat="47.20783" lon="5.57677">
        <ele>302.92578125</ele>
        <time>2011-01-15T08:56:29Z</time>
      </trkpt>
      <trkpt lat="47.2079" lon="5.57691">
        <ele>303.90069580078</ele>
        <time>2011-01-15T08:56:34Z</time>
      </trkpt>
      <trkpt lat="47.20793" lon="5.57708">
        <ele>305.40451049805</ele>
        <time>2011-01-15T08:56:40Z</time>
      </trkpt>
      <trkpt lat="47.20796" lon="5.57728">
        <ele>306.98776245117</ele>
        <time>2011-01-15T08:56:46Z</time>
      </trkpt>
      <trkpt lat="47.20798" lon="5.57747">
        <ele>308.57427978516</ele>
        <time>2011-01-15T08:56:52Z</time>
      </trkpt>
      <trkpt lat="47.20798" lon="5.57759">
        <ele>309.5</ele>
        <time>2011-01-15T08:56:56Z</time>
      </trkpt>
      <trkpt lat="47.20794" lon="5.57778">
        <ele>311.30242919922</ele>
        <time>2011-01-15T08:57:02Z</time>
      </trkpt>
      <trkpt lat="47.2079" lon="5.57794">
        <ele>312.76156616211</ele>
        <time>2011-01-15T08:57:07Z</time>
      </trkpt>
      <trkpt lat="47.20789" lon="5.57806">
        <ele>313.81900024414</ele>
        <time>2011-01-15T08:57:11Z</time>
      </trkpt>
      <trkpt lat="47.2079" lon="5.5782">
        <ele>314.78372192383</ele>
        <time>2011-01-15T08:57:15Z</time>
      </trkpt>
      <trkpt lat="47.20786" lon="5.57842">
        <ele>316.28466796875</ele>
        <time>2011-01-15T08:57:21Z</time>
      </trkpt>
      <trkpt lat="47.20784" lon="5.57859">
        <ele>316.89266967773</ele>
        <time>2011-01-15T08:57:25Z</time>
      </trkpt>
      <trkpt lat="47.20782" lon="5.57867">
        <ele>317.20593261719</ele>
        <time>2011-01-15T08:57:27Z</time>
      </trkpt>
      <trkpt lat="47.20776" lon="5.57878">
        <ele>318.0334777832</ele>
        <time>2011-01-15T08:57:32Z</time>
      </trkpt>
      <trkpt lat="47.20765" lon="5.57892">
        <ele>319.31185913086</ele>
        <time>2011-01-15T08:57:37Z</time>
      </trkpt>
      <trkpt lat="47.20755" lon="5.57911">
        <ele>320.53118896484</ele>
        <time>2011-01-15T08:57:42Z</time>
      </trkpt>
      <trkpt lat="47.20744" lon="5.57933">
        <ele>320.95965576172</ele>
        <time>2011-01-15T08:57:49Z</time>
      </trkpt>
      <trkpt lat="47.20735" lon="5.57951">
        <ele>320.98828125</ele>
        <time>2011-01-15T08:57:54Z</time>
      </trkpt>
      <trkpt lat="47.20729" lon="5.57963">
        <ele>321.01342773438</ele>
        <time>2011-01-15T08:57:58Z</time>
      </trkpt>
      <trkpt lat="47.20719" lon="5.5798">
        <ele>321.06030273438</ele>
        <time>2011-01-15T08:58:03Z</time>
      </trkpt>
      <trkpt lat="47.20711" lon="5.57996">
        <ele>320.97720336914</ele>
        <time>2011-01-15T08:58:08Z</time>
      </trkpt>
      <trkpt lat="47.20704" lon="5.58009">
        <ele>320.6142578125</ele>
        <time>2011-01-15T08:58:12Z</time>
      </trkpt>
      <trkpt lat="47.20697" lon="5.58036">
        <ele>318.99377441406</ele>
        <time>2011-01-15T08:58:18Z</time>
      </trkpt>
      <trkpt lat="47.20691" lon="5.58058">
        <ele>317.65594482422</ele>
        <time>2011-01-15T08:58:23Z</time>
      </trkpt>
      <trkpt lat="47.20684" lon="5.58078">
        <ele>316.54357910156</ele>
        <time>2011-01-15T08:58:28Z</time>
      </trkpt>
      <trkpt lat="47.20676" lon="5.58099">
        <ele>315.67230224609</ele>
        <time>2011-01-15T08:58:33Z</time>
      </trkpt>
      <trkpt lat="47.2067" lon="5.58118">
        <ele>315.04733276367</ele>
        <time>2011-01-15T08:58:37Z</time>
      </trkpt>
      <trkpt lat="47.20665" lon="5.58144">
        <ele>313.94369506836</ele>
        <time>2011-01-15T08:58:42Z</time>
      </trkpt>
      <trkpt lat="47.20656" lon="5.58169">
        <ele>312.19451904297</ele>
        <time>2011-01-15T08:58:47Z</time>
      </trkpt>
      <trkpt lat="47.20649" lon="5.58186">
        <ele>311.34063720703</ele>
        <time>2011-01-15T08:58:51Z</time>
      </trkpt>
      <trkpt lat="47.2064" lon="5.58208">
        <ele>310.54858398438</ele>
        <time>2011-01-15T08:58:56Z</time>
      </trkpt>
      <trkpt lat="47.20627" lon="5.58229">
        <ele>310.03945922852</ele>
        <time>2011-01-15T08:59:01Z</time>
      </trkpt>
      <trkpt lat="47.20613" lon="5.58247">
        <ele>309.96417236328</ele>
        <time>2011-01-15T08:59:06Z</time>
      </trkpt>
      <trkpt lat="47.20602" lon="5.58256">
        <ele>309.99548339844</ele>
        <time>2011-01-15T08:59:10Z</time>
      </trkpt>
      <trkpt lat="47.20592" lon="5.58263">
        <ele>310.15545654297</ele>
        <time>2011-01-15T08:59:14Z</time>
      </trkpt>
      <trkpt lat="47.20583" lon="5.58269">
        <ele>310.41906738281</ele>
        <time>2011-01-15T08:59:19Z</time>
      </trkpt>
      <trkpt lat="47.20571" lon="5.5828">
        <ele>310.31390380859</ele>
        <time>2011-01-15T08:59:24Z</time>
      </trkpt>
      <trkpt lat="47.20556" lon="5.58303">
        <ele>310.87255859375</ele>
        <time>2011-01-15T08:59:30Z</time>
      </trkpt>
      <trkpt lat="47.20549" lon="5.58328">
        <ele>312.1135559082</ele>
        <time>2011-01-15T08:59:36Z</time>
      </trkpt>
      <trkpt lat="47.20547" lon="5.58356">
        <ele>313.67904663086</ele>
        <time>2011-01-15T08:59:42Z</time>
      </trkpt>
      <trkpt lat="47.20544" lon="5.58379">
        <ele>315.13833618164</ele>
        <time>2011-01-15T08:59:47Z</time>
      </trkpt>
      <trkpt lat="47.20543" lon="5.58395">
        <ele>316.09432983398</ele>
        <time>2011-01-15T08:59:52Z</time>
      </trkpt>
      <trkpt lat="47.20543" lon="5.58402">
        <ele>316.56799316406</ele>
        <time>2011-01-15T08:59:54Z</time>
      </trkpt>
      <trkpt lat="47.20543" lon="5.58415">
        <ele>317.31393432617</ele>
        <time>2011-01-15T08:59:58Z</time>
      </trkpt>
      <trkpt lat="47.20545" lon="5.58434">
        <ele>319.06219482422</ele>
        <time>2011-01-15T09:00:04Z</time>
      </trkpt>
      <trkpt lat="47.20544" lon="5.5845">
        <ele>320.89016723633</ele>
        <time>2011-01-15T09:00:09Z</time>
      </trkpt>
      <trkpt lat="47.20542" lon="5.58467">
        <ele>322.92205810547</ele>
        <time>2011-01-15T09:00:15Z</time>
      </trkpt>
      <trkpt lat="47.20539" lon="5.5848">
        <ele>324.51498413086</ele>
        <time>2011-01-15T09:00:20Z</time>
      </trkpt>
      <trkpt lat="47.20538" lon="5.5849">
        <ele>325.80084228516</ele>
        <time>2011-01-15T09:00:24Z</time>
      </trkpt>
      <trkpt lat="47.20538" lon="5.58496">
        <ele>326.49542236328</ele>
        <time>2011-01-15T09:00:26Z</time>
      </trkpt>
      <trkpt lat="47.20539" lon="5.5851">
        <ele>327.70181274414</ele>
        <time>2011-01-15T09:00:31Z</time>
      </trkpt>
      <trkpt lat="47.2054" lon="5.58519">
        <ele>328.57000732422</ele>
        <time>2011-01-15T09:00:34Z</time>
      </trkpt>
      <trkpt lat="47.20539" lon="5.58533">
        <ele>329.9670715332</ele>
        <time>2011-01-15T09:00:39Z</time>
      </trkpt>
      <trkpt lat="47.20539" lon="5.58548">
        <ele>331.50103759766</ele>
        <time>2011-01-15T09:00:45Z</time>
      </trkpt>
      <trkpt lat="47.20539" lon="5.58565">
        <ele>333.12289428711</ele>
        <time>2011-01-15T09:00:50Z</time>
      </trkpt>
      <trkpt lat="47.2054" lon="5.58579">
        <ele>334.35107421875</ele>
        <time>2011-01-15T09:00:54Z</time>
      </trkpt>
      <trkpt lat="47.20542" lon="5.58598">
        <ele>335.55529785156</ele>
        <time>2011-01-15T09:00:59Z</time>
      </trkpt>
      <trkpt lat="47.20542" lon="5.5861">
        <ele>336.54522705078</ele>
        <time>2011-01-15T09:01:03Z</time>
      </trkpt>
      <trkpt lat="47.20539" lon="5.58627">
        <ele>338.28024291992</ele>
        <time>2011-01-15T09:01:09Z</time>
      </trkpt>
      <trkpt lat="47.20536" lon="5.58635">
        <ele>339.23281860352</ele>
        <time>2011-01-15T09:01:12Z</time>
      </trkpt>
      <trkpt lat="47.20529" lon="5.58644">
        <ele>340.61264038086</ele>
        <time>2011-01-15T09:01:16Z</time>
      </trkpt>
      <trkpt lat="47.20519" lon="5.58657">
        <ele>342.53726196289</ele>
        <time>2011-01-15T09:01:22Z</time>
      </trkpt>
      <trkpt lat="47.20511" lon="5.58669">
        <ele>343.93704223633</ele>
        <time>2011-01-15T09:01:27Z</time>
      </trkpt>
      <trkpt lat="47.205" lon="5.58675">
        <ele>344.98327636719</ele>
        <time>2011-01-15T09:01:33Z</time>
      </trkpt>
      <trkpt lat="47.20489" lon="5.58675">
        <ele>345.22125244141</ele>
        <time>2011-01-15T09:01:38Z</time>
      </trkpt>
      <trkpt lat="47.20478" lon="5.58676">
        <ele>345.43991088867</ele>
        <time>2011-01-15T09:01:43Z</time>
      </trkpt>
      <trkpt lat="47.20468" lon="5.58678">
        <ele>345.61248779297</ele>
        <time>2011-01-15T09:01:47Z</time>
      </trkpt>
      <trkpt lat="47.20458" lon="5.58681">
        <ele>345.74810791016</ele>
        <time>2011-01-15T09:01:51Z</time>
      </trkpt>
      <trkpt lat="47.2044" lon="5.58683">
        <ele>346.00393676758</ele>
        <time>2011-01-15T09:01:57Z</time>
      </trkpt>
      <trkpt lat="47.20425" lon="5.5869">
        <ele>346.03967285156</ele>
        <time>2011-01-15T09:02:01Z</time>
      </trkpt>
      <trkpt lat="47.20415" lon="5.58698">
        <ele>346.14761352539</ele>
        <time>2011-01-15T09:02:04Z</time>
      </trkpt>
      <trkpt lat="47.20401" lon="5.58702">
        <ele>347.86560058594</ele>
        <time>2011-01-15T09:02:09Z</time>
      </trkpt>
      <trkpt lat="47.2039" lon="5.58711">
        <ele>349.35034179688</ele>
        <time>2011-01-15T09:02:13Z</time>
      </trkpt>
      <trkpt lat="47.20378" lon="5.58719">
        <ele>350.90573120117</ele>
        <time>2011-01-15T09:02:18Z</time>
      </trkpt>
      <trkpt lat="47.20366" lon="5.58737">
        <ele>352.55191040039</ele>
        <time>2011-01-15T09:02:24Z</time>
      </trkpt>
      <trkpt lat="47.2036" lon="5.58753">
        <ele>353.55490112305</ele>
        <time>2011-01-15T09:02:29Z</time>
      </trkpt>
      <trkpt lat="47.20354" lon="5.58766">
        <ele>354.49676513672</ele>
        <time>2011-01-15T09:02:34Z</time>
      </trkpt>
      <trkpt lat="47.20352" lon="5.58782">
        <ele>355.0263671875</ele>
        <time>2011-01-15T09:02:40Z</time>
      </trkpt>
      <trkpt lat="47.20352" lon="5.58792">
        <ele>355.06784057617</ele>
        <time>2011-01-15T09:02:44Z</time>
      </trkpt>
      <trkpt lat="47.2035" lon="5.58803">
        <ele>355.40231323242</ele>
        <time>2011-01-15T09:02:48Z</time>
      </trkpt>
      <trkpt lat="47.20348" lon="5.58822">
        <ele>356.02474975586</ele>
        <time>2011-01-15T09:02:54Z</time>
      </trkpt>
      <trkpt lat="47.20345" lon="5.58846">
        <ele>357.23873901367</ele>
        <time>2011-01-15T09:03:00Z</time>
      </trkpt>
      <trkpt lat="47.20346" lon="5.58864">
        <ele>358.08728027344</ele>
        <time>2011-01-15T09:03:05Z</time>
      </trkpt>
      <trkpt lat="47.20348" lon="5.58886">
        <ele>358.74816894531</ele>
        <time>2011-01-15T09:03:11Z</time>
      </trkpt>
      <trkpt lat="47.20353" lon="5.58905">
        <ele>358.79766845703</ele>
        <time>2011-01-15T09:03:17Z</time>
      </trkpt>
      <trkpt lat="47.20359" lon="5.5893">
        <ele>358.95718383789</ele>
        <time>2011-01-15T09:03:24Z</time>
      </trkpt>
      <trkpt lat="47.20359" lon="5.58947">
        <ele>360.14059448242</ele>
        <time>2011-01-15T09:03:29Z</time>
      </trkpt>
      <trkpt lat="47.20357" lon="5.58962">
        <ele>361.77603149414</ele>
        <time>2011-01-15T09:03:34Z</time>
      </trkpt>
      <trkpt lat="47.20354" lon="5.58979">
        <ele>363.66180419922</ele>
        <time>2011-01-15T09:03:39Z</time>
      </trkpt>
      <trkpt lat="47.2035" lon="5.58999">
        <ele>366.04122924805</ele>
        <time>2011-01-15T09:03:45Z</time>
      </trkpt>
      <trkpt lat="47.20341" lon="5.59013">
        <ele>369.10916137695</ele>
        <time>2011-01-15T09:03:51Z</time>
      </trkpt>
      <trkpt lat="47.20334" lon="5.59027">
        <ele>371.74359130859</ele>
        <time>2011-01-15T09:03:56Z</time>
      </trkpt>
      <trkpt lat="47.20327" lon="5.59039">
        <ele>373.31024169922</ele>
        <time>2011-01-15T09:04:01Z</time>
      </trkpt>
      <trkpt lat="47.20322" lon="5.59046">
        <ele>374.20095825195</ele>
        <time>2011-01-15T09:04:05Z</time>
      </trkpt>
      <trkpt lat="47.20323" lon="5.59045">
        <ele>374.00546264648</ele>
        <time>2011-01-15T09:04:09Z</time>
      </trkpt>
      <trkpt lat="47.20328" lon="5.59033">
        <ele>372.83901977539</ele>
        <time>2011-01-15T09:04:15Z</time>
      </trkpt>
      <trkpt lat="47.20329" lon="5.59032">
        <ele>372.62246704102</ele>
        <time>2011-01-15T09:04:16Z</time>
      </trkpt>
      <trkpt lat="47.20336" lon="5.59019">
        <ele>370.72161865234</ele>
        <time>2011-01-15T09:04:22Z</time>
      </trkpt>
      <trkpt lat="47.20343" lon="5.59003">
        <ele>368.00936889648</ele>
        <time>2011-01-15T09:04:28Z</time>
      </trkpt>
      <trkpt lat="47.20349" lon="5.58989">
        <ele>365.56924438477</ele>
        <time>2011-01-15T09:04:33Z</time>
      </trkpt>
      <trkpt lat="47.20351" lon="5.5897">
        <ele>363.83001708984</ele>
        <time>2011-01-15T09:04:38Z</time>
      </trkpt>
      <trkpt lat="47.2035" lon="5.58948">
        <ele>362.30004882812</ele>
        <time>2011-01-15T09:04:44Z</time>
      </trkpt>
      <trkpt lat="47.20351" lon="5.58936">
        <ele>361.20330810547</ele>
        <time>2011-01-15T09:04:48Z</time>
      </trkpt>
      <trkpt lat="47.2035" lon="5.58924">
        <ele>360.50399780273</ele>
        <time>2011-01-15T09:04:52Z</time>
      </trkpt>
      <trkpt lat="47.2035" lon="5.58917">
        <ele>360.03472900391</ele>
        <time>2011-01-15T09:04:54Z</time>
      </trkpt>
      <trkpt lat="47.20348" lon="5.58898">
        <ele>359.59631347656</ele>
        <time>2011-01-15T09:05:00Z</time>
      </trkpt>
      <trkpt lat="47.20347" lon="5.58878">
        <ele>358.56729125977</ele>
        <time>2011-01-15T09:05:06Z</time>
      </trkpt>
      <trkpt lat="47.20346" lon="5.58865">
        <ele>358.22232055664</ele>
        <time>2011-01-15T09:05:09Z</time>
      </trkpt>
      <trkpt lat="47.20344" lon="5.58841">
        <ele>357.23037719727</ele>
        <time>2011-01-15T09:05:15Z</time>
      </trkpt>
      <trkpt lat="47.20347" lon="5.58825">
        <ele>356.11560058594</ele>
        <time>2011-01-15T09:05:20Z</time>
      </trkpt>
      <trkpt lat="47.20351" lon="5.58812">
        <ele>355.3694152832</ele>
        <time>2011-01-15T09:05:25Z</time>
      </trkpt>
      <trkpt lat="47.2035" lon="5.58798">
        <ele>355.37884521484</ele>
        <time>2011-01-15T09:05:29Z</time>
      </trkpt>
      <trkpt lat="47.20351" lon="5.58788">
        <ele>355.19216918945</ele>
        <time>2011-01-15T09:05:32Z</time>
      </trkpt>
      <trkpt lat="47.20353" lon="5.58771">
        <ele>354.84918212891</ele>
        <time>2011-01-15T09:05:37Z</time>
      </trkpt>
      <trkpt lat="47.20354" lon="5.58768">
        <ele>354.63726806641</ele>
        <time>2011-01-15T09:05:38Z</time>
      </trkpt>
      <trkpt lat="47.20354" lon="5.58761">
        <ele>354.48168945312</ele>
        <time>2011-01-15T09:05:40Z</time>
      </trkpt>
      <trkpt lat="47.20361" lon="5.58741">
        <ele>353.39797973633</ele>
        <time>2011-01-15T09:05:46Z</time>
      </trkpt>
      <trkpt lat="47.20366" lon="5.58733">
        <ele>352.64544677734</ele>
        <time>2011-01-15T09:05:50Z</time>
      </trkpt>
      <trkpt lat="47.20368" lon="5.58728">
        <ele>352.380859375</ele>
        <time>2011-01-15T09:05:54Z</time>
      </trkpt>
      <trkpt lat="47.20369" lon="5.58723">
        <ele>352.30316162109</ele>
        <time>2011-01-15T09:06:02Z</time>
      </trkpt>
      <trkpt lat="47.20367" lon="5.58722">
        <ele>352.54638671875</ele>
        <time>2011-01-15T09:06:09Z</time>
      </trkpt>
      <trkpt lat="47.20366" lon="5.5873">
        <ele>352.72256469727</ele>
        <time>2011-01-15T09:06:17Z</time>
      </trkpt>
      <trkpt lat="47.20359" lon="5.58727">
        <ele>353.74572753906</ele>
        <time>2011-01-15T09:06:30Z</time>
      </trkpt>
      <trkpt lat="47.20359" lon="5.58734">
        <ele>353.72766113281</ele>
        <time>2011-01-15T09:06:41Z</time>
      </trkpt>
      <trkpt lat="47.20353" lon="5.58749">
        <ele>354.70614624023</ele>
        <time>2011-01-15T09:06:47Z</time>
      </trkpt>
      <trkpt lat="47.20351" lon="5.58759">
        <ele>354.99914550781</ele>
        <time>2011-01-15T09:06:51Z</time>
      </trkpt>
      <trkpt lat="47.20348" lon="5.58782">
        <ele>355.64953613281</ele>
        <time>2011-01-15T09:06:58Z</time>
      </trkpt>
      <trkpt lat="47.20347" lon="5.58793">
        <ele>355.99813842773</ele>
        <time>2011-01-15T09:07:02Z</time>
      </trkpt>
      <trkpt lat="47.20345" lon="5.58809">
        <ele>356.46813964844</ele>
        <time>2011-01-15T09:07:07Z</time>
      </trkpt>
      <trkpt lat="47.20345" lon="5.58827">
        <ele>356.59350585938</ele>
        <time>2011-01-15T09:07:13Z</time>
      </trkpt>
      <trkpt lat="47.20344" lon="5.58834">
        <ele>356.88616943359</ele>
        <time>2011-01-15T09:07:15Z</time>
      </trkpt>
      <trkpt lat="47.20342" lon="5.58855">
        <ele>358.46502685547</ele>
        <time>2011-01-15T09:07:22Z</time>
      </trkpt>
      <trkpt lat="47.20342" lon="5.58869">
        <ele>359.27056884766</ele>
        <time>2011-01-15T09:07:26Z</time>
      </trkpt>
      <trkpt lat="47.20348" lon="5.58881">
        <ele>358.48281860352</ele>
        <time>2011-01-15T09:07:31Z</time>
      </trkpt>
      <trkpt lat="47.20353" lon="5.58894">
        <ele>358.0329284668</ele>
        <time>2011-01-15T09:07:35Z</time>
      </trkpt>
      <trkpt lat="47.20358" lon="5.58904">
        <ele>357.56338500977</ele>
        <time>2011-01-15T09:07:38Z</time>
      </trkpt>
      <trkpt lat="47.20361" lon="5.58926">
        <ele>358.17010498047</ele>
        <time>2011-01-15T09:07:45Z</time>
      </trkpt>
      <trkpt lat="47.20361" lon="5.58945">
        <ele>359.60369873047</ele>
        <time>2011-01-15T09:07:51Z</time>
      </trkpt>
      <trkpt lat="47.20358" lon="5.58958">
        <ele>361.25668334961</ele>
        <time>2011-01-15T09:07:56Z</time>
      </trkpt>
      <trkpt lat="47.20356" lon="5.58973">
        <ele>362.78680419922</ele>
        <time>2011-01-15T09:08:01Z</time>
      </trkpt>
      <trkpt lat="47.20353" lon="5.58988">
        <ele>364.51647949219</ele>
        <time>2011-01-15T09:08:06Z</time>
      </trkpt>
      <trkpt lat="47.20346" lon="5.59004">
        <ele>367.38223266602</ele>
        <time>2011-01-15T09:08:13Z</time>
      </trkpt>
      <trkpt lat="47.2034" lon="5.59016">
        <ele>369.5520324707</ele>
        <time>2011-01-15T09:08:18Z</time>
      </trkpt>
      <trkpt lat="47.20332" lon="5.59031">
        <ele>372.31539916992</ele>
        <time>2011-01-15T09:08:24Z</time>
      </trkpt>
      <trkpt lat="47.20324" lon="5.59045">
        <ele>373.95303344727</ele>
        <time>2011-01-15T09:08:30Z</time>
      </trkpt>
      <trkpt lat="47.20319" lon="5.59052">
        <ele>374.84701538086</ele>
        <time>2011-01-15T09:08:35Z</time>
      </trkpt>
      <trkpt lat="47.20317" lon="5.59054">
        <ele>375.08422851562</ele>
        <time>2011-01-15T09:08:39Z</time>
      </trkpt>
      <trkpt lat="47.20316" lon="5.59055">
        <ele>375.31243896484</ele>
        <time>2011-01-15T09:08:47Z</time>
      </trkpt>
      <trkpt lat="47.20319" lon="5.59055">
        <ele>375.07458496094</ele>
        <time>2011-01-15T09:09:01Z</time>
      </trkpt>
      <trkpt lat="47.20321" lon="5.59052">
        <ele>374.66604614258</ele>
        <time>2011-01-15T09:09:20Z</time>
      </trkpt>
      <trkpt lat="47.20315" lon="5.59048">
        <ele>374.83856201172</ele>
        <time>2011-01-15T09:09:34Z</time>
      </trkpt>
      <trkpt lat="47.20316" lon="5.59052">
        <ele>375.0719909668</ele>
        <time>2011-01-15T09:09:44Z</time>
      </trkpt>
      <trkpt lat="47.20318" lon="5.59054">
        <ele>375.06512451172</ele>
        <time>2011-01-15T09:09:53Z</time>
      </trkpt>
      <trkpt lat="47.20317" lon="5.59053">
        <ele>374.99447631836</ele>
        <time>2011-01-15T09:10:08Z</time>
      </trkpt>
      <trkpt lat="47.20316" lon="5.59045">
        <ele>374.60717773438</ele>
        <time>2011-01-15T09:10:18Z</time>
      </trkpt>
      <trkpt lat="47.20315" lon="5.59038">
        <ele>374.20681762695</ele>
        <time>2011-01-15T09:10:41Z</time>
      </trkpt>
      <trkpt lat="47.2031" lon="5.59034">
        <ele>374.29180908203</ele>
        <time>2011-01-15T09:11:00Z</time>
      </trkpt>
      <trkpt lat="47.2031" lon="5.59037">
        <ele>374.49795532227</ele>
        <time>2011-01-15T09:11:14Z</time>
      </trkpt>
      <trkpt lat="47.20311" lon="5.59042">
        <ele>374.77191162109</ele>
        <time>2011-01-15T09:11:28Z</time>
      </trkpt>
      <trkpt lat="47.20312" lon="5.59044">
        <ele>374.81420898438</ele>
        <time>2011-01-15T09:11:43Z</time>
      </trkpt>
      <trkpt lat="47.20309" lon="5.59042">
        <ele>374.89083862305</ele>
        <time>2011-01-15T09:12:02Z</time>
      </trkpt>
      <trkpt lat="47.2031" lon="5.59043">
        <ele>374.94946289062</ele>
        <time>2011-01-15T09:12:14Z</time>
      </trkpt>
      <trkpt lat="47.20312" lon="5.59043">
        <ele>374.74859619141</ele>
        <time>2011-01-15T09:12:30Z</time>
      </trkpt>
      <trkpt lat="47.20311" lon="5.59044">
        <ele>374.84722900391</ele>
        <time>2011-01-15T09:12:50Z</time>
      </trkpt>
      <trkpt lat="47.20313" lon="5.59046">
        <ele>374.8835144043</ele>
        <time>2011-01-15T09:13:00Z</time>
      </trkpt>
      <trkpt lat="47.20317" lon="5.59045">
        <ele>374.4426574707</ele>
        <time>2011-01-15T09:13:18Z</time>
      </trkpt>
      <trkpt lat="47.20319" lon="5.59045">
        <ele>374.35720825195</ele>
        <time>2011-01-15T09:13:37Z</time>
      </trkpt>
      <trkpt lat="47.20319" lon="5.59048">
        <ele>374.57437133789</ele>
        <time>2011-01-15T09:13:39Z</time>
      </trkpt>
      <trkpt lat="47.2032" lon="5.59058">
        <ele>375.17810058594</ele>
        <time>2011-01-15T09:13:44Z</time>
      </trkpt>
      <trkpt lat="47.20327" lon="5.59077">
        <ele>375.96981811523</ele>
        <time>2011-01-15T09:13:53Z</time>
      </trkpt>
      <trkpt lat="47.20337" lon="5.5909">
        <ele>375.35110473633</ele>
        <time>2011-01-15T09:13:59Z</time>
      </trkpt>
      <trkpt lat="47.20345" lon="5.59101">
        <ele>374.15618896484</ele>
        <time>2011-01-15T09:14:04Z</time>
      </trkpt>
      <trkpt lat="47.20346" lon="5.59104">
        <ele>373.82614135742</ele>
        <time>2011-01-15T09:14:05Z</time>
      </trkpt>
      <trkpt lat="47.20356" lon="5.59118">
        <ele>372.32052612305</ele>
        <time>2011-01-15T09:14:12Z</time>
      </trkpt>
      <trkpt lat="47.20357" lon="5.59121">
        <ele>372.17535400391</ele>
        <time>2011-01-15T09:14:13Z</time>
      </trkpt>
      <trkpt lat="47.20366" lon="5.59136">
        <ele>370.86758422852</ele>
        <time>2011-01-15T09:14:19Z</time>
      </trkpt>
      <trkpt lat="47.20375" lon="5.59149">
        <ele>369.69515991211</ele>
        <time>2011-01-15T09:14:24Z</time>
      </trkpt>
      <trkpt lat="47.20377" lon="5.59151">
        <ele>369.42086791992</ele>
        <time>2011-01-15T09:14:25Z</time>
      </trkpt>
      <trkpt lat="47.20385" lon="5.5916">
        <ele>368.1344909668</ele>
        <time>2011-01-15T09:14:29Z</time>
      </trkpt>
      <trkpt lat="47.20391" lon="5.59176">
        <ele>367.72091674805</ele>
        <time>2011-01-15T09:14:36Z</time>
      </trkpt>
      <trkpt lat="47.20396" lon="5.59185">
        <ele>367.29058837891</ele>
        <time>2011-01-15T09:14:40Z</time>
      </trkpt>
      <trkpt lat="47.20405" lon="5.59197">
        <ele>365.98187255859</ele>
        <time>2011-01-15T09:14:45Z</time>
      </trkpt>
      <trkpt lat="47.2041" lon="5.59206">
        <ele>365.27368164062</ele>
        <time>2011-01-15T09:14:49Z</time>
      </trkpt>
      <trkpt lat="47.20416" lon="5.59217">
        <ele>364.57562255859</ele>
        <time>2011-01-15T09:14:53Z</time>
      </trkpt>
      <trkpt lat="47.20429" lon="5.59232">
        <ele>360.92150878906</ele>
        <time>2011-01-15T09:14:59Z</time>
      </trkpt>
      <trkpt lat="47.2044" lon="5.59246">
        <ele>358.1360168457</ele>
        <time>2011-01-15T09:15:04Z</time>
      </trkpt>
      <trkpt lat="47.20442" lon="5.59249">
        <ele>357.50201416016</ele>
        <time>2011-01-15T09:15:05Z</time>
      </trkpt>
      <trkpt lat="47.20451" lon="5.59263">
        <ele>355.80581665039</ele>
        <time>2011-01-15T09:15:11Z</time>
      </trkpt>
      <trkpt lat="47.20452" lon="5.59265">
        <ele>355.38339233398</ele>
        <time>2011-01-15T09:15:12Z</time>
      </trkpt>
      <trkpt lat="47.20457" lon="5.59276">
        <ele>355.06219482422</ele>
        <time>2011-01-15T09:15:17Z</time>
      </trkpt>
      <trkpt lat="47.20462" lon="5.59289">
        <ele>354.49771118164</ele>
        <time>2011-01-15T09:15:22Z</time>
      </trkpt>
      <trkpt lat="47.20467" lon="5.59304">
        <ele>354.50698852539</ele>
        <time>2011-01-15T09:15:27Z</time>
      </trkpt>
      <trkpt lat="47.20477" lon="5.59322">
        <ele>353.21078491211</ele>
        <time>2011-01-15T09:15:32Z</time>
      </trkpt>
      <trkpt lat="47.20487" lon="5.59343">
        <ele>351.29797363281</ele>
        <time>2011-01-15T09:15:39Z</time>
      </trkpt>
      <trkpt lat="47.20499" lon="5.59358">
        <ele>347.78265380859</ele>
        <time>2011-01-15T09:15:44Z</time>
      </trkpt>
      <trkpt lat="47.20509" lon="5.59373">
        <ele>345.31042480469</ele>
        <time>2011-01-15T09:15:49Z</time>
      </trkpt>
      <trkpt lat="47.20515" lon="5.59387">
        <ele>344.11517333984</ele>
        <time>2011-01-15T09:15:53Z</time>
      </trkpt>
      <trkpt lat="47.20522" lon="5.59401">
        <ele>342.59283447266</ele>
        <time>2011-01-15T09:15:58Z</time>
      </trkpt>
      <trkpt lat="47.20527" lon="5.59413">
        <ele>341.75637817383</ele>
        <time>2011-01-15T09:16:02Z</time>
      </trkpt>
      <trkpt lat="47.20533" lon="5.59424">
        <ele>340.84341430664</ele>
        <time>2011-01-15T09:16:07Z</time>
      </trkpt>
      <trkpt lat="47.20538" lon="5.59429">
        <ele>339.74392700195</ele>
        <time>2011-01-15T09:16:10Z</time>
      </trkpt>
      <trkpt lat="47.20545" lon="5.59442">
        <ele>338.30545043945</ele>
        <time>2011-01-15T09:16:15Z</time>
      </trkpt>
      <trkpt lat="47.20552" lon="5.59455">
        <ele>336.75430297852</ele>
        <time>2011-01-15T09:16:19Z</time>
      </trkpt>
      <trkpt lat="47.20553" lon="5.59458">
        <ele>336.51391601562</ele>
        <time>2011-01-15T09:16:20Z</time>
      </trkpt>
      <trkpt lat="47.20564" lon="5.59474">
        <ele>333.41217041016</ele>
        <time>2011-01-15T09:16:25Z</time>
      </trkpt>
      <trkpt lat="47.20572" lon="5.59488">
        <ele>330.82864379883</ele>
        <time>2011-01-15T09:16:29Z</time>
      </trkpt>
      <trkpt lat="47.20586" lon="5.59504">
        <ele>326.7106628418</ele>
        <time>2011-01-15T09:16:34Z</time>
      </trkpt>
      <trkpt lat="47.20594" lon="5.59514">
        <ele>325.36572265625</ele>
        <time>2011-01-15T09:16:38Z</time>
      </trkpt>
      <trkpt lat="47.206" lon="5.59529">
        <ele>324.93869018555</ele>
        <time>2011-01-15T09:16:43Z</time>
      </trkpt>
      <trkpt lat="47.20603" lon="5.59539">
        <ele>324.89767456055</ele>
        <time>2011-01-15T09:16:47Z</time>
      </trkpt>
      <trkpt lat="47.2061" lon="5.59552">
        <ele>323.92092895508</ele>
        <time>2011-01-15T09:16:51Z</time>
      </trkpt>
      <trkpt lat="47.20621" lon="5.59577">
        <ele>322.38244628906</ele>
        <time>2011-01-15T09:16:58Z</time>
      </trkpt>
      <trkpt lat="47.20629" lon="5.59592">
        <ele>320.87097167969</ele>
        <time>2011-01-15T09:17:02Z</time>
      </trkpt>
      <trkpt lat="47.20634" lon="5.59604">
        <ele>319.96673583984</ele>
        <time>2011-01-15T09:17:06Z</time>
      </trkpt>
      <trkpt lat="47.2064" lon="5.59615">
        <ele>318.55435180664</ele>
        <time>2011-01-15T09:17:09Z</time>
      </trkpt>
      <trkpt lat="47.20651" lon="5.5963">
        <ele>315.38296508789</ele>
        <time>2011-01-15T09:17:14Z</time>
      </trkpt>
      <trkpt lat="47.20658" lon="5.59644">
        <ele>313.45547485352</ele>
        <time>2011-01-15T09:17:18Z</time>
      </trkpt>
      <trkpt lat="47.20667" lon="5.59659">
        <ele>310.66656494141</ele>
        <time>2011-01-15T09:17:23Z</time>
      </trkpt>
      <trkpt lat="47.2067" lon="5.59666">
        <ele>310.19122314453</ele>
        <time>2011-01-15T09:17:26Z</time>
      </trkpt>
      <trkpt lat="47.20673" lon="5.59675">
        <ele>309.95318603516</ele>
        <time>2011-01-15T09:17:29Z</time>
      </trkpt>
      <trkpt lat="47.20683" lon="5.5969">
        <ele>308.25823974609</ele>
        <time>2011-01-15T09:17:35Z</time>
      </trkpt>
      <trkpt lat="47.20691" lon="5.59706">
        <ele>307.23376464844</ele>
        <time>2011-01-15T09:17:41Z</time>
      </trkpt>
      <trkpt lat="47.207" lon="5.59721">
        <ele>305.4362487793</ele>
        <time>2011-01-15T09:17:46Z</time>
      </trkpt>
      <trkpt lat="47.20707" lon="5.59734">
        <ele>304.20346069336</ele>
        <time>2011-01-15T09:17:50Z</time>
      </trkpt>
      <trkpt lat="47.20717" lon="5.59752">
        <ele>302.25671386719</ele>
        <time>2011-01-15T09:17:55Z</time>
      </trkpt>
      <trkpt lat="47.20727" lon="5.59771">
        <ele>300.35385131836</ele>
        <time>2011-01-15T09:18:01Z</time>
      </trkpt>
      <trkpt lat="47.20733" lon="5.59781">
        <ele>299.13284301758</ele>
        <time>2011-01-15T09:18:04Z</time>
      </trkpt>
      <trkpt lat="47.20743" lon="5.59788">
        <ele>296.38412475586</ele>
        <time>2011-01-15T09:18:06Z</time>
      </trkpt>
      <trkpt lat="47.20757" lon="5.59808">
        <ele>293.61795043945</ele>
        <time>2011-01-15T09:18:12Z</time>
      </trkpt>
      <trkpt lat="47.20765" lon="5.59823">
        <ele>292.39874267578</ele>
        <time>2011-01-15T09:18:17Z</time>
      </trkpt>
      <trkpt lat="47.20766" lon="5.59829">
        <ele>292.12322998047</ele>
        <time>2011-01-15T09:18:19Z</time>
      </trkpt>
      <trkpt lat="47.20776" lon="5.5985">
        <ele>291.01092529297</ele>
        <time>2011-01-15T09:18:25Z</time>
      </trkpt>
      <trkpt lat="47.20778" lon="5.59855">
        <ele>290.96990966797</ele>
        <time>2011-01-15T09:18:27Z</time>
      </trkpt>
      <trkpt lat="47.20787" lon="5.59872">
        <ele>289.39749145508</ele>
        <time>2011-01-15T09:18:32Z</time>
      </trkpt>
      <trkpt lat="47.20792" lon="5.59881">
        <ele>288.59762573242</ele>
        <time>2011-01-15T09:18:35Z</time>
      </trkpt>
      <trkpt lat="47.20804" lon="5.599">
        <ele>286.35717773438</ele>
        <time>2011-01-15T09:18:41Z</time>
      </trkpt>
      <trkpt lat="47.20808" lon="5.59908">
        <ele>285.76629638672</ele>
        <time>2011-01-15T09:18:44Z</time>
      </trkpt>
      <trkpt lat="47.20816" lon="5.59926">
        <ele>283.95532226562</ele>
        <time>2011-01-15T09:18:50Z</time>
      </trkpt>
      <trkpt lat="47.20819" lon="5.59935">
        <ele>283.16110229492</ele>
        <time>2011-01-15T09:18:53Z</time>
      </trkpt>
      <trkpt lat="47.20824" lon="5.59951">
        <ele>282.10583496094</ele>
        <time>2011-01-15T09:18:57Z</time>
      </trkpt>
      <trkpt lat="47.20837" lon="5.59975">
        <ele>279.00042724609</ele>
        <time>2011-01-15T09:19:05Z</time>
      </trkpt>
      <trkpt lat="47.20837" lon="5.59981">
        <ele>278.98333740234</ele>
        <time>2011-01-15T09:19:07Z</time>
      </trkpt>
      <trkpt lat="47.20841" lon="5.59992">
        <ele>278.40686035156</ele>
        <time>2011-01-15T09:19:12Z</time>
      </trkpt>
      <trkpt lat="47.20844" lon="5.59997">
        <ele>277.90338134766</ele>
        <time>2011-01-15T09:19:14Z</time>
      </trkpt>
      <trkpt lat="47.20837" lon="5.6001">
        <ele>280.00628662109</ele>
        <time>2011-01-15T09:19:20Z</time>
      </trkpt>
      <trkpt lat="47.20835" lon="5.60012">
        <ele>280.55331420898</ele>
        <time>2011-01-15T09:19:21Z</time>
      </trkpt>
      <trkpt lat="47.20834" lon="5.60021">
        <ele>281.74270629883</ele>
        <time>2011-01-15T09:19:26Z</time>
      </trkpt>
      <trkpt lat="47.20834" lon="5.60029">
        <ele>282.25314331055</ele>
        <time>2011-01-15T09:19:32Z</time>
      </trkpt>
      <trkpt lat="47.20831" lon="5.60033">
        <ele>283.42218017578</ele>
        <time>2011-01-15T09:19:36Z</time>
      </trkpt>
      <trkpt lat="47.20826" lon="5.60043">
        <ele>285.90100097656</ele>
        <time>2011-01-15T09:19:43Z</time>
      </trkpt>
      <trkpt lat="47.20821" lon="5.60048">
        <ele>287.83563232422</ele>
        <time>2011-01-15T09:19:48Z</time>
      </trkpt>
      <trkpt lat="47.20819" lon="5.60052">
        <ele>288.47058105469</ele>
        <time>2011-01-15T09:19:50Z</time>
      </trkpt>
      <trkpt lat="47.20819" lon="5.60062">
        <ele>289.29083251953</ele>
        <time>2011-01-15T09:19:55Z</time>
      </trkpt>
      <trkpt lat="47.20816" lon="5.60076">
        <ele>291.27133178711</ele>
        <time>2011-01-15T09:20:01Z</time>
      </trkpt>
      <trkpt lat="47.20819" lon="5.60081">
        <ele>291.05227661133</ele>
        <time>2011-01-15T09:20:04Z</time>
      </trkpt>
      <trkpt lat="47.20817" lon="5.60092">
        <ele>292.2326965332</ele>
        <time>2011-01-15T09:20:12Z</time>
      </trkpt>
      <trkpt lat="47.20815" lon="5.60098">
        <ele>293.14199829102</ele>
        <time>2011-01-15T09:20:19Z</time>
      </trkpt>
      <trkpt lat="47.20811" lon="5.60101">
        <ele>294.36877441406</ele>
        <time>2011-01-15T09:20:24Z</time>
      </trkpt>
      <trkpt lat="47.2081" lon="5.60102">
        <ele>294.77700805664</ele>
        <time>2011-01-15T09:20:25Z</time>
      </trkpt>
      <trkpt lat="47.20803" lon="5.60112">
        <ele>297.23654174805</ele>
        <time>2011-01-15T09:20:31Z</time>
      </trkpt>
      <trkpt lat="47.20797" lon="5.60117">
        <ele>299.08584594727</ele>
        <time>2011-01-15T09:20:36Z</time>
      </trkpt>
      <trkpt lat="47.20792" lon="5.6012">
        <ele>300.46295166016</ele>
        <time>2011-01-15T09:20:41Z</time>
      </trkpt>
      <trkpt lat="47.20787" lon="5.60123">
        <ele>301.73175048828</ele>
        <time>2011-01-15T09:20:46Z</time>
      </trkpt>
      <trkpt lat="47.20785" lon="5.60126">
        <ele>302.47146606445</ele>
        <time>2011-01-15T09:20:48Z</time>
      </trkpt>
      <trkpt lat="47.20778" lon="5.60131">
        <ele>304.22705078125</ele>
        <time>2011-01-15T09:20:52Z</time>
      </trkpt>
      <trkpt lat="47.2077" lon="5.6014">
        <ele>306.31353759766</ele>
        <time>2011-01-15T09:20:57Z</time>
      </trkpt>
      <trkpt lat="47.20766" lon="5.60145">
        <ele>307.28747558594</ele>
        <time>2011-01-15T09:21:00Z</time>
      </trkpt>
      <trkpt lat="47.20761" lon="5.60151">
        <ele>308.47247314453</ele>
        <time>2011-01-15T09:21:04Z</time>
      </trkpt>
      <trkpt lat="47.20754" lon="5.60161">
        <ele>310.10864257812</ele>
        <time>2011-01-15T09:21:10Z</time>
      </trkpt>
      <trkpt lat="47.20752" lon="5.60164">
        <ele>310.5959777832</ele>
        <time>2011-01-15T09:21:12Z</time>
      </trkpt>
      <trkpt lat="47.20748" lon="5.6017">
        <ele>311.1240234375</ele>
        <time>2011-01-15T09:21:17Z</time>
      </trkpt>
      <trkpt lat="47.20747" lon="5.60172">
        <ele>311.18295288086</ele>
        <time>2011-01-15T09:21:20Z</time>
      </trkpt>
      <trkpt lat="47.20742" lon="5.60177">
        <ele>311.55661010742</ele>
        <time>2011-01-15T09:21:26Z</time>
      </trkpt>
      <trkpt lat="47.20735" lon="5.60187">
        <ele>311.97317504883</ele>
        <time>2011-01-15T09:21:31Z</time>
      </trkpt>
      <trkpt lat="47.20729" lon="5.60194">
        <ele>312.37942504883</ele>
        <time>2011-01-15T09:21:34Z</time>
      </trkpt>
      <trkpt lat="47.2072" lon="5.60208">
        <ele>312.87380981445</ele>
        <time>2011-01-15T09:21:40Z</time>
      </trkpt>
      <trkpt lat="47.20711" lon="5.60212">
        <ele>313.90893554688</ele>
        <time>2011-01-15T09:21:44Z</time>
      </trkpt>
      <trkpt lat="47.20709" lon="5.60214">
        <ele>314.07772827148</ele>
        <time>2011-01-15T09:21:45Z</time>
      </trkpt>
      <trkpt lat="47.20698" lon="5.60223">
        <ele>315.07510375977</ele>
        <time>2011-01-15T09:21:51Z</time>
      </trkpt>
      <trkpt lat="47.20689" lon="5.60231">
        <ele>315.84069824219</ele>
        <time>2011-01-15T09:21:56Z</time>
      </trkpt>
      <trkpt lat="47.20684" lon="5.60243">
        <ele>315.8395690918</ele>
        <time>2011-01-15T09:22:00Z</time>
      </trkpt>
      <trkpt lat="47.20676" lon="5.60259">
        <ele>317.3430480957</ele>
        <time>2011-01-15T09:22:06Z</time>
      </trkpt>
      <trkpt lat="47.20672" lon="5.60265">
        <ele>318.35052490234</ele>
        <time>2011-01-15T09:22:10Z</time>
      </trkpt>
      <trkpt lat="47.2067" lon="5.60269">
        <ele>319.01342773438</ele>
        <time>2011-01-15T09:22:13Z</time>
      </trkpt>
      <trkpt lat="47.20665" lon="5.60277">
        <ele>320.61462402344</ele>
        <time>2011-01-15T09:22:18Z</time>
      </trkpt>
      <trkpt lat="47.20657" lon="5.60286">
        <ele>322.8669128418</ele>
        <time>2011-01-15T09:22:24Z</time>
      </trkpt>
      <trkpt lat="47.2065" lon="5.60293">
        <ele>324.82647705078</ele>
        <time>2011-01-15T09:22:30Z</time>
      </trkpt>
      <trkpt lat="47.20645" lon="5.60299">
        <ele>326.48315429688</ele>
        <time>2011-01-15T09:22:35Z</time>
      </trkpt>
      <trkpt lat="47.20643" lon="5.60303">
        <ele>327.28118896484</ele>
        <time>2011-01-15T09:22:37Z</time>
      </trkpt>
      <trkpt lat="47.20638" lon="5.60311">
        <ele>328.99942016602</ele>
        <time>2011-01-15T09:22:42Z</time>
      </trkpt>
      <trkpt lat="47.20636" lon="5.60315">
        <ele>329.85217285156</ele>
        <time>2011-01-15T09:22:44Z</time>
      </trkpt>
      <trkpt lat="47.2063" lon="5.60323">
        <ele>331.85144042969</ele>
        <time>2011-01-15T09:22:50Z</time>
      </trkpt>
      <trkpt lat="47.20624" lon="5.60333">
        <ele>334.20153808594</ele>
        <time>2011-01-15T09:22:57Z</time>
      </trkpt>
      <trkpt lat="47.20619" lon="5.60339">
        <ele>335.68460083008</ele>
        <time>2011-01-15T09:23:02Z</time>
      </trkpt>
      <trkpt lat="47.20614" lon="5.60346">
        <ele>337.29415893555</ele>
        <time>2011-01-15T09:23:07Z</time>
      </trkpt>
      <trkpt lat="47.20607" lon="5.60357">
        <ele>339.86990356445</ele>
        <time>2011-01-15T09:23:12Z</time>
      </trkpt>
      <trkpt lat="47.20602" lon="5.60363">
        <ele>341.38821411133</ele>
        <time>2011-01-15T09:23:16Z</time>
      </trkpt>
      <trkpt lat="47.20598" lon="5.60367">
        <ele>342.69946289062</ele>
        <time>2011-01-15T09:23:22Z</time>
      </trkpt>
      <trkpt lat="47.20593" lon="5.60373">
        <ele>344.42123413086</ele>
        <time>2011-01-15T09:23:26Z</time>
      </trkpt>
      <trkpt lat="47.20591" lon="5.60376">
        <ele>345.33459472656</ele>
        <time>2011-01-15T09:23:29Z</time>
      </trkpt>
      <trkpt lat="47.20585" lon="5.60385">
        <ele>347.48767089844</ele>
        <time>2011-01-15T09:23:34Z</time>
      </trkpt>
      <trkpt lat="47.20583" lon="5.60389">
        <ele>348.43688964844</ele>
        <time>2011-01-15T09:23:37Z</time>
      </trkpt>
      <trkpt lat="47.20576" lon="5.60399">
        <ele>351.08041381836</ele>
        <time>2011-01-15T09:23:44Z</time>
      </trkpt>
      <trkpt lat="47.20575" lon="5.60401">
        <ele>351.77349853516</ele>
        <time>2011-01-15T09:23:46Z</time>
      </trkpt>
      <trkpt lat="47.20567" lon="5.6041">
        <ele>354.50210571289</ele>
        <time>2011-01-15T09:23:51Z</time>
      </trkpt>
      <trkpt lat="47.20561" lon="5.60416">
        <ele>356.58959960938</ele>
        <time>2011-01-15T09:23:56Z</time>
      </trkpt>
      <trkpt lat="47.20555" lon="5.60422">
        <ele>358.24911499023</ele>
        <time>2011-01-15T09:24:03Z</time>
      </trkpt>
      <trkpt lat="47.20554" lon="5.60423">
        <ele>358.5498046875</ele>
        <time>2011-01-15T09:24:04Z</time>
      </trkpt>
      <trkpt lat="47.20547" lon="5.60428">
        <ele>360.24508666992</ele>
        <time>2011-01-15T09:24:09Z</time>
      </trkpt>
      <trkpt lat="47.20544" lon="5.60433">
        <ele>361.08694458008</ele>
        <time>2011-01-15T09:24:12Z</time>
      </trkpt>
      <trkpt lat="47.20539" lon="5.60439">
        <ele>362.33831787109</ele>
        <time>2011-01-15T09:24:16Z</time>
      </trkpt>
      <trkpt lat="47.20532" lon="5.60449">
        <ele>364.35873413086</ele>
        <time>2011-01-15T09:24:23Z</time>
      </trkpt>
      <trkpt lat="47.20526" lon="5.60459">
        <ele>366.22308349609</ele>
        <time>2011-01-15T09:24:28Z</time>
      </trkpt>
      <trkpt lat="47.20525" lon="5.60459">
        <ele>366.40872192383</ele>
        <time>2011-01-15T09:24:30Z</time>
      </trkpt>
      <trkpt lat="47.20526" lon="5.60456">
        <ele>366.16534423828</ele>
        <time>2011-01-15T09:24:32Z</time>
      </trkpt>
      <trkpt lat="47.20523" lon="5.60462">
        <ele>366.86920166016</ele>
        <time>2011-01-15T09:24:37Z</time>
      </trkpt>
      <trkpt lat="47.20523" lon="5.60461">
        <ele>366.95788574219</ele>
        <time>2011-01-15T09:24:43Z</time>
      </trkpt>
      <trkpt lat="47.20522" lon="5.60459">
        <ele>367.32971191406</ele>
        <time>2011-01-15T09:24:46Z</time>
      </trkpt>
      <trkpt lat="47.20519" lon="5.60452">
        <ele>367.90264892578</ele>
        <time>2011-01-15T09:24:53Z</time>
      </trkpt>
      <trkpt lat="47.20522" lon="5.6045">
        <ele>366.97134399414</ele>
        <time>2011-01-15T09:25:02Z</time>
      </trkpt>
      <trkpt lat="47.20525" lon="5.60445">
        <ele>366.28442382812</ele>
        <time>2011-01-15T09:25:07Z</time>
      </trkpt>
      <trkpt lat="47.20527" lon="5.60438">
        <ele>365.4755859375</ele>
        <time>2011-01-15T09:25:12Z</time>
      </trkpt>
      <trkpt lat="47.20528" lon="5.6043">
        <ele>365.15405273438</ele>
        <time>2011-01-15T09:25:17Z</time>
      </trkpt>
      <trkpt lat="47.20532" lon="5.60417">
        <ele>363.97973632812</ele>
        <time>2011-01-15T09:25:24Z</time>
      </trkpt>
      <trkpt lat="47.20535" lon="5.60406">
        <ele>362.42437744141</ele>
        <time>2011-01-15T09:25:30Z</time>
      </trkpt>
      <trkpt lat="47.20544" lon="5.60397">
        <ele>359.38269042969</ele>
        <time>2011-01-15T09:25:35Z</time>
      </trkpt>
      <trkpt lat="47.20547" lon="5.60392">
        <ele>358.03988647461</ele>
        <time>2011-01-15T09:25:39Z</time>
      </trkpt>
      <trkpt lat="47.20551" lon="5.60389">
        <ele>356.83404541016</ele>
        <time>2011-01-15T09:25:43Z</time>
      </trkpt>
      <trkpt lat="47.20557" lon="5.60384">
        <ele>354.74295043945</ele>
        <time>2011-01-15T09:25:48Z</time>
      </trkpt>
      <trkpt lat="47.2056" lon="5.60381">
        <ele>353.91680908203</ele>
        <time>2011-01-15T09:25:51Z</time>
      </trkpt>
      <trkpt lat="47.2056" lon="5.60384">
        <ele>353.98388671875</ele>
        <time>2011-01-15T09:25:57Z</time>
      </trkpt>
      <trkpt lat="47.20556" lon="5.60396">
        <ele>356.22036743164</ele>
        <time>2011-01-15T09:26:03Z</time>
      </trkpt>
      <trkpt lat="47.20554" lon="5.60398">
        <ele>356.73764038086</ele>
        <time>2011-01-15T09:26:05Z</time>
      </trkpt>
      <trkpt lat="47.20551" lon="5.60405">
        <ele>358.29174804688</ele>
        <time>2011-01-15T09:26:09Z</time>
      </trkpt>
      <trkpt lat="47.20546" lon="5.60411">
        <ele>359.95620727539</ele>
        <time>2011-01-15T09:26:16Z</time>
      </trkpt>
      <trkpt lat="47.20544" lon="5.60413">
        <ele>360.59237670898</ele>
        <time>2011-01-15T09:26:19Z</time>
      </trkpt>
      <trkpt lat="47.2054" lon="5.6042">
        <ele>361.90377807617</ele>
        <time>2011-01-15T09:26:23Z</time>
      </trkpt>
      <trkpt lat="47.20537" lon="5.60424">
        <ele>362.82034301758</ele>
        <time>2011-01-15T09:26:27Z</time>
      </trkpt>
      <trkpt lat="47.20534" lon="5.60429">
        <ele>363.67391967773</ele>
        <time>2011-01-15T09:26:32Z</time>
      </trkpt>
      <trkpt lat="47.2053" lon="5.60434">
        <ele>364.62506103516</ele>
        <time>2011-01-15T09:26:35Z</time>
      </trkpt>
      <trkpt lat="47.20527" lon="5.60439">
        <ele>365.5934753418</ele>
        <time>2011-01-15T09:26:39Z</time>
      </trkpt>
      <trkpt lat="47.20522" lon="5.60449">
        <ele>367.15405273438</ele>
        <time>2011-01-15T09:26:45Z</time>
      </trkpt>
      <trkpt lat="47.2052" lon="5.6045">
        <ele>367.66760253906</ele>
        <time>2011-01-15T09:26:48Z</time>
      </trkpt>
      <trkpt lat="47.20516" lon="5.60453">
        <ele>368.71032714844</ele>
        <time>2011-01-15T09:26:55Z</time>
      </trkpt>
      <trkpt lat="47.20515" lon="5.60452">
        <ele>368.79919433594</ele>
        <time>2011-01-15T09:27:01Z</time>
      </trkpt>
      <trkpt lat="47.20515" lon="5.60452">
        <ele>368.80572509766</ele>
        <time>2011-01-15T09:27:07Z</time>
      </trkpt>
      <trkpt lat="47.20517" lon="5.60456">
        <ele>368.58441162109</ele>
        <time>2011-01-15T09:27:13Z</time>
      </trkpt>
      <trkpt lat="47.20516" lon="5.60463">
        <ele>368.8056640625</ele>
        <time>2011-01-15T09:27:20Z</time>
      </trkpt>
      <trkpt lat="47.20517" lon="5.60464">
        <ele>368.53021240234</ele>
        <time>2011-01-15T09:27:28Z</time>
      </trkpt>
      <trkpt lat="47.20517" lon="5.60464">
        <ele>368.52569580078</ele>
        <time>2011-01-15T09:27:35Z</time>
      </trkpt>
      <trkpt lat="47.20518" lon="5.60464">
        <ele>368.32843017578</ele>
        <time>2011-01-15T09:27:43Z</time>
      </trkpt>
      <trkpt lat="47.2052" lon="5.60466">
        <ele>367.75573730469</ele>
        <time>2011-01-15T09:27:52Z</time>
      </trkpt>
      <trkpt lat="47.20522" lon="5.60467">
        <ele>367.4714050293</ele>
        <time>2011-01-15T09:28:08Z</time>
      </trkpt>
      <trkpt lat="47.20525" lon="5.60477">
        <ele>366.81838989258</ele>
        <time>2011-01-15T09:28:13Z</time>
      </trkpt>
      <trkpt lat="47.20524" lon="5.60491">
        <ele>367.15737915039</ele>
        <time>2011-01-15T09:28:18Z</time>
      </trkpt>
      <trkpt lat="47.20522" lon="5.60505">
        <ele>367.99963378906</ele>
        <time>2011-01-15T09:28:23Z</time>
      </trkpt>
      <trkpt lat="47.20522" lon="5.60512">
        <ele>368.30963134766</ele>
        <time>2011-01-15T09:28:25Z</time>
      </trkpt>
      <trkpt lat="47.20518" lon="5.60516">
        <ele>369.55883789062</ele>
        <time>2011-01-15T09:28:29Z</time>
      </trkpt>
      <trkpt lat="47.20512" lon="5.60509">
        <ele>371.04263305664</ele>
        <time>2011-01-15T09:28:33Z</time>
      </trkpt>
      <trkpt lat="47.20503" lon="5.60494">
        <ele>372.97302246094</ele>
        <time>2011-01-15T09:28:41Z</time>
      </trkpt>
      <trkpt lat="47.20498" lon="5.60486">
        <ele>373.99694824219</ele>
        <time>2011-01-15T09:28:47Z</time>
      </trkpt>
      <trkpt lat="47.20496" lon="5.60483">
        <ele>374.27752685547</ele>
        <time>2011-01-15T09:28:49Z</time>
      </trkpt>
      <trkpt lat="47.20491" lon="5.60479">
        <ele>375.26416015625</ele>
        <time>2011-01-15T09:28:53Z</time>
      </trkpt>
      <trkpt lat="47.20481" lon="5.60466">
        <ele>376.7121887207</ele>
        <time>2011-01-15T09:29:00Z</time>
      </trkpt>
      <trkpt lat="47.20479" lon="5.60464">
        <ele>377.02395629883</ele>
        <time>2011-01-15T09:29:01Z</time>
      </trkpt>
      <trkpt lat="47.20474" lon="5.60458">
        <ele>377.78793334961</ele>
        <time>2011-01-15T09:29:04Z</time>
      </trkpt>
      <trkpt lat="47.20465" lon="5.60445">
        <ele>379.02325439453</ele>
        <time>2011-01-15T09:29:10Z</time>
      </trkpt>
      <trkpt lat="47.20464" lon="5.60443">
        <ele>379.19354248047</ele>
        <time>2011-01-15T09:29:11Z</time>
      </trkpt>
      <trkpt lat="47.20455" lon="5.60435">
        <ele>380.63244628906</ele>
        <time>2011-01-15T09:29:17Z</time>
      </trkpt>
      <trkpt lat="47.20454" lon="5.60433">
        <ele>380.83511352539</ele>
        <time>2011-01-15T09:29:19Z</time>
      </trkpt>
      <trkpt lat="47.20447" lon="5.60424">
        <ele>381.75509643555</ele>
        <time>2011-01-15T09:29:25Z</time>
      </trkpt>
      <trkpt lat="47.20442" lon="5.60413">
        <ele>382.25146484375</ele>
        <time>2011-01-15T09:29:31Z</time>
      </trkpt>
      <trkpt lat="47.2044" lon="5.60409">
        <ele>382.40023803711</ele>
        <time>2011-01-15T09:29:33Z</time>
      </trkpt>
      <trkpt lat="47.20433" lon="5.60397">
        <ele>382.84368896484</ele>
        <time>2011-01-15T09:29:37Z</time>
      </trkpt>
      <trkpt lat="47.20427" lon="5.60388">
        <ele>383.48742675781</ele>
        <time>2011-01-15T09:29:40Z</time>
      </trkpt>
      <trkpt lat="47.2042" lon="5.60376">
        <ele>383.86221313477</ele>
        <time>2011-01-15T09:29:44Z</time>
      </trkpt>
      <trkpt lat="47.20412" lon="5.6036">
        <ele>384.39666748047</ele>
        <time>2011-01-15T09:29:50Z</time>
      </trkpt>
      <trkpt lat="47.20407" lon="5.60351">
        <ele>384.53173828125</ele>
        <time>2011-01-15T09:29:55Z</time>
      </trkpt>
      <trkpt lat="47.20399" lon="5.60338">
        <ele>385.22039794922</ele>
        <time>2011-01-15T09:30:00Z</time>
      </trkpt>
      <trkpt lat="47.20391" lon="5.60324">
        <ele>386.2314453125</ele>
        <time>2011-01-15T09:30:04Z</time>
      </trkpt>
      <trkpt lat="47.20381" lon="5.60308">
        <ele>387.70950317383</ele>
        <time>2011-01-15T09:30:10Z</time>
      </trkpt>
      <trkpt lat="47.20372" lon="5.60293">
        <ele>388.92837524414</ele>
        <time>2011-01-15T09:30:16Z</time>
      </trkpt>
      <trkpt lat="47.20364" lon="5.60282">
        <ele>390.07382202148</ele>
        <time>2011-01-15T09:30:21Z</time>
      </trkpt>
      <trkpt lat="47.20357" lon="5.60272">
        <ele>390.94494628906</ele>
        <time>2011-01-15T09:30:26Z</time>
      </trkpt>
      <trkpt lat="47.20349" lon="5.60255">
        <ele>391.87936401367</ele>
        <time>2011-01-15T09:30:31Z</time>
      </trkpt>
      <trkpt lat="47.20345" lon="5.60249">
        <ele>392.26263427734</ele>
        <time>2011-01-15T09:30:33Z</time>
      </trkpt>
      <trkpt lat="47.20335" lon="5.60232">
        <ele>393.35241699219</ele>
        <time>2011-01-15T09:30:38Z</time>
      </trkpt>
      <trkpt lat="47.20328" lon="5.60215">
        <ele>392.626953125</ele>
        <time>2011-01-15T09:30:44Z</time>
      </trkpt>
      <trkpt lat="47.2032" lon="5.60204">
        <ele>391.49389648438</ele>
        <time>2011-01-15T09:30:48Z</time>
      </trkpt>
      <trkpt lat="47.2031" lon="5.60185">
        <ele>390.0104675293</ele>
        <time>2011-01-15T09:30:54Z</time>
      </trkpt>
      <trkpt lat="47.20304" lon="5.60167">
        <ele>388.89093017578</ele>
        <time>2011-01-15T09:31:00Z</time>
      </trkpt>
      <trkpt lat="47.20299" lon="5.60156">
        <ele>388.10345458984</ele>
        <time>2011-01-15T09:31:05Z</time>
      </trkpt>
      <trkpt lat="47.20295" lon="5.60151">
        <ele>387.55697631836</ele>
        <time>2011-01-15T09:31:08Z</time>
      </trkpt>
      <trkpt lat="47.20295" lon="5.60148">
        <ele>387.50509643555</ele>
        <time>2011-01-15T09:31:21Z</time>
      </trkpt>
      <trkpt lat="47.2029" lon="5.60146">
        <ele>386.93765258789</ele>
        <time>2011-01-15T09:31:28Z</time>
      </trkpt>
      <trkpt lat="47.20288" lon="5.60143">
        <ele>386.68734741211</ele>
        <time>2011-01-15T09:31:33Z</time>
      </trkpt>
      <trkpt lat="47.2029" lon="5.60143">
        <ele>386.91848754883</ele>
        <time>2011-01-15T09:31:45Z</time>
      </trkpt>
      <trkpt lat="47.20289" lon="5.6014">
        <ele>386.72952270508</ele>
        <time>2011-01-15T09:31:57Z</time>
      </trkpt>
      <trkpt lat="47.20285" lon="5.60135">
        <ele>386.08419799805</ele>
        <time>2011-01-15T09:32:00Z</time>
      </trkpt>
      <trkpt lat="47.20277" lon="5.60122">
        <ele>384.88775634766</ele>
        <time>2011-01-15T09:32:04Z</time>
      </trkpt>
      <trkpt lat="47.20268" lon="5.60105">
        <ele>383.24755859375</ele>
        <time>2011-01-15T09:32:10Z</time>
      </trkpt>
      <trkpt lat="47.20262" lon="5.60095">
        <ele>382.12173461914</ele>
        <time>2011-01-15T09:32:14Z</time>
      </trkpt>
      <trkpt lat="47.20248" lon="5.60075">
        <ele>379.42782592773</ele>
        <time>2011-01-15T09:32:20Z</time>
      </trkpt>
      <trkpt lat="47.2024" lon="5.60058">
        <ele>377.02340698242</ele>
        <time>2011-01-15T09:32:25Z</time>
      </trkpt>
      <trkpt lat="47.20231" lon="5.60045">
        <ele>374.80670166016</ele>
        <time>2011-01-15T09:32:30Z</time>
      </trkpt>
      <trkpt lat="47.20226" lon="5.60032">
        <ele>373.17935180664</ele>
        <time>2011-01-15T09:32:34Z</time>
      </trkpt>
      <trkpt lat="47.20214" lon="5.60012">
        <ele>370.10089111328</ele>
        <time>2011-01-15T09:32:40Z</time>
      </trkpt>
      <trkpt lat="47.20206" lon="5.6">
        <ele>368.08395385742</ele>
        <time>2011-01-15T09:32:44Z</time>
      </trkpt>
      <trkpt lat="47.20199" lon="5.59988">
        <ele>366.66888427734</ele>
        <time>2011-01-15T09:32:48Z</time>
      </trkpt>
      <trkpt lat="47.20188" lon="5.59976">
        <ele>364.4514465332</ele>
        <time>2011-01-15T09:32:53Z</time>
      </trkpt>
      <trkpt lat="47.20178" lon="5.59955">
        <ele>362.78167724609</ele>
        <time>2011-01-15T09:32:59Z</time>
      </trkpt>
      <trkpt lat="47.20169" lon="5.59936">
        <ele>361.09622192383</ele>
        <time>2011-01-15T09:33:04Z</time>
      </trkpt>
      <trkpt lat="47.20161" lon="5.59921">
        <ele>360.47598266602</ele>
        <time>2011-01-15T09:33:08Z</time>
      </trkpt>
      <trkpt lat="47.20151" lon="5.59904">
        <ele>360.93667602539</ele>
        <time>2011-01-15T09:33:14Z</time>
      </trkpt>
      <trkpt lat="47.20144" lon="5.59884">
        <ele>362.30352783203</ele>
        <time>2011-01-15T09:33:20Z</time>
      </trkpt>
      <trkpt lat="47.20142" lon="5.59883">
        <ele>362.43301391602</ele>
        <time>2011-01-15T09:33:21Z</time>
      </trkpt>
      <trkpt lat="47.20134" lon="5.59871">
        <ele>363.70883178711</ele>
        <time>2011-01-15T09:33:26Z</time>
      </trkpt>
      <trkpt lat="47.20131" lon="5.59868">
        <ele>364.06381225586</ele>
        <time>2011-01-15T09:33:28Z</time>
      </trkpt>
      <trkpt lat="47.20123" lon="5.59859">
        <ele>365.51519775391</ele>
        <time>2011-01-15T09:33:32Z</time>
      </trkpt>
      <trkpt lat="47.20116" lon="5.59865">
        <ele>365.06948852539</ele>
        <time>2011-01-15T09:33:37Z</time>
      </trkpt>
      <trkpt lat="47.20111" lon="5.59871">
        <ele>364.37094116211</ele>
        <time>2011-01-15T09:33:42Z</time>
      </trkpt>
      <trkpt lat="47.20111" lon="5.59874">
        <ele>364.0198059082</ele>
        <time>2011-01-15T09:33:44Z</time>
      </trkpt>
      <trkpt lat="47.20105" lon="5.59882">
        <ele>362.87365722656</ele>
        <time>2011-01-15T09:33:50Z</time>
      </trkpt>
      <trkpt lat="47.20095" lon="5.59895">
        <ele>360.69320678711</ele>
        <time>2011-01-15T09:33:55Z</time>
      </trkpt>
      <trkpt lat="47.20093" lon="5.59899">
        <ele>359.89660644531</ele>
        <time>2011-01-15T09:33:57Z</time>
      </trkpt>
      <trkpt lat="47.20091" lon="5.59903">
        <ele>359.09826660156</ele>
        <time>2011-01-15T09:33:59Z</time>
      </trkpt>
      <trkpt lat="47.20085" lon="5.59913">
        <ele>356.85928344727</ele>
        <time>2011-01-15T09:34:04Z</time>
      </trkpt>
      <trkpt lat="47.20076" lon="5.59921">
        <ele>356.67108154297</ele>
        <time>2011-01-15T09:34:08Z</time>
      </trkpt>
      <trkpt lat="47.20068" lon="5.5993">
        <ele>356.59451293945</ele>
        <time>2011-01-15T09:34:12Z</time>
      </trkpt>
      <trkpt lat="47.20066" lon="5.59931">
        <ele>356.75201416016</ele>
        <time>2011-01-15T09:34:13Z</time>
      </trkpt>
      <trkpt lat="47.20063" lon="5.59934">
        <ele>356.67907714844</ele>
        <time>2011-01-15T09:34:15Z</time>
      </trkpt>
      <trkpt lat="47.20057" lon="5.59944">
        <ele>356.23461914062</ele>
        <time>2011-01-15T09:34:19Z</time>
      </trkpt>
      <trkpt lat="47.2005" lon="5.59953">
        <ele>356.08889770508</ele>
        <time>2011-01-15T09:34:23Z</time>
      </trkpt>
      <trkpt lat="47.20041" lon="5.59967">
        <ele>355.63272094727</ele>
        <time>2011-01-15T09:34:29Z</time>
      </trkpt>
      <trkpt lat="47.20034" lon="5.59974">
        <ele>355.61138916016</ele>
        <time>2011-01-15T09:34:32Z</time>
      </trkpt>
      <trkpt lat="47.20022" lon="5.59993">
        <ele>354.83193969727</ele>
        <time>2011-01-15T09:34:38Z</time>
      </trkpt>
      <trkpt lat="47.20008" lon="5.60015">
        <ele>353.78723144531</ele>
        <time>2011-01-15T09:34:45Z</time>
      </trkpt>
      <trkpt lat="47.2" lon="5.60023">
        <ele>353.45697021484</ele>
        <time>2011-01-15T09:34:49Z</time>
      </trkpt>
      <trkpt lat="47.19992" lon="5.60037">
        <ele>351.55169677734</ele>
        <time>2011-01-15T09:34:53Z</time>
      </trkpt>
      <trkpt lat="47.19979" lon="5.60055">
        <ele>349.45565795898</ele>
        <time>2011-01-15T09:34:59Z</time>
      </trkpt>
      <trkpt lat="47.19976" lon="5.60063">
        <ele>348.44808959961</ele>
        <time>2011-01-15T09:35:01Z</time>
      </trkpt>
      <trkpt lat="47.1997" lon="5.60071">
        <ele>347.73587036133</ele>
        <time>2011-01-15T09:35:05Z</time>
      </trkpt>
      <trkpt lat="47.19965" lon="5.60078">
        <ele>347.09957885742</ele>
        <time>2011-01-15T09:35:08Z</time>
      </trkpt>
      <trkpt lat="47.19956" lon="5.60088">
        <ele>346.58291625977</ele>
        <time>2011-01-15T09:35:14Z</time>
      </trkpt>
      <trkpt lat="47.1995" lon="5.60098">
        <ele>345.80383300781</ele>
        <time>2011-01-15T09:35:18Z</time>
      </trkpt>
      <trkpt lat="47.19942" lon="5.60107">
        <ele>345.53051757812</ele>
        <time>2011-01-15T09:35:22Z</time>
      </trkpt>
      <trkpt lat="47.1993" lon="5.60121">
        <ele>344.97891235352</ele>
        <time>2011-01-15T09:35:26Z</time>
      </trkpt>
      <trkpt lat="47.19919" lon="5.60133">
        <ele>344.5491027832</ele>
        <time>2011-01-15T09:35:30Z</time>
      </trkpt>
      <trkpt lat="47.19908" lon="5.60148">
        <ele>343.00347900391</ele>
        <time>2011-01-15T09:35:35Z</time>
      </trkpt>
      <trkpt lat="47.19897" lon="5.60167">
        <ele>340.83087158203</ele>
        <time>2011-01-15T09:35:40Z</time>
      </trkpt>
      <trkpt lat="47.19888" lon="5.60177">
        <ele>339.47207641602</ele>
        <time>2011-01-15T09:35:46Z</time>
      </trkpt>
      <trkpt lat="47.1988" lon="5.60188">
        <ele>338.17407226562</ele>
        <time>2011-01-15T09:35:51Z</time>
      </trkpt>
      <trkpt lat="47.19874" lon="5.60195">
        <ele>337.31372070312</ele>
        <time>2011-01-15T09:35:56Z</time>
      </trkpt>
      <trkpt lat="47.19871" lon="5.60199">
        <ele>336.90219116211</ele>
        <time>2011-01-15T09:35:58Z</time>
      </trkpt>
      <trkpt lat="47.19866" lon="5.60207">
        <ele>335.92831420898</ele>
        <time>2011-01-15T09:36:03Z</time>
      </trkpt>
      <trkpt lat="47.19859" lon="5.60217">
        <ele>334.74337768555</ele>
        <time>2011-01-15T09:36:08Z</time>
      </trkpt>
      <trkpt lat="47.19854" lon="5.60224">
        <ele>334.00341796875</ele>
        <time>2011-01-15T09:36:11Z</time>
      </trkpt>
      <trkpt lat="47.19845" lon="5.60238">
        <ele>332.67196655273</ele>
        <time>2011-01-15T09:36:17Z</time>
      </trkpt>
      <trkpt lat="47.1984" lon="5.60249">
        <ele>331.49975585938</ele>
        <time>2011-01-15T09:36:21Z</time>
      </trkpt>
      <trkpt lat="47.19834" lon="5.60258">
        <ele>329.38946533203</ele>
        <time>2011-01-15T09:36:25Z</time>
      </trkpt>
      <trkpt lat="47.19832" lon="5.6026">
        <ele>328.69375610352</ele>
        <time>2011-01-15T09:36:26Z</time>
      </trkpt>
      <trkpt lat="47.19823" lon="5.60266">
        <ele>325.87692260742</ele>
        <time>2011-01-15T09:36:30Z</time>
      </trkpt>
      <trkpt lat="47.19822" lon="5.60266">
        <ele>325.61352539062</ele>
        <time>2011-01-15T09:36:37Z</time>
      </trkpt>
      <trkpt lat="47.19819" lon="5.60272">
        <ele>323.58056640625</ele>
        <time>2011-01-15T09:36:43Z</time>
      </trkpt>
      <trkpt lat="47.19814" lon="5.6028">
        <ele>320.56964111328</ele>
        <time>2011-01-15T09:36:48Z</time>
      </trkpt>
      <trkpt lat="47.1981" lon="5.60287">
        <ele>318.23016357422</ele>
        <time>2011-01-15T09:36:53Z</time>
      </trkpt>
      <trkpt lat="47.19803" lon="5.60294">
        <ele>315.29632568359</ele>
        <time>2011-01-15T09:36:58Z</time>
      </trkpt>
      <trkpt lat="47.19797" lon="5.603">
        <ele>313.26739501953</ele>
        <time>2011-01-15T09:37:02Z</time>
      </trkpt>
      <trkpt lat="47.19796" lon="5.60301">
        <ele>312.89889526367</ele>
        <time>2011-01-15T09:37:03Z</time>
      </trkpt>
      <trkpt lat="47.19793" lon="5.60304">
        <ele>311.66488647461</ele>
        <time>2011-01-15T09:37:06Z</time>
      </trkpt>
      <trkpt lat="47.19785" lon="5.60316">
        <ele>307.75268554688</ele>
        <time>2011-01-15T09:37:12Z</time>
      </trkpt>
      <trkpt lat="47.19778" lon="5.60325">
        <ele>305.01153564453</ele>
        <time>2011-01-15T09:37:17Z</time>
      </trkpt>
      <trkpt lat="47.19779" lon="5.60328">
        <ele>304.15310668945</ele>
        <time>2011-01-15T09:37:21Z</time>
      </trkpt>
      <trkpt lat="47.19776" lon="5.60344">
        <ele>300.11654663086</ele>
        <time>2011-01-15T09:37:27Z</time>
      </trkpt>
      <trkpt lat="47.19778" lon="5.60361">
        <ele>296.46591186523</ele>
        <time>2011-01-15T09:37:31Z</time>
      </trkpt>
      <trkpt lat="47.19782" lon="5.60378">
        <ele>292.59301757812</ele>
        <time>2011-01-15T09:37:35Z</time>
      </trkpt>
      <trkpt lat="47.19784" lon="5.60384">
        <ele>291.29144287109</ele>
        <time>2011-01-15T09:37:36Z</time>
      </trkpt>
      <trkpt lat="47.19784" lon="5.60393">
        <ele>289.19329833984</ele>
        <time>2011-01-15T09:37:38Z</time>
      </trkpt>
      <trkpt lat="47.19779" lon="5.6041">
        <ele>285.12173461914</ele>
        <time>2011-01-15T09:37:43Z</time>
      </trkpt>
      <trkpt lat="47.19775" lon="5.6043">
        <ele>282.2223815918</ele>
        <time>2011-01-15T09:37:48Z</time>
      </trkpt>
      <trkpt lat="47.19765" lon="5.60443">
        <ele>280.64260864258</ele>
        <time>2011-01-15T09:37:52Z</time>
      </trkpt>
      <trkpt lat="47.19764" lon="5.60446">
        <ele>280.2448425293</ele>
        <time>2011-01-15T09:37:54Z</time>
      </trkpt>
      <trkpt lat="47.19762" lon="5.6045">
        <ele>279.81857299805</ele>
        <time>2011-01-15T09:37:56Z</time>
      </trkpt>
      <trkpt lat="47.19754" lon="5.6045">
        <ele>279.56539916992</ele>
        <time>2011-01-15T09:38:04Z</time>
      </trkpt>
      <trkpt lat="47.19753" lon="5.60447">
        <ele>279.83102416992</ele>
        <time>2011-01-15T09:38:14Z</time>
      </trkpt>
      <trkpt lat="47.19756" lon="5.60447">
        <ele>279.88790893555</ele>
        <time>2011-01-15T09:38:30Z</time>
      </trkpt>
      <trkpt lat="47.19757" lon="5.60446">
        <ele>280.08673095703</ele>
        <time>2011-01-15T09:38:36Z</time>
      </trkpt>
      <trkpt lat="47.19757" lon="5.60443">
        <ele>280.35223388672</ele>
        <time>2011-01-15T09:38:44Z</time>
      </trkpt>
      <trkpt lat="47.19762" lon="5.60447">
        <ele>280.09298706055</ele>
        <time>2011-01-15T09:38:53Z</time>
      </trkpt>
      <trkpt lat="47.19759" lon="5.6045">
        <ele>279.69384765625</ele>
        <time>2011-01-15T09:39:00Z</time>
      </trkpt>
      <trkpt lat="47.19758" lon="5.60449">
        <ele>279.79412841797</ele>
        <time>2011-01-15T09:39:09Z</time>
      </trkpt>
      <trkpt lat="47.19759" lon="5.60446">
        <ele>280.14855957031</ele>
        <time>2011-01-15T09:39:36Z</time>
      </trkpt>
      <trkpt lat="47.19751" lon="5.6044">
        <ele>280.4841003418</ele>
        <time>2011-01-15T09:39:45Z</time>
      </trkpt>
      <trkpt lat="47.1975" lon="5.60439">
        <ele>280.60406494141</ele>
        <time>2011-01-15T09:39:47Z</time>
      </trkpt>
      <trkpt lat="47.19748" lon="5.60438">
        <ele>280.90170288086</ele>
        <time>2011-01-15T09:39:49Z</time>
      </trkpt>
      <trkpt lat="47.1975" lon="5.60441">
        <ele>280.37161254883</ele>
        <time>2011-01-15T09:40:05Z</time>
      </trkpt>
      <trkpt lat="47.1975" lon="5.60442">
        <ele>280.30517578125</ele>
        <time>2011-01-15T09:40:13Z</time>
      </trkpt>
      <trkpt lat="47.19755" lon="5.60443">
        <ele>280.34771728516</ele>
        <time>2011-01-15T09:40:20Z</time>
      </trkpt>
      <trkpt lat="47.19755" lon="5.60445">
        <ele>280.12426757812</ele>
        <time>2011-01-15T09:40:37Z</time>
      </trkpt>
      <trkpt lat="47.19755" lon="5.60447">
        <ele>279.87539672852</ele>
        <time>2011-01-15T09:40:52Z</time>
      </trkpt>
      <trkpt lat="47.19756" lon="5.60453">
        <ele>279.2516784668</ele>
        <time>2011-01-15T09:41:02Z</time>
      </trkpt>
      <trkpt lat="47.1975" lon="5.60446">
        <ele>279.88781738281</ele>
        <time>2011-01-15T09:41:13Z</time>
      </trkpt>
      <trkpt lat="47.19748" lon="5.60429">
        <ele>281.82476806641</ele>
        <time>2011-01-15T09:41:19Z</time>
      </trkpt>
      <trkpt lat="47.19748" lon="5.60414">
        <ele>283.75680541992</ele>
        <time>2011-01-15T09:41:25Z</time>
      </trkpt>
      <trkpt lat="47.19747" lon="5.60399">
        <ele>287.04116821289</ele>
        <time>2011-01-15T09:41:31Z</time>
      </trkpt>
      <trkpt lat="47.19739" lon="5.60389">
        <ele>289.54223632812</ele>
        <time>2011-01-15T09:41:37Z</time>
      </trkpt>
      <trkpt lat="47.19733" lon="5.60385">
        <ele>290.4143371582</ele>
        <time>2011-01-15T09:41:41Z</time>
      </trkpt>
      <trkpt lat="47.19731" lon="5.60383">
        <ele>290.96255493164</ele>
        <time>2011-01-15T09:41:43Z</time>
      </trkpt>
      <trkpt lat="47.1973" lon="5.60378">
        <ele>291.87088012695</ele>
        <time>2011-01-15T09:41:47Z</time>
      </trkpt>
      <trkpt lat="47.19729" lon="5.60375">
        <ele>292.50332641602</ele>
        <time>2011-01-15T09:41:49Z</time>
      </trkpt>
      <trkpt lat="47.19725" lon="5.60366">
        <ele>294.14041137695</ele>
        <time>2011-01-15T09:41:54Z</time>
      </trkpt>
      <trkpt lat="47.19721" lon="5.6036">
        <ele>295.28463745117</ele>
        <time>2011-01-15T09:41:59Z</time>
      </trkpt>
      <trkpt lat="47.19713" lon="5.6035">
        <ele>296.89813232422</ele>
        <time>2011-01-15T09:42:06Z</time>
      </trkpt>
      <trkpt lat="47.19712" lon="5.60348">
        <ele>297.23684692383</ele>
        <time>2011-01-15T09:42:07Z</time>
      </trkpt>
      <trkpt lat="47.19706" lon="5.60338">
        <ele>298.75772094727</ele>
        <time>2011-01-15T09:42:13Z</time>
      </trkpt>
      <trkpt lat="47.19702" lon="5.60335">
        <ele>299.02279663086</ele>
        <time>2011-01-15T09:42:15Z</time>
      </trkpt>
      <trkpt lat="47.19693" lon="5.60325">
        <ele>300.10162353516</ele>
        <time>2011-01-15T09:42:22Z</time>
      </trkpt>
      <trkpt lat="47.19687" lon="5.60319">
        <ele>300.48114013672</ele>
        <time>2011-01-15T09:42:26Z</time>
      </trkpt>
      <trkpt lat="47.19675" lon="5.60308">
        <ele>300.8591003418</ele>
        <time>2011-01-15T09:42:31Z</time>
      </trkpt>
      <trkpt lat="47.19663" lon="5.60294">
        <ele>300.74603271484</ele>
        <time>2011-01-15T09:42:36Z</time>
      </trkpt>
      <trkpt lat="47.1966" lon="5.60292">
        <ele>300.53140258789</ele>
        <time>2011-01-15T09:42:37Z</time>
      </trkpt>
      <trkpt lat="47.19654" lon="5.6028">
        <ele>300.41293334961</ele>
        <time>2011-01-15T09:42:41Z</time>
      </trkpt>
      <trkpt lat="47.1965" lon="5.60258">
        <ele>301.41754150391</ele>
        <time>2011-01-15T09:42:48Z</time>
      </trkpt>
      <trkpt lat="47.19645" lon="5.60245">
        <ele>301.56433105469</ele>
        <time>2011-01-15T09:42:52Z</time>
      </trkpt>
      <trkpt lat="47.19635" lon="5.60226">
        <ele>301.08026123047</ele>
        <time>2011-01-15T09:42:58Z</time>
      </trkpt>
      <trkpt lat="47.19622" lon="5.60206">
        <ele>300.12252807617</ele>
        <time>2011-01-15T09:43:03Z</time>
      </trkpt>
      <trkpt lat="47.1962" lon="5.60203">
        <ele>299.83929443359</ele>
        <time>2011-01-15T09:43:04Z</time>
      </trkpt>
      <trkpt lat="47.19609" lon="5.60189">
        <ele>298.80337524414</ele>
        <time>2011-01-15T09:43:10Z</time>
      </trkpt>
      <trkpt lat="47.19596" lon="5.60171">
        <ele>297.34158325195</ele>
        <time>2011-01-15T09:43:15Z</time>
      </trkpt>
      <trkpt lat="47.19592" lon="5.60149">
        <ele>298.46896362305</ele>
        <time>2011-01-15T09:43:19Z</time>
      </trkpt>
      <trkpt lat="47.19594" lon="5.6014">
        <ele>299.7317199707</ele>
        <time>2011-01-15T09:43:22Z</time>
      </trkpt>
      <trkpt lat="47.19602" lon="5.60132">
        <ele>302.28637695312</ele>
        <time>2011-01-15T09:43:27Z</time>
      </trkpt>
      <trkpt lat="47.19607" lon="5.60127">
        <ele>303.89633178711</ele>
        <time>2011-01-15T09:43:31Z</time>
      </trkpt>
      <trkpt lat="47.19609" lon="5.60123">
        <ele>304.75454711914</ele>
        <time>2011-01-15T09:43:34Z</time>
      </trkpt>
      <trkpt lat="47.19617" lon="5.60112">
        <ele>307.54473876953</ele>
        <time>2011-01-15T09:43:42Z</time>
      </trkpt>
      <trkpt lat="47.1962" lon="5.6011">
        <ele>308.50448608398</ele>
        <time>2011-01-15T09:43:45Z</time>
      </trkpt>
      <trkpt lat="47.19623" lon="5.60103">
        <ele>309.89907836914</ele>
        <time>2011-01-15T09:43:51Z</time>
      </trkpt>
      <trkpt lat="47.19627" lon="5.60094">
        <ele>311.74853515625</ele>
        <time>2011-01-15T09:43:59Z</time>
      </trkpt>
      <trkpt lat="47.1963" lon="5.6009">
        <ele>312.97213745117</ele>
        <time>2011-01-15T09:44:03Z</time>
      </trkpt>
      <trkpt lat="47.19635" lon="5.60084">
        <ele>314.63623046875</ele>
        <time>2011-01-15T09:44:08Z</time>
      </trkpt>
      <trkpt lat="47.19637" lon="5.60079">
        <ele>315.92581176758</ele>
        <time>2011-01-15T09:44:12Z</time>
      </trkpt>
      <trkpt lat="47.19644" lon="5.6007">
        <ele>319.04376220703</ele>
        <time>2011-01-15T09:44:20Z</time>
      </trkpt>
      <trkpt lat="47.19647" lon="5.60064">
        <ele>320.75213623047</ele>
        <time>2011-01-15T09:44:25Z</time>
      </trkpt>
      <trkpt lat="47.1965" lon="5.60059">
        <ele>322.18273925781</ele>
        <time>2011-01-15T09:44:30Z</time>
      </trkpt>
      <trkpt lat="47.19653" lon="5.60056">
        <ele>323.42739868164</ele>
        <time>2011-01-15T09:44:36Z</time>
      </trkpt>
      <trkpt lat="47.19657" lon="5.60052">
        <ele>325.05075073242</ele>
        <time>2011-01-15T09:44:42Z</time>
      </trkpt>
      <trkpt lat="47.19661" lon="5.60046">
        <ele>326.84902954102</ele>
        <time>2011-01-15T09:44:48Z</time>
      </trkpt>
      <trkpt lat="47.19664" lon="5.60038">
        <ele>328.96243286133</ele>
        <time>2011-01-15T09:44:54Z</time>
      </trkpt>
      <trkpt lat="47.19666" lon="5.60033">
        <ele>330.16647338867</ele>
        <time>2011-01-15T09:44:59Z</time>
      </trkpt>
      <trkpt lat="47.19667" lon="5.60026">
        <ele>331.859375</ele>
        <time>2011-01-15T09:45:04Z</time>
      </trkpt>
      <trkpt lat="47.1967" lon="5.60021">
        <ele>333.26504516602</ele>
        <time>2011-01-15T09:45:08Z</time>
      </trkpt>
      <trkpt lat="47.19671" lon="5.60018">
        <ele>334.07775878906</ele>
        <time>2011-01-15T09:45:10Z</time>
      </trkpt>
      <trkpt lat="47.19675" lon="5.60012">
        <ele>335.89129638672</ele>
        <time>2011-01-15T09:45:14Z</time>
      </trkpt>
      <trkpt lat="47.19681" lon="5.60002">
        <ele>338.88882446289</ele>
        <time>2011-01-15T09:45:21Z</time>
      </trkpt>
      <trkpt lat="47.19684" lon="5.59992">
        <ele>340.85797119141</ele>
        <time>2011-01-15T09:45:26Z</time>
      </trkpt>
      <trkpt lat="47.19687" lon="5.59987">
        <ele>341.84558105469</ele>
        <time>2011-01-15T09:45:29Z</time>
      </trkpt>
      <trkpt lat="47.19694" lon="5.59976">
        <ele>344.59732055664</ele>
        <time>2011-01-15T09:45:36Z</time>
      </trkpt>
      <trkpt lat="47.19698" lon="5.59968">
        <ele>346.24353027344</ele>
        <time>2011-01-15T09:45:40Z</time>
      </trkpt>
      <trkpt lat="47.19701" lon="5.59955">
        <ele>348.02117919922</ele>
        <time>2011-01-15T09:45:45Z</time>
      </trkpt>
      <trkpt lat="47.19704" lon="5.59947">
        <ele>349.37088012695</ele>
        <time>2011-01-15T09:45:48Z</time>
      </trkpt>
      <trkpt lat="47.19712" lon="5.59937">
        <ele>351.74456787109</ele>
        <time>2011-01-15T09:45:53Z</time>
      </trkpt>
      <trkpt lat="47.1972" lon="5.59924">
        <ele>354.47354125977</ele>
        <time>2011-01-15T09:45:58Z</time>
      </trkpt>
      <trkpt lat="47.1973" lon="5.59909">
        <ele>356.58972167969</ele>
        <time>2011-01-15T09:46:03Z</time>
      </trkpt>
      <trkpt lat="47.19731" lon="5.59906">
        <ele>356.75869750977</ele>
        <time>2011-01-15T09:46:04Z</time>
      </trkpt>
      <trkpt lat="47.19739" lon="5.59887">
        <ele>357.91683959961</ele>
        <time>2011-01-15T09:46:10Z</time>
      </trkpt>
      <trkpt lat="47.19746" lon="5.59876">
        <ele>358.83367919922</ele>
        <time>2011-01-15T09:46:13Z</time>
      </trkpt>
      <trkpt lat="47.19756" lon="5.59859">
        <ele>359.6828918457</ele>
        <time>2011-01-15T09:46:18Z</time>
      </trkpt>
      <trkpt lat="47.19766" lon="5.59844">
        <ele>360.10461425781</ele>
        <time>2011-01-15T09:46:24Z</time>
      </trkpt>
      <trkpt lat="47.19769" lon="5.59839">
        <ele>360.2236328125</ele>
        <time>2011-01-15T09:46:26Z</time>
      </trkpt>
      <trkpt lat="47.19782" lon="5.5982">
        <ele>359.93618774414</ele>
        <time>2011-01-15T09:46:33Z</time>
      </trkpt>
      <trkpt lat="47.19791" lon="5.5981">
        <ele>359.85446166992</ele>
        <time>2011-01-15T09:46:37Z</time>
      </trkpt>
      <trkpt lat="47.19794" lon="5.59804">
        <ele>359.76983642578</ele>
        <time>2011-01-15T09:46:39Z</time>
      </trkpt>
      <trkpt lat="47.19801" lon="5.59791">
        <ele>359.53979492188</ele>
        <time>2011-01-15T09:46:44Z</time>
      </trkpt>
      <trkpt lat="47.19802" lon="5.59788">
        <ele>359.51416015625</ele>
        <time>2011-01-15T09:46:45Z</time>
      </trkpt>
      <trkpt lat="47.19814" lon="5.59774">
        <ele>359.85540771484</ele>
        <time>2011-01-15T09:46:50Z</time>
      </trkpt>
      <trkpt lat="47.19819" lon="5.59757">
        <ele>359.56784057617</ele>
        <time>2011-01-15T09:46:55Z</time>
      </trkpt>
      <trkpt lat="47.19823" lon="5.59738">
        <ele>359.21240234375</ele>
        <time>2011-01-15T09:47:00Z</time>
      </trkpt>
      <trkpt lat="47.19832" lon="5.59727">
        <ele>360.01254272461</ele>
        <time>2011-01-15T09:47:05Z</time>
      </trkpt>
      <trkpt lat="47.19839" lon="5.59718">
        <ele>360.86190795898</ele>
        <time>2011-01-15T09:47:09Z</time>
      </trkpt>
      <trkpt lat="47.19844" lon="5.59708">
        <ele>361.62493896484</ele>
        <time>2011-01-15T09:47:14Z</time>
      </trkpt>
      <trkpt lat="47.1985" lon="5.59701">
        <ele>362.6474609375</ele>
        <time>2011-01-15T09:47:18Z</time>
      </trkpt>
      <trkpt lat="47.19856" lon="5.59687">
        <ele>363.53411865234</ele>
        <time>2011-01-15T09:47:24Z</time>
      </trkpt>
      <trkpt lat="47.19862" lon="5.59674">
        <ele>364.64331054688</ele>
        <time>2011-01-15T09:47:29Z</time>
      </trkpt>
      <trkpt lat="47.19865" lon="5.59669">
        <ele>365.17669677734</ele>
        <time>2011-01-15T09:47:31Z</time>
      </trkpt>
      <trkpt lat="47.19868" lon="5.59662">
        <ele>365.94061279297</ele>
        <time>2011-01-15T09:47:34Z</time>
      </trkpt>
      <trkpt lat="47.19877" lon="5.59649">
        <ele>368.23495483398</ele>
        <time>2011-01-15T09:47:40Z</time>
      </trkpt>
      <trkpt lat="47.19881" lon="5.59643">
        <ele>369.23889160156</ele>
        <time>2011-01-15T09:47:43Z</time>
      </trkpt>
      <trkpt lat="47.19888" lon="5.59633">
        <ele>370.78790283203</ele>
        <time>2011-01-15T09:47:48Z</time>
      </trkpt>
      <trkpt lat="47.19897" lon="5.59618">
        <ele>372.94918823242</ele>
        <time>2011-01-15T09:47:55Z</time>
      </trkpt>
      <trkpt lat="47.19899" lon="5.59613">
        <ele>373.37969970703</ele>
        <time>2011-01-15T09:47:57Z</time>
      </trkpt>
      <trkpt lat="47.19905" lon="5.59598">
        <ele>374.77774047852</ele>
        <time>2011-01-15T09:48:03Z</time>
      </trkpt>
      <trkpt lat="47.19915" lon="5.59589">
        <ele>376.6037902832</ele>
        <time>2011-01-15T09:48:08Z</time>
      </trkpt>
      <trkpt lat="47.1992" lon="5.59573">
        <ele>378.14984130859</ele>
        <time>2011-01-15T09:48:14Z</time>
      </trkpt>
      <trkpt lat="47.19926" lon="5.59564">
        <ele>379.48648071289</ele>
        <time>2011-01-15T09:48:18Z</time>
      </trkpt>
      <trkpt lat="47.1993" lon="5.59555">
        <ele>380.4931640625</ele>
        <time>2011-01-15T09:48:22Z</time>
      </trkpt>
      <trkpt lat="47.19934" lon="5.59549">
        <ele>381.47705078125</ele>
        <time>2011-01-15T09:48:26Z</time>
      </trkpt>
      <trkpt lat="47.19943" lon="5.59537">
        <ele>383.48599243164</ele>
        <time>2011-01-15T09:48:33Z</time>
      </trkpt>
      <trkpt lat="47.19948" lon="5.59527">
        <ele>384.54058837891</ele>
        <time>2011-01-15T09:48:37Z</time>
      </trkpt>
      <trkpt lat="47.19956" lon="5.59516">
        <ele>386.14453125</ele>
        <time>2011-01-15T09:48:42Z</time>
      </trkpt>
      <trkpt lat="47.19961" lon="5.59502">
        <ele>387.34133911133</ele>
        <time>2011-01-15T09:48:48Z</time>
      </trkpt>
      <trkpt lat="47.19965" lon="5.59492">
        <ele>388.28457641602</ele>
        <time>2011-01-15T09:48:52Z</time>
      </trkpt>
      <trkpt lat="47.19967" lon="5.59482">
        <ele>388.99450683594</ele>
        <time>2011-01-15T09:48:55Z</time>
      </trkpt>
      <trkpt lat="47.19977" lon="5.59465">
        <ele>390.79135131836</ele>
        <time>2011-01-15T09:49:01Z</time>
      </trkpt>
      <trkpt lat="47.19984" lon="5.59456">
        <ele>391.83767700195</ele>
        <time>2011-01-15T09:49:06Z</time>
      </trkpt>
      <trkpt lat="47.19985" lon="5.59461">
        <ele>391.78918457031</ele>
        <time>2011-01-15T09:49:10Z</time>
      </trkpt>
      <trkpt lat="47.19984" lon="5.59463">
        <ele>391.6266784668</ele>
        <time>2011-01-15T09:49:12Z</time>
      </trkpt>
      <trkpt lat="47.1998" lon="5.59474">
        <ele>390.92037963867</ele>
        <time>2011-01-15T09:49:17Z</time>
      </trkpt>
      <trkpt lat="47.19972" lon="5.59486">
        <ele>389.43872070312</ele>
        <time>2011-01-15T09:49:23Z</time>
      </trkpt>
      <trkpt lat="47.19969" lon="5.59492">
        <ele>388.83251953125</ele>
        <time>2011-01-15T09:49:25Z</time>
      </trkpt>
      <trkpt lat="47.19963" lon="5.59504">
        <ele>387.57791137695</ele>
        <time>2011-01-15T09:49:30Z</time>
      </trkpt>
      <trkpt lat="47.19962" lon="5.59509">
        <ele>387.21246337891</ele>
        <time>2011-01-15T09:49:32Z</time>
      </trkpt>
      <trkpt lat="47.19959" lon="5.59515">
        <ele>386.63616943359</ele>
        <time>2011-01-15T09:49:34Z</time>
      </trkpt>
      <trkpt lat="47.19956" lon="5.59522">
        <ele>385.96517944336</ele>
        <time>2011-01-15T09:49:37Z</time>
      </trkpt>
      <trkpt lat="47.1995" lon="5.59531">
        <ele>384.84680175781</ele>
        <time>2011-01-15T09:49:42Z</time>
      </trkpt>
      <trkpt lat="47.19949" lon="5.59534">
        <ele>384.4948425293</ele>
        <time>2011-01-15T09:49:44Z</time>
      </trkpt>
      <trkpt lat="47.19942" lon="5.59544">
        <ele>383.10925292969</ele>
        <time>2011-01-15T09:49:50Z</time>
      </trkpt>
      <trkpt lat="47.19938" lon="5.59552">
        <ele>382.03982543945</ele>
        <time>2011-01-15T09:49:54Z</time>
      </trkpt>
      <trkpt lat="47.19935" lon="5.59557">
        <ele>381.37420654297</ele>
        <time>2011-01-15T09:49:57Z</time>
      </trkpt>
      <trkpt lat="47.19938" lon="5.59549">
        <ele>382.10089111328</ele>
        <time>2011-01-15T09:50:02Z</time>
      </trkpt>
      <trkpt lat="47.19939" lon="5.59544">
        <ele>382.59045410156</ele>
        <time>2011-01-15T09:50:05Z</time>
      </trkpt>
      <trkpt lat="47.19941" lon="5.5954">
        <ele>382.99493408203</ele>
        <time>2011-01-15T09:50:08Z</time>
      </trkpt>
      <trkpt lat="47.19945" lon="5.59534">
        <ele>383.83764648438</ele>
        <time>2011-01-15T09:50:13Z</time>
      </trkpt>
      <trkpt lat="47.19947" lon="5.5953">
        <ele>384.39508056641</ele>
        <time>2011-01-15T09:50:16Z</time>
      </trkpt>
      <trkpt lat="47.19952" lon="5.5952">
        <ele>385.36242675781</ele>
        <time>2011-01-15T09:50:22Z</time>
      </trkpt>
      <trkpt lat="47.19953" lon="5.59515">
        <ele>385.77392578125</ele>
        <time>2011-01-15T09:50:25Z</time>
      </trkpt>
      <trkpt lat="47.19958" lon="5.59501">
        <ele>386.9841003418</ele>
        <time>2011-01-15T09:50:32Z</time>
      </trkpt>
      <trkpt lat="47.19963" lon="5.59493">
        <ele>388.04391479492</ele>
        <time>2011-01-15T09:50:37Z</time>
      </trkpt>
      <trkpt lat="47.19964" lon="5.59488">
        <ele>388.34762573242</ele>
        <time>2011-01-15T09:50:39Z</time>
      </trkpt>
      <trkpt lat="47.1997" lon="5.59477">
        <ele>389.55758666992</ele>
        <time>2011-01-15T09:50:44Z</time>
      </trkpt>
      <trkpt lat="47.19976" lon="5.59469">
        <ele>390.57223510742</ele>
        <time>2011-01-15T09:50:48Z</time>
      </trkpt>
      <trkpt lat="47.19983" lon="5.59456">
        <ele>391.71636962891</ele>
        <time>2011-01-15T09:50:54Z</time>
      </trkpt>
      <trkpt lat="47.19993" lon="5.59443">
        <ele>392.99844360352</ele>
        <time>2011-01-15T09:51:00Z</time>
      </trkpt>
      <trkpt lat="47.19995" lon="5.59434">
        <ele>393.33044433594</ele>
        <time>2011-01-15T09:51:03Z</time>
      </trkpt>
      <trkpt lat="47.19998" lon="5.59426">
        <ele>393.70922851562</ele>
        <time>2011-01-15T09:51:08Z</time>
      </trkpt>
      <trkpt lat="47.20003" lon="5.59424">
        <ele>394.09970092773</ele>
        <time>2011-01-15T09:51:12Z</time>
      </trkpt>
      <trkpt lat="47.20005" lon="5.59418">
        <ele>394.30783081055</ele>
        <time>2011-01-15T09:51:16Z</time>
      </trkpt>
      <trkpt lat="47.20007" lon="5.59412">
        <ele>394.37155151367</ele>
        <time>2011-01-15T09:51:23Z</time>
      </trkpt>
      <trkpt lat="47.20007" lon="5.59411">
        <ele>394.30953979492</ele>
        <time>2011-01-15T09:51:30Z</time>
      </trkpt>
      <trkpt lat="47.2001" lon="5.59416">
        <ele>394.61929321289</ele>
        <time>2011-01-15T09:51:45Z</time>
      </trkpt>
      <trkpt lat="47.20008" lon="5.59413">
        <ele>394.45031738281</ele>
        <time>2011-01-15T09:51:50Z</time>
      </trkpt>
      <trkpt lat="47.20004" lon="5.59407">
        <ele>394.09710693359</ele>
        <time>2011-01-15T09:52:00Z</time>
      </trkpt>
      <trkpt lat="47.20009" lon="5.59413">
        <ele>394.47491455078</ele>
        <time>2011-01-15T09:52:13Z</time>
      </trkpt>
      <trkpt lat="47.20007" lon="5.59413">
        <ele>394.37463378906</ele>
        <time>2011-01-15T09:52:31Z</time>
      </trkpt>
      <trkpt lat="47.20007" lon="5.59412">
        <ele>394.36071777344</ele>
        <time>2011-01-15T09:52:47Z</time>
      </trkpt>
      <trkpt lat="47.20003" lon="5.59406">
        <ele>394.04104614258</ele>
        <time>2011-01-15T09:53:00Z</time>
      </trkpt>
      <trkpt lat="47.20003" lon="5.59406">
        <ele>394.02374267578</ele>
        <time>2011-01-15T09:53:11Z</time>
      </trkpt>
      <trkpt lat="47.20005" lon="5.59408">
        <ele>394.17791748047</ele>
        <time>2011-01-15T09:53:45Z</time>
      </trkpt>
      <trkpt lat="47.20005" lon="5.59406">
        <ele>394.17013549805</ele>
        <time>2011-01-15T09:54:03Z</time>
      </trkpt>
      <trkpt lat="47.20006" lon="5.59411">
        <ele>394.28784179688</ele>
        <time>2011-01-15T09:54:24Z</time>
      </trkpt>
      <trkpt lat="47.20005" lon="5.59412">
        <ele>394.26168823242</ele>
        <time>2011-01-15T09:54:35Z</time>
      </trkpt>
      <trkpt lat="47.20005" lon="5.59411">
        <ele>394.24078369141</ele>
        <time>2011-01-15T09:54:46Z</time>
      </trkpt>
      <trkpt lat="47.20006" lon="5.59411">
        <ele>394.28411865234</ele>
        <time>2011-01-15T09:55:08Z</time>
      </trkpt>
      <trkpt lat="47.20005" lon="5.59409">
        <ele>394.16876220703</ele>
        <time>2011-01-15T09:55:30Z</time>
      </trkpt>
      <trkpt lat="47.20005" lon="5.5941">
        <ele>394.21844482422</ele>
        <time>2011-01-15T09:55:51Z</time>
      </trkpt>
      <trkpt lat="47.20008" lon="5.59415">
        <ele>394.46075439453</ele>
        <time>2011-01-15T09:56:09Z</time>
      </trkpt>
      <trkpt lat="47.20008" lon="5.59414">
        <ele>394.42016601562</ele>
        <time>2011-01-15T09:56:20Z</time>
      </trkpt>
      <trkpt lat="47.20006" lon="5.59409">
        <ele>394.25518798828</ele>
        <time>2011-01-15T09:56:27Z</time>
      </trkpt>
      <trkpt lat="47.20004" lon="5.59409">
        <ele>394.10906982422</ele>
        <time>2011-01-15T09:56:29Z</time>
      </trkpt>
      <trkpt lat="47.19993" lon="5.5941">
        <ele>393.46267700195</ele>
        <time>2011-01-15T09:56:35Z</time>
      </trkpt>
      <trkpt lat="47.1999" lon="5.59409">
        <ele>393.25579833984</ele>
        <time>2011-01-15T09:56:37Z</time>
      </trkpt>
      <trkpt lat="47.19978" lon="5.59405">
        <ele>392.43325805664</ele>
        <time>2011-01-15T09:56:43Z</time>
      </trkpt>
      <trkpt lat="47.1996" lon="5.59395">
        <ele>391.5</ele>
        <time>2011-01-15T09:56:51Z</time>
      </trkpt>
      <trkpt lat="47.19946" lon="5.59386">
        <ele>390.94018554688</ele>
        <time>2011-01-15T09:56:57Z</time>
      </trkpt>
      <trkpt lat="47.19937" lon="5.59381">
        <ele>390.65487670898</ele>
        <time>2011-01-15T09:57:01Z</time>
      </trkpt>
      <trkpt lat="47.19928" lon="5.59375">
        <ele>390.46865844727</ele>
        <time>2011-01-15T09:57:05Z</time>
      </trkpt>
      <trkpt lat="47.19915" lon="5.59368">
        <ele>390.26123046875</ele>
        <time>2011-01-15T09:57:10Z</time>
      </trkpt>
      <trkpt lat="47.19902" lon="5.59359">
        <ele>390.03887939453</ele>
        <time>2011-01-15T09:57:15Z</time>
      </trkpt>
      <trkpt lat="47.19889" lon="5.59351">
        <ele>389.99340820312</ele>
        <time>2011-01-15T09:57:20Z</time>
      </trkpt>
      <trkpt lat="47.19875" lon="5.59342">
        <ele>390.20935058594</ele>
        <time>2011-01-15T09:57:25Z</time>
      </trkpt>
      <trkpt lat="47.19867" lon="5.59335">
        <ele>390.67651367188</ele>
        <time>2011-01-15T09:57:29Z</time>
      </trkpt>
      <trkpt lat="47.19855" lon="5.59327">
        <ele>390.68072509766</ele>
        <time>2011-01-15T09:57:34Z</time>
      </trkpt>
      <trkpt lat="47.19842" lon="5.59317">
        <ele>390.70431518555</ele>
        <time>2011-01-15T09:57:39Z</time>
      </trkpt>
      <trkpt lat="47.19828" lon="5.59307">
        <ele>390.6780090332</ele>
        <time>2011-01-15T09:57:44Z</time>
      </trkpt>
      <trkpt lat="47.19811" lon="5.59296">
        <ele>390.14682006836</ele>
        <time>2011-01-15T09:57:51Z</time>
      </trkpt>
      <trkpt lat="47.19803" lon="5.59289">
        <ele>389.94485473633</ele>
        <time>2011-01-15T09:57:55Z</time>
      </trkpt>
      <trkpt lat="47.19793" lon="5.59281">
        <ele>389.66564941406</ele>
        <time>2011-01-15T09:58:00Z</time>
      </trkpt>
      <trkpt lat="47.19788" lon="5.59276">
        <ele>389.54501342773</ele>
        <time>2011-01-15T09:58:03Z</time>
      </trkpt>
      <trkpt lat="47.1978" lon="5.59267">
        <ele>389.33743286133</ele>
        <time>2011-01-15T09:58:07Z</time>
      </trkpt>
      <trkpt lat="47.19769" lon="5.59257">
        <ele>388.97280883789</ele>
        <time>2011-01-15T09:58:12Z</time>
      </trkpt>
      <trkpt lat="47.19757" lon="5.59242">
        <ele>388.37390136719</ele>
        <time>2011-01-15T09:58:18Z</time>
      </trkpt>
      <trkpt lat="47.19748" lon="5.59224">
        <ele>387.74060058594</ele>
        <time>2011-01-15T09:58:23Z</time>
      </trkpt>
      <trkpt lat="47.1974" lon="5.59211">
        <ele>386.78540039062</ele>
        <time>2011-01-15T09:58:27Z</time>
      </trkpt>
      <trkpt lat="47.19727" lon="5.59197">
        <ele>385.52426147461</ele>
        <time>2011-01-15T09:58:32Z</time>
      </trkpt>
      <trkpt lat="47.19715" lon="5.59182">
        <ele>384.73236083984</ele>
        <time>2011-01-15T09:58:37Z</time>
      </trkpt>
      <trkpt lat="47.19703" lon="5.59163">
        <ele>384.10177612305</ele>
        <time>2011-01-15T09:58:44Z</time>
      </trkpt>
      <trkpt lat="47.19692" lon="5.59148">
        <ele>383.67297363281</ele>
        <time>2011-01-15T09:58:49Z</time>
      </trkpt>
      <trkpt lat="47.1968" lon="5.59135">
        <ele>383.12915039062</ele>
        <time>2011-01-15T09:58:54Z</time>
      </trkpt>
      <trkpt lat="47.19672" lon="5.59124">
        <ele>382.92288208008</ele>
        <time>2011-01-15T09:58:58Z</time>
      </trkpt>
      <trkpt lat="47.19667" lon="5.59115">
        <ele>382.89767456055</ele>
        <time>2011-01-15T09:59:01Z</time>
      </trkpt>
      <trkpt lat="47.19653" lon="5.59095">
        <ele>381.9580078125</ele>
        <time>2011-01-15T09:59:08Z</time>
      </trkpt>
      <trkpt lat="47.19643" lon="5.59082">
        <ele>381.48141479492</ele>
        <time>2011-01-15T09:59:13Z</time>
      </trkpt>
      <trkpt lat="47.19633" lon="5.59066">
        <ele>380.4635925293</ele>
        <time>2011-01-15T09:59:19Z</time>
      </trkpt>
      <trkpt lat="47.19619" lon="5.59043">
        <ele>379.50915527344</ele>
        <time>2011-01-15T09:59:26Z</time>
      </trkpt>
      <trkpt lat="47.19607" lon="5.59028">
        <ele>379.09802246094</ele>
        <time>2011-01-15T09:59:31Z</time>
      </trkpt>
      <trkpt lat="47.19595" lon="5.59017">
        <ele>378.79098510742</ele>
        <time>2011-01-15T09:59:36Z</time>
      </trkpt>
      <trkpt lat="47.19583" lon="5.59014">
        <ele>378.27362060547</ele>
        <time>2011-01-15T09:59:41Z</time>
      </trkpt>
      <trkpt lat="47.19571" lon="5.59005">
        <ele>377.69329833984</ele>
        <time>2011-01-15T09:59:46Z</time>
      </trkpt>
      <trkpt lat="47.19562" lon="5.58993">
        <ele>377.32574462891</ele>
        <time>2011-01-15T09:59:51Z</time>
      </trkpt>
      <trkpt lat="47.19553" lon="5.58983">
        <ele>376.82092285156</ele>
        <time>2011-01-15T09:59:55Z</time>
      </trkpt>
      <trkpt lat="47.1954" lon="5.58968">
        <ele>376.36520385742</ele>
        <time>2011-01-15T10:00:01Z</time>
      </trkpt>
      <trkpt lat="47.19528" lon="5.58955">
        <ele>376.1162109375</ele>
        <time>2011-01-15T10:00:06Z</time>
      </trkpt>
      <trkpt lat="47.19521" lon="5.58941">
        <ele>376.41793823242</ele>
        <time>2011-01-15T10:00:10Z</time>
      </trkpt>
      <trkpt lat="47.19518" lon="5.58918">
        <ele>377.37182617188</ele>
        <time>2011-01-15T10:00:17Z</time>
      </trkpt>
      <trkpt lat="47.19522" lon="5.58904">
        <ele>378.13677978516</ele>
        <time>2011-01-15T10:00:22Z</time>
      </trkpt>
      <trkpt lat="47.19526" lon="5.58888">
        <ele>378.90512084961</ele>
        <time>2011-01-15T10:00:27Z</time>
      </trkpt>
      <trkpt lat="47.19527" lon="5.58873">
        <ele>379.5869140625</ele>
        <time>2011-01-15T10:00:32Z</time>
      </trkpt>
      <trkpt lat="47.19528" lon="5.5887">
        <ele>379.71124267578</ele>
        <time>2011-01-15T10:00:33Z</time>
      </trkpt>
      <trkpt lat="47.19533" lon="5.58847">
        <ele>380.64556884766</ele>
        <time>2011-01-15T10:00:39Z</time>
      </trkpt>
      <trkpt lat="47.19533" lon="5.58843">
        <ele>380.8044128418</ele>
        <time>2011-01-15T10:00:40Z</time>
      </trkpt>
      <trkpt lat="47.19535" lon="5.5882">
        <ele>380.99282836914</ele>
        <time>2011-01-15T10:00:46Z</time>
      </trkpt>
      <trkpt lat="47.19535" lon="5.58816">
        <ele>380.96194458008</ele>
        <time>2011-01-15T10:00:47Z</time>
      </trkpt>
      <trkpt lat="47.19529" lon="5.588">
        <ele>380.91159057617</ele>
        <time>2011-01-15T10:00:52Z</time>
      </trkpt>
      <trkpt lat="47.19524" lon="5.58784">
        <ele>380.83319091797</ele>
        <time>2011-01-15T10:00:57Z</time>
      </trkpt>
      <trkpt lat="47.19518" lon="5.58776">
        <ele>380.88696289062</ele>
        <time>2011-01-15T10:01:01Z</time>
      </trkpt>
      <trkpt lat="47.19515" lon="5.58773">
        <ele>380.90701293945</ele>
        <time>2011-01-15T10:01:02Z</time>
      </trkpt>
      <trkpt lat="47.19503" lon="5.58752">
        <ele>380.93960571289</ele>
        <time>2011-01-15T10:01:08Z</time>
      </trkpt>
      <trkpt lat="47.19493" lon="5.58737">
        <ele>380.55590820312</ele>
        <time>2011-01-15T10:01:13Z</time>
      </trkpt>
      <trkpt lat="47.19483" lon="5.58722">
        <ele>380.05877685547</ele>
        <time>2011-01-15T10:01:18Z</time>
      </trkpt>
      <trkpt lat="47.19481" lon="5.58718">
        <ele>379.9765625</ele>
        <time>2011-01-15T10:01:19Z</time>
      </trkpt>
      <trkpt lat="47.19471" lon="5.58702">
        <ele>379.64306640625</ele>
        <time>2011-01-15T10:01:25Z</time>
      </trkpt>
      <trkpt lat="47.19458" lon="5.58682">
        <ele>379.40811157227</ele>
        <time>2011-01-15T10:01:32Z</time>
      </trkpt>
      <trkpt lat="47.1945" lon="5.5867">
        <ele>379.37448120117</ele>
        <time>2011-01-15T10:01:36Z</time>
      </trkpt>
      <trkpt lat="47.19444" lon="5.58661">
        <ele>379.43759155273</ele>
        <time>2011-01-15T10:01:39Z</time>
      </trkpt>
      <trkpt lat="47.19434" lon="5.58643">
        <ele>379.60397338867</ele>
        <time>2011-01-15T10:01:45Z</time>
      </trkpt>
      <trkpt lat="47.19421" lon="5.58628">
        <ele>379.57336425781</ele>
        <time>2011-01-15T10:01:50Z</time>
      </trkpt>
      <trkpt lat="47.19409" lon="5.58614">
        <ele>378.68646240234</ele>
        <time>2011-01-15T10:01:55Z</time>
      </trkpt>
      <trkpt lat="47.19399" lon="5.58602">
        <ele>377.68280029297</ele>
        <time>2011-01-15T10:01:59Z</time>
      </trkpt>
      <trkpt lat="47.1939" lon="5.58592">
        <ele>376.7060546875</ele>
        <time>2011-01-15T10:02:04Z</time>
      </trkpt>
      <trkpt lat="47.19383" lon="5.58589">
        <ele>375.91986083984</ele>
        <time>2011-01-15T10:02:07Z</time>
      </trkpt>
      <trkpt lat="47.19371" lon="5.5858">
        <ele>374.36651611328</ele>
        <time>2011-01-15T10:02:12Z</time>
      </trkpt>
      <trkpt lat="47.19362" lon="5.58573">
        <ele>372.9423828125</ele>
        <time>2011-01-15T10:02:15Z</time>
      </trkpt>
      <trkpt lat="47.19344" lon="5.58563">
        <ele>370.45852661133</ele>
        <time>2011-01-15T10:02:21Z</time>
      </trkpt>
      <trkpt lat="47.19333" lon="5.58556">
        <ele>368.97894287109</ele>
        <time>2011-01-15T10:02:26Z</time>
      </trkpt>
      <trkpt lat="47.19321" lon="5.58548">
        <ele>367.73715209961</ele>
        <time>2011-01-15T10:02:31Z</time>
      </trkpt>
      <trkpt lat="47.19318" lon="5.58546">
        <ele>367.49493408203</ele>
        <time>2011-01-15T10:02:32Z</time>
      </trkpt>
      <trkpt lat="47.19308" lon="5.58539">
        <ele>366.84457397461</ele>
        <time>2011-01-15T10:02:36Z</time>
      </trkpt>
      <trkpt lat="47.19291" lon="5.58528">
        <ele>366.30044555664</ele>
        <time>2011-01-15T10:02:41Z</time>
      </trkpt>
      <trkpt lat="47.19279" lon="5.5852">
        <ele>366.36947631836</ele>
        <time>2011-01-15T10:02:45Z</time>
      </trkpt>
      <trkpt lat="47.19268" lon="5.58506">
        <ele>367.2770690918</ele>
        <time>2011-01-15T10:02:49Z</time>
      </trkpt>
      <trkpt lat="47.19258" lon="5.58497">
        <ele>367.94738769531</ele>
        <time>2011-01-15T10:02:53Z</time>
      </trkpt>
      <trkpt lat="47.19244" lon="5.5849">
        <ele>367.94512939453</ele>
        <time>2011-01-15T10:02:58Z</time>
      </trkpt>
      <trkpt lat="47.19237" lon="5.58485">
        <ele>367.71850585938</ele>
        <time>2011-01-15T10:03:02Z</time>
      </trkpt>
      <trkpt lat="47.19225" lon="5.58478">
        <ele>367.41693115234</ele>
        <time>2011-01-15T10:03:08Z</time>
      </trkpt>
      <trkpt lat="47.19218" lon="5.58473">
        <ele>367.36315917969</ele>
        <time>2011-01-15T10:03:12Z</time>
      </trkpt>
      <trkpt lat="47.1921" lon="5.58464">
        <ele>367.51754760742</ele>
        <time>2011-01-15T10:03:17Z</time>
      </trkpt>
      <trkpt lat="47.19208" lon="5.58462">
        <ele>367.56393432617</ele>
        <time>2011-01-15T10:03:18Z</time>
      </trkpt>
      <trkpt lat="47.19196" lon="5.5845">
        <ele>367.89477539062</ele>
        <time>2011-01-15T10:03:24Z</time>
      </trkpt>
      <trkpt lat="47.19186" lon="5.58437">
        <ele>368.53860473633</ele>
        <time>2011-01-15T10:03:29Z</time>
      </trkpt>
      <trkpt lat="47.19184" lon="5.58435">
        <ele>368.72015380859</ele>
        <time>2011-01-15T10:03:30Z</time>
      </trkpt>
      <trkpt lat="47.19174" lon="5.58419">
        <ele>369.80252075195</ele>
        <time>2011-01-15T10:03:35Z</time>
      </trkpt>
      <trkpt lat="47.19172" lon="5.58414">
        <ele>370.02600097656</ele>
        <time>2011-01-15T10:03:37Z</time>
      </trkpt>
      <trkpt lat="47.19165" lon="5.58395">
        <ele>370.10385131836</ele>
        <time>2011-01-15T10:03:43Z</time>
      </trkpt>
      <trkpt lat="47.19156" lon="5.58379">
        <ele>369.44152832031</ele>
        <time>2011-01-15T10:03:49Z</time>
      </trkpt>
      <trkpt lat="47.19152" lon="5.58372">
        <ele>369.27691650391</ele>
        <time>2011-01-15T10:03:52Z</time>
      </trkpt>
      <trkpt lat="47.19144" lon="5.58362">
        <ele>369.1669921875</ele>
        <time>2011-01-15T10:03:56Z</time>
      </trkpt>
      <trkpt lat="47.19133" lon="5.5835">
        <ele>369.30435180664</ele>
        <time>2011-01-15T10:04:01Z</time>
      </trkpt>
      <trkpt lat="47.19119" lon="5.5834">
        <ele>369.71859741211</ele>
        <time>2011-01-15T10:04:07Z</time>
      </trkpt>
      <trkpt lat="47.19107" lon="5.58332">
        <ele>370.27633666992</ele>
        <time>2011-01-15T10:04:12Z</time>
      </trkpt>
      <trkpt lat="47.19096" lon="5.58326">
        <ele>370.15933227539</ele>
        <time>2011-01-15T10:04:16Z</time>
      </trkpt>
      <trkpt lat="47.19085" lon="5.58319">
        <ele>370.16790771484</ele>
        <time>2011-01-15T10:04:21Z</time>
      </trkpt>
      <trkpt lat="47.19072" lon="5.58307">
        <ele>368.27673339844</ele>
        <time>2011-01-15T10:04:27Z</time>
      </trkpt>
      <trkpt lat="47.19059" lon="5.58296">
        <ele>366.67437744141</ele>
        <time>2011-01-15T10:04:32Z</time>
      </trkpt>
      <trkpt lat="47.19047" lon="5.58287">
        <ele>365.40795898438</ele>
        <time>2011-01-15T10:04:37Z</time>
      </trkpt>
      <trkpt lat="47.19036" lon="5.58273">
        <ele>365.09161376953</ele>
        <time>2011-01-15T10:04:42Z</time>
      </trkpt>
      <trkpt lat="47.19025" lon="5.58263">
        <ele>364.78521728516</ele>
        <time>2011-01-15T10:04:47Z</time>
      </trkpt>
      <trkpt lat="47.19013" lon="5.58258">
        <ele>364.11260986328</ele>
        <time>2011-01-15T10:04:52Z</time>
      </trkpt>
      <trkpt lat="47.19011" lon="5.58256">
        <ele>364.11502075195</ele>
        <time>2011-01-15T10:04:53Z</time>
      </trkpt>
      <trkpt lat="47.18999" lon="5.58246">
        <ele>363.70053100586</ele>
        <time>2011-01-15T10:04:58Z</time>
      </trkpt>
      <trkpt lat="47.1899" lon="5.58234">
        <ele>361.89459228516</ele>
        <time>2011-01-15T10:05:02Z</time>
      </trkpt>
      <trkpt lat="47.1898" lon="5.5822">
        <ele>360.34518432617</ele>
        <time>2011-01-15T10:05:07Z</time>
      </trkpt>
      <trkpt lat="47.18972" lon="5.58209">
        <ele>359.3337097168</ele>
        <time>2011-01-15T10:05:11Z</time>
      </trkpt>
      <trkpt lat="47.18966" lon="5.58203">
        <ele>358.6120300293</ele>
        <time>2011-01-15T10:05:13Z</time>
      </trkpt>
      <trkpt lat="47.18953" lon="5.5819">
        <ele>357.27648925781</ele>
        <time>2011-01-15T10:05:18Z</time>
      </trkpt>
      <trkpt lat="47.18938" lon="5.58179">
        <ele>356.21566772461</ele>
        <time>2011-01-15T10:05:23Z</time>
      </trkpt>
      <trkpt lat="47.18924" lon="5.58166">
        <ele>355.69250488281</ele>
        <time>2011-01-15T10:05:28Z</time>
      </trkpt>
      <trkpt lat="47.18909" lon="5.58148">
        <ele>353.73812866211</ele>
        <time>2011-01-15T10:05:34Z</time>
      </trkpt>
      <trkpt lat="47.18896" lon="5.58135">
        <ele>352.10711669922</ele>
        <time>2011-01-15T10:05:39Z</time>
      </trkpt>
      <trkpt lat="47.18884" lon="5.58124">
        <ele>350.65777587891</ele>
        <time>2011-01-15T10:05:44Z</time>
      </trkpt>
      <trkpt lat="47.18878" lon="5.5812">
        <ele>350.12319946289</ele>
        <time>2011-01-15T10:05:46Z</time>
      </trkpt>
      <trkpt lat="47.18864" lon="5.58108">
        <ele>349.14358520508</ele>
        <time>2011-01-15T10:05:51Z</time>
      </trkpt>
      <trkpt lat="47.18851" lon="5.58094">
        <ele>348.66223144531</ele>
        <time>2011-01-15T10:05:56Z</time>
      </trkpt>
      <trkpt lat="47.18841" lon="5.58082">
        <ele>348.5637512207</ele>
        <time>2011-01-15T10:06:01Z</time>
      </trkpt>
      <trkpt lat="47.18831" lon="5.58071">
        <ele>347.22171020508</ele>
        <time>2011-01-15T10:06:05Z</time>
      </trkpt>
      <trkpt lat="47.18819" lon="5.58063">
        <ele>344.84371948242</ele>
        <time>2011-01-15T10:06:09Z</time>
      </trkpt>
      <trkpt lat="47.18806" lon="5.58049">
        <ele>342.6930847168</ele>
        <time>2011-01-15T10:06:14Z</time>
      </trkpt>
      <trkpt lat="47.18792" lon="5.58036">
        <ele>340.74615478516</ele>
        <time>2011-01-15T10:06:19Z</time>
      </trkpt>
      <trkpt lat="47.18775" lon="5.5802">
        <ele>339.19812011719</ele>
        <time>2011-01-15T10:06:25Z</time>
      </trkpt>
      <trkpt lat="47.18764" lon="5.58007">
        <ele>338.75192260742</ele>
        <time>2011-01-15T10:06:30Z</time>
      </trkpt>
      <trkpt lat="47.18751" lon="5.57996">
        <ele>337.75390625</ele>
        <time>2011-01-15T10:06:35Z</time>
      </trkpt>
      <trkpt lat="47.18742" lon="5.57987">
        <ele>335.35919189453</ele>
        <time>2011-01-15T10:06:39Z</time>
      </trkpt>
      <trkpt lat="47.18729" lon="5.57974">
        <ele>332.1572265625</ele>
        <time>2011-01-15T10:06:44Z</time>
      </trkpt>
      <trkpt lat="47.18715" lon="5.57961">
        <ele>329.57641601562</ele>
        <time>2011-01-15T10:06:49Z</time>
      </trkpt>
      <trkpt lat="47.1871" lon="5.57957">
        <ele>328.65478515625</ele>
        <time>2011-01-15T10:06:51Z</time>
      </trkpt>
      <trkpt lat="47.18692" lon="5.57938">
        <ele>326.5263671875</ele>
        <time>2011-01-15T10:06:58Z</time>
      </trkpt>
      <trkpt lat="47.18682" lon="5.57929">
        <ele>325.7311706543</ele>
        <time>2011-01-15T10:07:01Z</time>
      </trkpt>
      <trkpt lat="47.1867" lon="5.57917">
        <ele>325.23794555664</ele>
        <time>2011-01-15T10:07:05Z</time>
      </trkpt>
      <trkpt lat="47.18659" lon="5.57906">
        <ele>322.84994506836</ele>
        <time>2011-01-15T10:07:09Z</time>
      </trkpt>
      <trkpt lat="47.18643" lon="5.57892">
        <ele>319.62115478516</ele>
        <time>2011-01-15T10:07:14Z</time>
      </trkpt>
      <trkpt lat="47.18626" lon="5.57877">
        <ele>316.91500854492</ele>
        <time>2011-01-15T10:07:20Z</time>
      </trkpt>
      <trkpt lat="47.18608" lon="5.57863">
        <ele>314.95422363281</ele>
        <time>2011-01-15T10:07:26Z</time>
      </trkpt>
      <trkpt lat="47.18597" lon="5.57852">
        <ele>314.19567871094</ele>
        <time>2011-01-15T10:07:30Z</time>
      </trkpt>
      <trkpt lat="47.18584" lon="5.57833">
        <ele>314.00552368164</ele>
        <time>2011-01-15T10:07:35Z</time>
      </trkpt>
      <trkpt lat="47.18573" lon="5.57813">
        <ele>311.29849243164</ele>
        <time>2011-01-15T10:07:41Z</time>
      </trkpt>
      <trkpt lat="47.18564" lon="5.57794">
        <ele>309.48574829102</ele>
        <time>2011-01-15T10:07:46Z</time>
      </trkpt>
      <trkpt lat="47.18557" lon="5.57778">
        <ele>308.4094543457</ele>
        <time>2011-01-15T10:07:50Z</time>
      </trkpt>
      <trkpt lat="47.18543" lon="5.5776">
        <ele>307.53518676758</ele>
        <time>2011-01-15T10:07:56Z</time>
      </trkpt>
      <trkpt lat="47.18535" lon="5.57753">
        <ele>307.38952636719</ele>
        <time>2011-01-15T10:07:59Z</time>
      </trkpt>
      <trkpt lat="47.18525" lon="5.5774">
        <ele>306.26211547852</ele>
        <time>2011-01-15T10:08:04Z</time>
      </trkpt>
      <trkpt lat="47.18517" lon="5.5773">
        <ele>305.17074584961</ele>
        <time>2011-01-15T10:08:07Z</time>
      </trkpt>
      <trkpt lat="47.18502" lon="5.57713">
        <ele>303.48306274414</ele>
        <time>2011-01-15T10:08:13Z</time>
      </trkpt>
      <trkpt lat="47.18494" lon="5.57704">
        <ele>301.45620727539</ele>
        <time>2011-01-15T10:08:17Z</time>
      </trkpt>
      <trkpt lat="47.18483" lon="5.57691">
        <ele>298.06591796875</ele>
        <time>2011-01-15T10:08:22Z</time>
      </trkpt>
      <trkpt lat="47.1848" lon="5.57688">
        <ele>297.39221191406</ele>
        <time>2011-01-15T10:08:23Z</time>
      </trkpt>
      <trkpt lat="47.18475" lon="5.57676">
        <ele>295.68795776367</ele>
        <time>2011-01-15T10:08:28Z</time>
      </trkpt>
      <trkpt lat="47.18475" lon="5.57671">
        <ele>295.36349487305</ele>
        <time>2011-01-15T10:08:29Z</time>
      </trkpt>
      <trkpt lat="47.18469" lon="5.57643">
        <ele>290.85546875</ele>
        <time>2011-01-15T10:08:35Z</time>
      </trkpt>
      <trkpt lat="47.18465" lon="5.5763">
        <ele>288.28189086914</ele>
        <time>2011-01-15T10:08:39Z</time>
      </trkpt>
      <trkpt lat="47.18467" lon="5.57623">
        <ele>287.68151855469</ele>
        <time>2011-01-15T10:08:43Z</time>
      </trkpt>
      <trkpt lat="47.18475" lon="5.57621">
        <ele>288.4814453125</ele>
        <time>2011-01-15T10:08:48Z</time>
      </trkpt>
      <trkpt lat="47.18484" lon="5.5762">
        <ele>289.62844848633</ele>
        <time>2011-01-15T10:08:52Z</time>
      </trkpt>
      <trkpt lat="47.18499" lon="5.57619">
        <ele>291.38305664062</ele>
        <time>2011-01-15T10:08:57Z</time>
      </trkpt>
      <trkpt lat="47.18513" lon="5.57615">
        <ele>291.05810546875</ele>
        <time>2011-01-15T10:09:02Z</time>
      </trkpt>
      <trkpt lat="47.18518" lon="5.57613">
        <ele>290.89932250977</ele>
        <time>2011-01-15T10:09:04Z</time>
      </trkpt>
      <trkpt lat="47.18531" lon="5.57605">
        <ele>289.94528198242</ele>
        <time>2011-01-15T10:09:10Z</time>
      </trkpt>
      <trkpt lat="47.1854" lon="5.57601">
        <ele>289.74301147461</ele>
        <time>2011-01-15T10:09:13Z</time>
      </trkpt>
      <trkpt lat="47.18563" lon="5.576">
        <ele>290.17803955078</ele>
        <time>2011-01-15T10:09:20Z</time>
      </trkpt>
      <trkpt lat="47.18566" lon="5.57601">
        <ele>290.32385253906</ele>
        <time>2011-01-15T10:09:21Z</time>
      </trkpt>
      <trkpt lat="47.18574" lon="5.57598">
        <ele>290.17120361328</ele>
        <time>2011-01-15T10:09:26Z</time>
      </trkpt>
      <trkpt lat="47.1858" lon="5.57592">
        <ele>289.71569824219</ele>
        <time>2011-01-15T10:09:30Z</time>
      </trkpt>
      <trkpt lat="47.18586" lon="5.57584">
        <ele>289.42495727539</ele>
        <time>2011-01-15T10:09:34Z</time>
      </trkpt>
      <trkpt lat="47.18589" lon="5.57581">
        <ele>289.74172973633</ele>
        <time>2011-01-15T10:09:36Z</time>
      </trkpt>
      <trkpt lat="47.18593" lon="5.57566">
        <ele>290.92309570312</ele>
        <time>2011-01-15T10:09:43Z</time>
      </trkpt>
      <trkpt lat="47.18595" lon="5.57563">
        <ele>291.29220581055</ele>
        <time>2011-01-15T10:09:45Z</time>
      </trkpt>
      <trkpt lat="47.18598" lon="5.57558">
        <ele>291.95733642578</ele>
        <time>2011-01-15T10:09:51Z</time>
      </trkpt>
      <trkpt lat="47.18599" lon="5.57557">
        <ele>292.14559936523</ele>
        <time>2011-01-15T10:09:52Z</time>
      </trkpt>
      <trkpt lat="47.18603" lon="5.57554">
        <ele>292.79162597656</ele>
        <time>2011-01-15T10:10:01Z</time>
      </trkpt>
      <trkpt lat="47.18605" lon="5.57559">
        <ele>292.80432128906</ele>
        <time>2011-01-15T10:10:09Z</time>
      </trkpt>
      <trkpt lat="47.18605" lon="5.5756">
        <ele>292.70709228516</ele>
        <time>2011-01-15T10:10:16Z</time>
      </trkpt>
      <trkpt lat="47.18604" lon="5.57558">
        <ele>292.63412475586</ele>
        <time>2011-01-15T10:10:37Z</time>
      </trkpt>
      <trkpt lat="47.18605" lon="5.5756">
        <ele>292.71377563477</ele>
        <time>2011-01-15T10:10:42Z</time>
      </trkpt>
      <trkpt lat="47.18603" lon="5.57559">
        <ele>292.50848388672</ele>
        <time>2011-01-15T10:10:48Z</time>
      </trkpt>
      <trkpt lat="47.18605" lon="5.57561">
        <ele>292.69458007812</ele>
        <time>2011-01-15T10:11:02Z</time>
      </trkpt>
      <trkpt lat="47.18607" lon="5.57562">
        <ele>292.73254394531</ele>
        <time>2011-01-15T10:11:09Z</time>
      </trkpt>
      <trkpt lat="47.18608" lon="5.57561">
        <ele>292.91400146484</ele>
        <time>2011-01-15T10:11:15Z</time>
      </trkpt>
      <trkpt lat="47.18611" lon="5.57565">
        <ele>293.08831787109</ele>
        <time>2011-01-15T10:11:22Z</time>
      </trkpt>
      <trkpt lat="47.1861" lon="5.57561">
        <ele>293.25897216797</ele>
        <time>2011-01-15T10:11:28Z</time>
      </trkpt>
      <trkpt lat="47.18607" lon="5.57552">
        <ele>293.41748046875</ele>
        <time>2011-01-15T10:11:35Z</time>
      </trkpt>
      <trkpt lat="47.18604" lon="5.57545">
        <ele>293.40173339844</ele>
        <time>2011-01-15T10:11:42Z</time>
      </trkpt>
      <trkpt lat="47.18601" lon="5.5754">
        <ele>293.3210144043</ele>
        <time>2011-01-15T10:11:50Z</time>
      </trkpt>
      <trkpt lat="47.18594" lon="5.57536">
        <ele>292.62530517578</ele>
        <time>2011-01-15T10:11:59Z</time>
      </trkpt>
      <trkpt lat="47.1859" lon="5.57534">
        <ele>292.18365478516</ele>
        <time>2011-01-15T10:12:07Z</time>
      </trkpt>
      <trkpt lat="47.18591" lon="5.57533">
        <ele>292.39749145508</ele>
        <time>2011-01-15T10:12:15Z</time>
      </trkpt>
      <trkpt lat="47.18588" lon="5.57534">
        <ele>291.9778137207</ele>
        <time>2011-01-15T10:12:20Z</time>
      </trkpt>
      <trkpt lat="47.18583" lon="5.57533">
        <ele>291.40634155273</ele>
        <time>2011-01-15T10:12:25Z</time>
      </trkpt>
      <trkpt lat="47.1858" lon="5.57531">
        <ele>291.13702392578</ele>
        <time>2011-01-15T10:12:31Z</time>
      </trkpt>
      <trkpt lat="47.18573" lon="5.57528">
        <ele>290.47085571289</ele>
        <time>2011-01-15T10:12:39Z</time>
      </trkpt>
      <trkpt lat="47.18568" lon="5.57522">
        <ele>290.0859375</ele>
        <time>2011-01-15T10:12:46Z</time>
      </trkpt>
      <trkpt lat="47.18566" lon="5.57517">
        <ele>289.86703491211</ele>
        <time>2011-01-15T10:12:54Z</time>
      </trkpt>
      <trkpt lat="47.18563" lon="5.57521">
        <ele>289.39590454102</ele>
        <time>2011-01-15T10:13:09Z</time>
      </trkpt>
      <trkpt lat="47.18562" lon="5.57525">
        <ele>289.22708129883</ele>
        <time>2011-01-15T10:13:21Z</time>
      </trkpt>
      <trkpt lat="47.18563" lon="5.5753">
        <ele>289.23373413086</ele>
        <time>2011-01-15T10:13:31Z</time>
      </trkpt>
      <trkpt lat="47.1856" lon="5.57526">
        <ele>288.9375</ele>
        <time>2011-01-15T10:13:38Z</time>
      </trkpt>
      <trkpt lat="47.18556" lon="5.57521">
        <ele>288.5361328125</ele>
        <time>2011-01-15T10:13:45Z</time>
      </trkpt>
      <trkpt lat="47.18553" lon="5.57517">
        <ele>288.21514892578</ele>
        <time>2011-01-15T10:13:47Z</time>
      </trkpt>
      <trkpt lat="47.18544" lon="5.57507">
        <ele>286.97830200195</ele>
        <time>2011-01-15T10:13:53Z</time>
      </trkpt>
      <trkpt lat="47.18541" lon="5.57504">
        <ele>286.49816894531</ele>
        <time>2011-01-15T10:13:55Z</time>
      </trkpt>
      <trkpt lat="47.18535" lon="5.57497">
        <ele>285.92288208008</ele>
        <time>2011-01-15T10:13:59Z</time>
      </trkpt>
      <trkpt lat="47.18528" lon="5.57481">
        <ele>286.85043334961</ele>
        <time>2011-01-15T10:14:05Z</time>
      </trkpt>
      <trkpt lat="47.18522" lon="5.57464">
        <ele>287.60360717773</ele>
        <time>2011-01-15T10:14:10Z</time>
      </trkpt>
      <trkpt lat="47.18514" lon="5.57445">
        <ele>287.85235595703</ele>
        <time>2011-01-15T10:14:16Z</time>
      </trkpt>
      <trkpt lat="47.18503" lon="5.57423">
        <ele>287.3469543457</ele>
        <time>2011-01-15T10:14:22Z</time>
      </trkpt>
      <trkpt lat="47.18499" lon="5.57404">
        <ele>288.40008544922</ele>
        <time>2011-01-15T10:14:27Z</time>
      </trkpt>
      <trkpt lat="47.18496" lon="5.57381">
        <ele>290.44741821289</ele>
        <time>2011-01-15T10:14:34Z</time>
      </trkpt>
      <trkpt lat="47.18496" lon="5.57359">
        <ele>293.19833374023</ele>
        <time>2011-01-15T10:14:40Z</time>
      </trkpt>
      <trkpt lat="47.18493" lon="5.5734">
        <ele>294.69671630859</ele>
        <time>2011-01-15T10:14:46Z</time>
      </trkpt>
      <trkpt lat="47.18491" lon="5.57325">
        <ele>296.47653198242</ele>
        <time>2011-01-15T10:14:51Z</time>
      </trkpt>
      <trkpt lat="47.1849" lon="5.57317">
        <ele>297.255859375</ele>
        <time>2011-01-15T10:14:54Z</time>
      </trkpt>
      <trkpt lat="47.18489" lon="5.57298">
        <ele>299.85485839844</ele>
        <time>2011-01-15T10:15:01Z</time>
      </trkpt>
      <trkpt lat="47.18485" lon="5.57282">
        <ele>301.01150512695</ele>
        <time>2011-01-15T10:15:07Z</time>
      </trkpt>
      <trkpt lat="47.18485" lon="5.57279">
        <ele>301.27996826172</ele>
        <time>2011-01-15T10:15:08Z</time>
      </trkpt>
      <trkpt lat="47.18479" lon="5.57265">
        <ele>301.49716186523</ele>
        <time>2011-01-15T10:15:14Z</time>
      </trkpt>
      <trkpt lat="47.18475" lon="5.57253">
        <ele>301.80743408203</ele>
        <time>2011-01-15T10:15:18Z</time>
      </trkpt>
      <trkpt lat="47.18471" lon="5.57238">
        <ele>302.8293762207</ele>
        <time>2011-01-15T10:15:23Z</time>
      </trkpt>
      <trkpt lat="47.1847" lon="5.57228">
        <ele>304.02856445312</ele>
        <time>2011-01-15T10:15:26Z</time>
      </trkpt>
      <trkpt lat="47.18466" lon="5.57215">
        <ele>304.89205932617</ele>
        <time>2011-01-15T10:15:31Z</time>
      </trkpt>
      <trkpt lat="47.18463" lon="5.57205">
        <ele>305.49047851562</ele>
        <time>2011-01-15T10:15:35Z</time>
      </trkpt>
      <trkpt lat="47.18458" lon="5.57197">
        <ele>304.87905883789</ele>
        <time>2011-01-15T10:15:39Z</time>
      </trkpt>
      <trkpt lat="47.18451" lon="5.57182">
        <ele>305.02166748047</ele>
        <time>2011-01-15T10:15:45Z</time>
      </trkpt>
      <trkpt lat="47.18444" lon="5.57162">
        <ele>305.43249511719</ele>
        <time>2011-01-15T10:15:51Z</time>
      </trkpt>
      <trkpt lat="47.18439" lon="5.57149">
        <ele>305.36071777344</ele>
        <time>2011-01-15T10:15:55Z</time>
      </trkpt>
      <trkpt lat="47.18433" lon="5.57132">
        <ele>305.54754638672</ele>
        <time>2011-01-15T10:16:01Z</time>
      </trkpt>
      <trkpt lat="47.18431" lon="5.57125">
        <ele>305.89422607422</ele>
        <time>2011-01-15T10:16:03Z</time>
      </trkpt>
      <trkpt lat="47.18431" lon="5.571">
        <ele>309.37118530273</ele>
        <time>2011-01-15T10:16:09Z</time>
      </trkpt>
      <trkpt lat="47.18426" lon="5.57088">
        <ele>309.45404052734</ele>
        <time>2011-01-15T10:16:12Z</time>
      </trkpt>
      <trkpt lat="47.18422" lon="5.57074">
        <ele>309.4250793457</ele>
        <time>2011-01-15T10:16:16Z</time>
      </trkpt>
      <trkpt lat="47.18415" lon="5.57052">
        <ele>309.51251220703</ele>
        <time>2011-01-15T10:16:22Z</time>
      </trkpt>
      <trkpt lat="47.18414" lon="5.57048">
        <ele>310.04351806641</ele>
        <time>2011-01-15T10:16:23Z</time>
      </trkpt>
      <trkpt lat="47.18411" lon="5.57031">
        <ele>311.98046875</ele>
        <time>2011-01-15T10:16:28Z</time>
      </trkpt>
      <trkpt lat="47.1841" lon="5.57026">
        <ele>312.44540405273</ele>
        <time>2011-01-15T10:16:30Z</time>
      </trkpt>
      <trkpt lat="47.18404" lon="5.57018">
        <ele>314.32553100586</ele>
        <time>2011-01-15T10:16:36Z</time>
      </trkpt>
      <trkpt lat="47.18396" lon="5.57024">
        <ele>315.72451782227</ele>
        <time>2011-01-15T10:16:41Z</time>
      </trkpt>
      <trkpt lat="47.18389" lon="5.5703">
        <ele>316.51831054688</ele>
        <time>2011-01-15T10:16:46Z</time>
      </trkpt>
      <trkpt lat="47.18383" lon="5.57039">
        <ele>316.90606689453</ele>
        <time>2011-01-15T10:16:50Z</time>
      </trkpt>
      <trkpt lat="47.18381" lon="5.57042">
        <ele>317.03128051758</ele>
        <time>2011-01-15T10:16:53Z</time>
      </trkpt>
      <trkpt lat="47.18376" lon="5.57053">
        <ele>316.94204711914</ele>
        <time>2011-01-15T10:16:58Z</time>
      </trkpt>
      <trkpt lat="47.18367" lon="5.57064">
        <ele>317.38186645508</ele>
        <time>2011-01-15T10:17:02Z</time>
      </trkpt>
      <trkpt lat="47.18358" lon="5.57069">
        <ele>318.47494506836</ele>
        <time>2011-01-15T10:17:06Z</time>
      </trkpt>
      <trkpt lat="47.18348" lon="5.57073">
        <ele>319.69885253906</ele>
        <time>2011-01-15T10:17:10Z</time>
      </trkpt>
      <trkpt lat="47.18338" lon="5.57084">
        <ele>320.15829467773</ele>
        <time>2011-01-15T10:17:16Z</time>
      </trkpt>
      <trkpt lat="47.18328" lon="5.57093">
        <ele>319.24423217773</ele>
        <time>2011-01-15T10:17:21Z</time>
      </trkpt>
      <trkpt lat="47.18325" lon="5.57097">
        <ele>318.95077514648</ele>
        <time>2011-01-15T10:17:23Z</time>
      </trkpt>
      <trkpt lat="47.18313" lon="5.57112">
        <ele>317.37829589844</ele>
        <time>2011-01-15T10:17:30Z</time>
      </trkpt>
      <trkpt lat="47.18312" lon="5.57115">
        <ele>317.00964355469</ele>
        <time>2011-01-15T10:17:31Z</time>
      </trkpt>
      <trkpt lat="47.18303" lon="5.57133">
        <ele>314.36651611328</ele>
        <time>2011-01-15T10:17:37Z</time>
      </trkpt>
      <trkpt lat="47.18295" lon="5.57148">
        <ele>312.59744262695</ele>
        <time>2011-01-15T10:17:42Z</time>
      </trkpt>
      <trkpt lat="47.18282" lon="5.57168">
        <ele>311.30502319336</ele>
        <time>2011-01-15T10:17:48Z</time>
      </trkpt>
      <trkpt lat="47.18265" lon="5.57184">
        <ele>313.3271484375</ele>
        <time>2011-01-15T10:17:54Z</time>
      </trkpt>
      <trkpt lat="47.18267" lon="5.57171">
        <ele>314.29168701172</ele>
        <time>2011-01-15T10:18:01Z</time>
      </trkpt>
      <trkpt lat="47.18269" lon="5.57159">
        <ele>316.18655395508</ele>
        <time>2011-01-15T10:18:06Z</time>
      </trkpt>
      <trkpt lat="47.18269" lon="5.57148">
        <ele>318.40811157227</ele>
        <time>2011-01-15T10:18:11Z</time>
      </trkpt>
      <trkpt lat="47.18267" lon="5.57134">
        <ele>321.87628173828</ele>
        <time>2011-01-15T10:18:16Z</time>
      </trkpt>
      <trkpt lat="47.18271" lon="5.57125">
        <ele>323.14862060547</ele>
        <time>2011-01-15T10:18:21Z</time>
      </trkpt>
      <trkpt lat="47.18274" lon="5.57115">
        <ele>324.79718017578</ele>
        <time>2011-01-15T10:18:25Z</time>
      </trkpt>
      <trkpt lat="47.18276" lon="5.571">
        <ele>327.54333496094</ele>
        <time>2011-01-15T10:18:30Z</time>
      </trkpt>
      <trkpt lat="47.18278" lon="5.57093">
        <ele>328.74542236328</ele>
        <time>2011-01-15T10:18:32Z</time>
      </trkpt>
      <trkpt lat="47.18281" lon="5.57081">
        <ele>330.75912475586</ele>
        <time>2011-01-15T10:18:37Z</time>
      </trkpt>
      <trkpt lat="47.18283" lon="5.57075">
        <ele>331.26403808594</ele>
        <time>2011-01-15T10:18:39Z</time>
      </trkpt>
      <trkpt lat="47.18285" lon="5.57071">
        <ele>331.6044921875</ele>
        <time>2011-01-15T10:18:41Z</time>
      </trkpt>
      <trkpt lat="47.18287" lon="5.57065">
        <ele>332.15228271484</ele>
        <time>2011-01-15T10:18:44Z</time>
      </trkpt>
      <trkpt lat="47.18288" lon="5.57054">
        <ele>333.54763793945</ele>
        <time>2011-01-15T10:18:49Z</time>
      </trkpt>
      <trkpt lat="47.1828" lon="5.5705">
        <ele>335.65283203125</ele>
        <time>2011-01-15T10:18:56Z</time>
      </trkpt>
      <trkpt lat="47.18276" lon="5.57053">
        <ele>336.10208129883</ele>
        <time>2011-01-15T10:18:59Z</time>
      </trkpt>
      <trkpt lat="47.18267" lon="5.57052">
        <ele>338.00192260742</ele>
        <time>2011-01-15T10:19:05Z</time>
      </trkpt>
      <trkpt lat="47.18264" lon="5.5704">
        <ele>340.49255371094</ele>
        <time>2011-01-15T10:19:11Z</time>
      </trkpt>
      <trkpt lat="47.18264" lon="5.57036">
        <ele>341.07946777344</ele>
        <time>2011-01-15T10:19:13Z</time>
      </trkpt>
      <trkpt lat="47.18259" lon="5.57016">
        <ele>345.51693725586</ele>
        <time>2011-01-15T10:19:20Z</time>
      </trkpt>
      <trkpt lat="47.18255" lon="5.57">
        <ele>348.8508605957</ele>
        <time>2011-01-15T10:19:26Z</time>
      </trkpt>
      <trkpt lat="47.18252" lon="5.56987">
        <ele>350.15197753906</ele>
        <time>2011-01-15T10:19:31Z</time>
      </trkpt>
      <trkpt lat="47.18244" lon="5.56968">
        <ele>351.59127807617</ele>
        <time>2011-01-15T10:19:37Z</time>
      </trkpt>
      <trkpt lat="47.18234" lon="5.56953">
        <ele>352.61795043945</ele>
        <time>2011-01-15T10:19:42Z</time>
      </trkpt>
      <trkpt lat="47.18226" lon="5.5694">
        <ele>353.74444580078</ele>
        <time>2011-01-15T10:19:47Z</time>
      </trkpt>
      <trkpt lat="47.18218" lon="5.56926">
        <ele>355.16607666016</ele>
        <time>2011-01-15T10:19:52Z</time>
      </trkpt>
      <trkpt lat="47.18209" lon="5.56913">
        <ele>356.71969604492</ele>
        <time>2011-01-15T10:19:57Z</time>
      </trkpt>
      <trkpt lat="47.18204" lon="5.56906">
        <ele>357.51446533203</ele>
        <time>2011-01-15T10:20:00Z</time>
      </trkpt>
      <trkpt lat="47.18198" lon="5.56892">
        <ele>359.00323486328</ele>
        <time>2011-01-15T10:20:05Z</time>
      </trkpt>
      <trkpt lat="47.18194" lon="5.56882">
        <ele>359.9924621582</ele>
        <time>2011-01-15T10:20:08Z</time>
      </trkpt>
      <trkpt lat="47.18189" lon="5.56865">
        <ele>361.6653137207</ele>
        <time>2011-01-15T10:20:13Z</time>
      </trkpt>
      <trkpt lat="47.18183" lon="5.56849">
        <ele>363.40878295898</ele>
        <time>2011-01-15T10:20:17Z</time>
      </trkpt>
      <trkpt lat="47.18182" lon="5.56835">
        <ele>364.60180664062</ele>
        <time>2011-01-15T10:20:21Z</time>
      </trkpt>
      <trkpt lat="47.18177" lon="5.56818">
        <ele>365.59234619141</ele>
        <time>2011-01-15T10:20:26Z</time>
      </trkpt>
      <trkpt lat="47.18171" lon="5.56797">
        <ele>366.82299804688</ele>
        <time>2011-01-15T10:20:32Z</time>
      </trkpt>
      <trkpt lat="47.18167" lon="5.56778">
        <ele>367.99285888672</ele>
        <time>2011-01-15T10:20:38Z</time>
      </trkpt>
      <trkpt lat="47.18165" lon="5.56772">
        <ele>368.12387084961</ele>
        <time>2011-01-15T10:20:40Z</time>
      </trkpt>
      <trkpt lat="47.18164" lon="5.5677">
        <ele>368.13049316406</ele>
        <time>2011-01-15T10:20:42Z</time>
      </trkpt>
      <trkpt lat="47.1817" lon="5.56782">
        <ele>367.47735595703</ele>
        <time>2011-01-15T10:20:48Z</time>
      </trkpt>
      <trkpt lat="47.18175" lon="5.56795">
        <ele>366.52389526367</ele>
        <time>2011-01-15T10:20:53Z</time>
      </trkpt>
      <trkpt lat="47.18181" lon="5.56812">
        <ele>365.40390014648</ele>
        <time>2011-01-15T10:20:59Z</time>
      </trkpt>
      <trkpt lat="47.18185" lon="5.56822">
        <ele>364.73556518555</ele>
        <time>2011-01-15T10:21:03Z</time>
      </trkpt>
      <trkpt lat="47.18183" lon="5.56824">
        <ele>364.90023803711</ele>
        <time>2011-01-15T10:21:07Z</time>
      </trkpt>
      <trkpt lat="47.18177" lon="5.56807">
        <ele>365.88241577148</ele>
        <time>2011-01-15T10:21:12Z</time>
      </trkpt>
      <trkpt lat="47.18174" lon="5.56795">
        <ele>366.64227294922</ele>
        <time>2011-01-15T10:21:16Z</time>
      </trkpt>
      <trkpt lat="47.18169" lon="5.5678">
        <ele>367.71008300781</ele>
        <time>2011-01-15T10:21:21Z</time>
      </trkpt>
      <trkpt lat="47.18163" lon="5.5676">
        <ele>368.42657470703</ele>
        <time>2011-01-15T10:21:27Z</time>
      </trkpt>
      <trkpt lat="47.18158" lon="5.56742">
        <ele>368.52059936523</ele>
        <time>2011-01-15T10:21:32Z</time>
      </trkpt>
      <trkpt lat="47.18156" lon="5.56736">
        <ele>368.42819213867</ele>
        <time>2011-01-15T10:21:34Z</time>
      </trkpt>
      <trkpt lat="47.18151" lon="5.56724">
        <ele>368.24298095703</ele>
        <time>2011-01-15T10:21:39Z</time>
      </trkpt>
      <trkpt lat="47.1815" lon="5.56712">
        <ele>368.1989440918</ele>
        <time>2011-01-15T10:21:46Z</time>
      </trkpt>
      <trkpt lat="47.18148" lon="5.56706">
        <ele>368.17391967773</ele>
        <time>2011-01-15T10:21:50Z</time>
      </trkpt>
      <trkpt lat="47.18143" lon="5.567">
        <ele>368.11419677734</ele>
        <time>2011-01-15T10:21:56Z</time>
      </trkpt>
      <trkpt lat="47.18134" lon="5.56691">
        <ele>368.1071472168</ele>
        <time>2011-01-15T10:22:22Z</time>
      </trkpt>
      <trkpt lat="47.18127" lon="5.56687">
        <ele>368.14697265625</ele>
        <time>2011-01-15T10:22:43Z</time>
      </trkpt>
      <trkpt lat="47.18129" lon="5.56686">
        <ele>368.15194702148</ele>
        <time>2011-01-15T10:22:49Z</time>
      </trkpt>
      <trkpt lat="47.18131" lon="5.56688">
        <ele>368.14068603516</ele>
        <time>2011-01-15T10:22:55Z</time>
      </trkpt>
      <trkpt lat="47.18133" lon="5.56686">
        <ele>368.16857910156</ele>
        <time>2011-01-15T10:23:00Z</time>
      </trkpt>
      <trkpt lat="47.18143" lon="5.56691">
        <ele>368.16143798828</ele>
        <time>2011-01-15T10:23:22Z</time>
      </trkpt>
      <trkpt lat="47.18145" lon="5.56696">
        <ele>368.15670776367</ele>
        <time>2011-01-15T10:23:28Z</time>
      </trkpt>
      <trkpt lat="47.1815" lon="5.56715">
        <ele>368.20751953125</ele>
        <time>2011-01-15T10:23:34Z</time>
      </trkpt>
      <trkpt lat="47.18152" lon="5.56726">
        <ele>368.25717163086</ele>
        <time>2011-01-15T10:23:37Z</time>
      </trkpt>
      <trkpt lat="47.18159" lon="5.56752">
        <ele>368.56533813477</ele>
        <time>2011-01-15T10:23:43Z</time>
      </trkpt>
      <trkpt lat="47.18164" lon="5.56766">
        <ele>368.31018066406</ele>
        <time>2011-01-15T10:23:47Z</time>
      </trkpt>
      <trkpt lat="47.18169" lon="5.56781">
        <ele>367.66851806641</ele>
        <time>2011-01-15T10:23:51Z</time>
      </trkpt>
      <trkpt lat="47.18169" lon="5.56784">
        <ele>367.45489501953</ele>
        <time>2011-01-15T10:23:52Z</time>
      </trkpt>
      <trkpt lat="47.18175" lon="5.56799">
        <ele>366.3528137207</ele>
        <time>2011-01-15T10:23:57Z</time>
      </trkpt>
      <trkpt lat="47.18177" lon="5.56801">
        <ele>366.12539672852</ele>
        <time>2011-01-15T10:23:58Z</time>
      </trkpt>
      <trkpt lat="47.18187" lon="5.56824">
        <ele>364.52966308594</ele>
        <time>2011-01-15T10:24:05Z</time>
      </trkpt>
      <trkpt lat="47.18187" lon="5.56841">
        <ele>363.66262817383</ele>
        <time>2011-01-15T10:24:10Z</time>
      </trkpt>
      <trkpt lat="47.18187" lon="5.56845">
        <ele>363.39196777344</ele>
        <time>2011-01-15T10:24:11Z</time>
      </trkpt>
      <trkpt lat="47.18189" lon="5.56857">
        <ele>362.29824829102</ele>
        <time>2011-01-15T10:24:15Z</time>
      </trkpt>
      <trkpt lat="47.18195" lon="5.56875">
        <ele>360.49603271484</ele>
        <time>2011-01-15T10:24:21Z</time>
      </trkpt>
      <trkpt lat="47.182" lon="5.56889">
        <ele>359.03717041016</ele>
        <time>2011-01-15T10:24:26Z</time>
      </trkpt>
      <trkpt lat="47.18203" lon="5.56888">
        <ele>358.90826416016</ele>
        <time>2011-01-15T10:24:31Z</time>
      </trkpt>
      <trkpt lat="47.182" lon="5.56882">
        <ele>359.53326416016</ele>
        <time>2011-01-15T10:24:35Z</time>
      </trkpt>
      <trkpt lat="47.18195" lon="5.56867">
        <ele>361.08560180664</ele>
        <time>2011-01-15T10:24:42Z</time>
      </trkpt>
      <trkpt lat="47.18193" lon="5.56861">
        <ele>361.69738769531</ele>
        <time>2011-01-15T10:24:44Z</time>
      </trkpt>
      <trkpt lat="47.18191" lon="5.56845">
        <ele>363.05114746094</ele>
        <time>2011-01-15T10:24:49Z</time>
      </trkpt>
      <trkpt lat="47.18187" lon="5.56828">
        <ele>364.43225097656</ele>
        <time>2011-01-15T10:24:55Z</time>
      </trkpt>
      <trkpt lat="47.18183" lon="5.56816">
        <ele>365.11312866211</ele>
        <time>2011-01-15T10:24:59Z</time>
      </trkpt>
      <trkpt lat="47.18177" lon="5.56802">
        <ele>366.1051940918</ele>
        <time>2011-01-15T10:25:03Z</time>
      </trkpt>
      <trkpt lat="47.18174" lon="5.56794">
        <ele>366.603515625</ele>
        <time>2011-01-15T10:25:06Z</time>
      </trkpt>
      <trkpt lat="47.18171" lon="5.56783">
        <ele>367.28063964844</ele>
        <time>2011-01-15T10:25:10Z</time>
      </trkpt>
      <trkpt lat="47.18165" lon="5.56766">
        <ele>368.30426025391</ele>
        <time>2011-01-15T10:25:15Z</time>
      </trkpt>
      <trkpt lat="47.18155" lon="5.56747">
        <ele>368.44229125977</ele>
        <time>2011-01-15T10:25:21Z</time>
      </trkpt>
      <trkpt lat="47.1815" lon="5.5673">
        <ele>368.18536376953</ele>
        <time>2011-01-15T10:25:26Z</time>
      </trkpt>
      <trkpt lat="47.18148" lon="5.56721">
        <ele>368.14657592773</ele>
        <time>2011-01-15T10:25:29Z</time>
      </trkpt>
      <trkpt lat="47.18147" lon="5.5671">
        <ele>368.13986206055</ele>
        <time>2011-01-15T10:25:33Z</time>
      </trkpt>
      <trkpt lat="47.18146" lon="5.56705">
        <ele>368.13403320312</ele>
        <time>2011-01-15T10:25:36Z</time>
      </trkpt>
      <trkpt lat="47.18145" lon="5.56694">
        <ele>368.16030883789</ele>
        <time>2011-01-15T10:25:40Z</time>
      </trkpt>
      <trkpt lat="47.1814" lon="5.56669">
        <ele>368.30471801758</ele>
        <time>2011-01-15T10:25:46Z</time>
      </trkpt>
      <trkpt lat="47.18134" lon="5.56652">
        <ele>367.98992919922</ele>
        <time>2011-01-15T10:25:50Z</time>
      </trkpt>
      <trkpt lat="47.18128" lon="5.56633">
        <ele>367.63418579102</ele>
        <time>2011-01-15T10:25:54Z</time>
      </trkpt>
      <trkpt lat="47.18126" lon="5.56618">
        <ele>367.29299926758</ele>
        <time>2011-01-15T10:25:58Z</time>
      </trkpt>
      <trkpt lat="47.18124" lon="5.56595">
        <ele>366.83474731445</ele>
        <time>2011-01-15T10:26:03Z</time>
      </trkpt>
      <trkpt lat="47.18122" lon="5.56571">
        <ele>366.09237670898</ele>
        <time>2011-01-15T10:26:09Z</time>
      </trkpt>
      <trkpt lat="47.18121" lon="5.56549">
        <ele>365.2258605957</ele>
        <time>2011-01-15T10:26:14Z</time>
      </trkpt>
      <trkpt lat="47.18122" lon="5.56533">
        <ele>364.53408813477</ele>
        <time>2011-01-15T10:26:18Z</time>
      </trkpt>
      <trkpt lat="47.18122" lon="5.56529">
        <ele>364.35592651367</ele>
        <time>2011-01-15T10:26:19Z</time>
      </trkpt>
      <trkpt lat="47.18118" lon="5.56506">
        <ele>363.75616455078</ele>
        <time>2011-01-15T10:26:25Z</time>
      </trkpt>
      <trkpt lat="47.18115" lon="5.56492">
        <ele>363.29983520508</ele>
        <time>2011-01-15T10:26:29Z</time>
      </trkpt>
      <trkpt lat="47.18111" lon="5.56477">
        <ele>362.70538330078</ele>
        <time>2011-01-15T10:26:33Z</time>
      </trkpt>
      <trkpt lat="47.1811" lon="5.56461">
        <ele>361.9221496582</ele>
        <time>2011-01-15T10:26:37Z</time>
      </trkpt>
      <trkpt lat="47.18109" lon="5.56437">
        <ele>360.57601928711</ele>
        <time>2011-01-15T10:26:43Z</time>
      </trkpt>
      <trkpt lat="47.1811" lon="5.56411">
        <ele>359.33383178711</ele>
        <time>2011-01-15T10:26:49Z</time>
      </trkpt>
      <trkpt lat="47.18109" lon="5.56406">
        <ele>359.38265991211</ele>
        <time>2011-01-15T10:26:50Z</time>
      </trkpt>
      <trkpt lat="47.18114" lon="5.56387">
        <ele>358.94757080078</ele>
        <time>2011-01-15T10:26:56Z</time>
      </trkpt>
      <trkpt lat="47.18118" lon="5.56376">
        <ele>358.61770629883</ele>
        <time>2011-01-15T10:27:00Z</time>
      </trkpt>
      <trkpt lat="47.18122" lon="5.56365">
        <ele>358.34460449219</ele>
        <time>2011-01-15T10:27:04Z</time>
      </trkpt>
      <trkpt lat="47.18122" lon="5.56342">
        <ele>358.17465209961</ele>
        <time>2011-01-15T10:27:11Z</time>
      </trkpt>
      <trkpt lat="47.18127" lon="5.56328">
        <ele>357.95297241211</ele>
        <time>2011-01-15T10:27:15Z</time>
      </trkpt>
      <trkpt lat="47.18139" lon="5.56301">
        <ele>357.73529052734</ele>
        <time>2011-01-15T10:27:23Z</time>
      </trkpt>
      <trkpt lat="47.18147" lon="5.56281">
        <ele>357.74841308594</ele>
        <time>2011-01-15T10:27:29Z</time>
      </trkpt>
      <trkpt lat="47.18158" lon="5.56265">
        <ele>357.79345703125</ele>
        <time>2011-01-15T10:27:35Z</time>
      </trkpt>
      <trkpt lat="47.18169" lon="5.56251">
        <ele>357.99597167969</ele>
        <time>2011-01-15T10:27:40Z</time>
      </trkpt>
      <trkpt lat="47.18177" lon="5.56241">
        <ele>358.34057617188</ele>
        <time>2011-01-15T10:27:44Z</time>
      </trkpt>
      <trkpt lat="47.18185" lon="5.56233">
        <ele>358.6584777832</ele>
        <time>2011-01-15T10:27:48Z</time>
      </trkpt>
      <trkpt lat="47.18192" lon="5.56222">
        <ele>359.0703125</ele>
        <time>2011-01-15T10:27:53Z</time>
      </trkpt>
      <trkpt lat="47.18202" lon="5.56204">
        <ele>359.75787353516</ele>
        <time>2011-01-15T10:27:59Z</time>
      </trkpt>
      <trkpt lat="47.1821" lon="5.56191">
        <ele>360.29895019531</ele>
        <time>2011-01-15T10:28:04Z</time>
      </trkpt>
      <trkpt lat="47.18223" lon="5.56177">
        <ele>361.00680541992</ele>
        <time>2011-01-15T10:28:11Z</time>
      </trkpt>
      <trkpt lat="47.18231" lon="5.56162">
        <ele>361.47354125977</ele>
        <time>2011-01-15T10:28:16Z</time>
      </trkpt>
      <trkpt lat="47.18238" lon="5.56147">
        <ele>361.45541381836</ele>
        <time>2011-01-15T10:28:22Z</time>
      </trkpt>
      <trkpt lat="47.18246" lon="5.56131">
        <ele>361.47100830078</ele>
        <time>2011-01-15T10:28:27Z</time>
      </trkpt>
      <trkpt lat="47.18258" lon="5.5611">
        <ele>361.42260742188</ele>
        <time>2011-01-15T10:28:34Z</time>
      </trkpt>
      <trkpt lat="47.18268" lon="5.56095">
        <ele>361.48645019531</ele>
        <time>2011-01-15T10:28:39Z</time>
      </trkpt>
      <trkpt lat="47.18274" lon="5.56087">
        <ele>361.58041381836</ele>
        <time>2011-01-15T10:28:42Z</time>
      </trkpt>
      <trkpt lat="47.1828" lon="5.56078">
        <ele>361.86209106445</ele>
        <time>2011-01-15T10:28:46Z</time>
      </trkpt>
      <trkpt lat="47.18289" lon="5.56066">
        <ele>362.43804931641</ele>
        <time>2011-01-15T10:28:51Z</time>
      </trkpt>
      <trkpt lat="47.18297" lon="5.56055">
        <ele>363.05892944336</ele>
        <time>2011-01-15T10:28:56Z</time>
      </trkpt>
      <trkpt lat="47.18307" lon="5.56037">
        <ele>364.07803344727</ele>
        <time>2011-01-15T10:29:02Z</time>
      </trkpt>
      <trkpt lat="47.18316" lon="5.5602">
        <ele>365.14526367188</ele>
        <time>2011-01-15T10:29:08Z</time>
      </trkpt>
      <trkpt lat="47.18324" lon="5.56003">
        <ele>366.29858398438</ele>
        <time>2011-01-15T10:29:13Z</time>
      </trkpt>
      <trkpt lat="47.18333" lon="5.55988">
        <ele>367.24081420898</ele>
        <time>2011-01-15T10:29:18Z</time>
      </trkpt>
      <trkpt lat="47.1834" lon="5.5597">
        <ele>367.81045532227</ele>
        <time>2011-01-15T10:29:24Z</time>
      </trkpt>
      <trkpt lat="47.18347" lon="5.55959">
        <ele>368.15264892578</ele>
        <time>2011-01-15T10:29:28Z</time>
      </trkpt>
      <trkpt lat="47.18354" lon="5.55944">
        <ele>368.59323120117</ele>
        <time>2011-01-15T10:29:33Z</time>
      </trkpt>
      <trkpt lat="47.1836" lon="5.55928">
        <ele>369.05902099609</ele>
        <time>2011-01-15T10:29:38Z</time>
      </trkpt>
      <trkpt lat="47.1837" lon="5.55911">
        <ele>369.3388671875</ele>
        <time>2011-01-15T10:29:43Z</time>
      </trkpt>
      <trkpt lat="47.18376" lon="5.55894">
        <ele>369.09509277344</ele>
        <time>2011-01-15T10:29:48Z</time>
      </trkpt>
      <trkpt lat="47.18382" lon="5.55885">
        <ele>368.9782409668</ele>
        <time>2011-01-15T10:29:51Z</time>
      </trkpt>
      <trkpt lat="47.18387" lon="5.55882">
        <ele>368.9612121582</ele>
        <time>2011-01-15T10:29:56Z</time>
      </trkpt>
      <trkpt lat="47.1839" lon="5.55882">
        <ele>368.98010253906</ele>
        <time>2011-01-15T10:29:58Z</time>
      </trkpt>
      <trkpt lat="47.18403" lon="5.55878">
        <ele>368.99203491211</ele>
        <time>2011-01-15T10:30:04Z</time>
      </trkpt>
      <trkpt lat="47.18405" lon="5.55878">
        <ele>368.99908447266</ele>
        <time>2011-01-15T10:30:05Z</time>
      </trkpt>
      <trkpt lat="47.18416" lon="5.5587">
        <ele>368.87326049805</ele>
        <time>2011-01-15T10:30:11Z</time>
      </trkpt>
      <trkpt lat="47.18425" lon="5.5586">
        <ele>368.9167175293</ele>
        <time>2011-01-15T10:30:15Z</time>
      </trkpt>
      <trkpt lat="47.18437" lon="5.55843">
        <ele>369.10095214844</ele>
        <time>2011-01-15T10:30:21Z</time>
      </trkpt>
      <trkpt lat="47.18441" lon="5.55836">
        <ele>369.19848632812</ele>
        <time>2011-01-15T10:30:23Z</time>
      </trkpt>
      <trkpt lat="47.18451" lon="5.55828">
        <ele>369.60113525391</ele>
        <time>2011-01-15T10:30:27Z</time>
      </trkpt>
      <trkpt lat="47.18467" lon="5.55813">
        <ele>370.25173950195</ele>
        <time>2011-01-15T10:30:33Z</time>
      </trkpt>
      <trkpt lat="47.18475" lon="5.55806">
        <ele>370.56597900391</ele>
        <time>2011-01-15T10:30:37Z</time>
      </trkpt>
      <trkpt lat="47.18486" lon="5.55791">
        <ele>370.90866088867</ele>
        <time>2011-01-15T10:30:43Z</time>
      </trkpt>
      <trkpt lat="47.18493" lon="5.55782">
        <ele>371.11215209961</ele>
        <time>2011-01-15T10:30:47Z</time>
      </trkpt>
      <trkpt lat="47.18501" lon="5.55766">
        <ele>371.19662475586</ele>
        <time>2011-01-15T10:30:52Z</time>
      </trkpt>
      <trkpt lat="47.18511" lon="5.55754">
        <ele>371.17718505859</ele>
        <time>2011-01-15T10:30:57Z</time>
      </trkpt>
      <trkpt lat="47.18525" lon="5.55739">
        <ele>371.20727539062</ele>
        <time>2011-01-15T10:31:03Z</time>
      </trkpt>
      <trkpt lat="47.18536" lon="5.55726">
        <ele>371.26641845703</ele>
        <time>2011-01-15T10:31:08Z</time>
      </trkpt>
      <trkpt lat="47.18549" lon="5.55709">
        <ele>371.37774658203</ele>
        <time>2011-01-15T10:31:14Z</time>
      </trkpt>
      <trkpt lat="47.18564" lon="5.55694">
        <ele>371.60815429688</ele>
        <time>2011-01-15T10:31:20Z</time>
      </trkpt>
      <trkpt lat="47.18578" lon="5.55682">
        <ele>371.87423706055</ele>
        <time>2011-01-15T10:31:25Z</time>
      </trkpt>
      <trkpt lat="47.18586" lon="5.55671">
        <ele>372.14477539062</ele>
        <time>2011-01-15T10:31:29Z</time>
      </trkpt>
      <trkpt lat="47.18594" lon="5.5566">
        <ele>372.34436035156</ele>
        <time>2011-01-15T10:31:33Z</time>
      </trkpt>
      <trkpt lat="47.18603" lon="5.55647">
        <ele>372.46337890625</ele>
        <time>2011-01-15T10:31:38Z</time>
      </trkpt>
      <trkpt lat="47.18611" lon="5.55635">
        <ele>372.5514831543</ele>
        <time>2011-01-15T10:31:42Z</time>
      </trkpt>
      <trkpt lat="47.18621" lon="5.55622">
        <ele>372.71856689453</ele>
        <time>2011-01-15T10:31:47Z</time>
      </trkpt>
      <trkpt lat="47.18631" lon="5.55607">
        <ele>372.86047363281</ele>
        <time>2011-01-15T10:31:52Z</time>
      </trkpt>
      <trkpt lat="47.1864" lon="5.55594">
        <ele>372.96463012695</ele>
        <time>2011-01-15T10:31:57Z</time>
      </trkpt>
      <trkpt lat="47.18649" lon="5.5558">
        <ele>373.14956665039</ele>
        <time>2011-01-15T10:32:02Z</time>
      </trkpt>
      <trkpt lat="47.18655" lon="5.55557">
        <ele>373.33013916016</ele>
        <time>2011-01-15T10:32:08Z</time>
      </trkpt>
      <trkpt lat="47.18656" lon="5.55553">
        <ele>373.3830871582</ele>
        <time>2011-01-15T10:32:09Z</time>
      </trkpt>
      <trkpt lat="47.18665" lon="5.55531">
        <ele>373.91464233398</ele>
        <time>2011-01-15T10:32:16Z</time>
      </trkpt>
      <trkpt lat="47.1867" lon="5.55515">
        <ele>374.08654785156</ele>
        <time>2011-01-15T10:32:21Z</time>
      </trkpt>
      <trkpt lat="47.18668" lon="5.55491">
        <ele>374.13381958008</ele>
        <time>2011-01-15T10:32:26Z</time>
      </trkpt>
      <trkpt lat="47.18669" lon="5.5548">
        <ele>374.31323242188</ele>
        <time>2011-01-15T10:32:29Z</time>
      </trkpt>
      <trkpt lat="47.18673" lon="5.55462">
        <ele>374.66098022461</ele>
        <time>2011-01-15T10:32:35Z</time>
      </trkpt>
      <trkpt lat="47.18676" lon="5.55451">
        <ele>374.94964599609</ele>
        <time>2011-01-15T10:32:39Z</time>
      </trkpt>
      <trkpt lat="47.18679" lon="5.55441">
        <ele>375.2184753418</ele>
        <time>2011-01-15T10:32:42Z</time>
      </trkpt>
      <trkpt lat="47.18685" lon="5.55419">
        <ele>375.83666992188</ele>
        <time>2011-01-15T10:32:48Z</time>
      </trkpt>
      <trkpt lat="47.18688" lon="5.55412">
        <ele>375.91055297852</ele>
        <time>2011-01-15T10:32:50Z</time>
      </trkpt>
      <trkpt lat="47.1869" lon="5.55406">
        <ele>375.85949707031</ele>
        <time>2011-01-15T10:32:52Z</time>
      </trkpt>
      <trkpt lat="47.18693" lon="5.55388">
        <ele>375.53588867188</ele>
        <time>2011-01-15T10:32:57Z</time>
      </trkpt>
      <trkpt lat="47.18695" lon="5.55371">
        <ele>375.24230957031</ele>
        <time>2011-01-15T10:33:01Z</time>
      </trkpt>
      <trkpt lat="47.18699" lon="5.55355">
        <ele>375.21676635742</ele>
        <time>2011-01-15T10:33:05Z</time>
      </trkpt>
      <trkpt lat="47.18705" lon="5.55337">
        <ele>375.26058959961</ele>
        <time>2011-01-15T10:33:10Z</time>
      </trkpt>
      <trkpt lat="47.1871" lon="5.55318">
        <ele>375.48034667969</ele>
        <time>2011-01-15T10:33:15Z</time>
      </trkpt>
      <trkpt lat="47.18715" lon="5.55298">
        <ele>375.52633666992</ele>
        <time>2011-01-15T10:33:20Z</time>
      </trkpt>
      <trkpt lat="47.18713" lon="5.55276">
        <ele>375.12567138672</ele>
        <time>2011-01-15T10:33:25Z</time>
      </trkpt>
      <trkpt lat="47.18712" lon="5.55257">
        <ele>374.82763671875</ele>
        <time>2011-01-15T10:33:30Z</time>
      </trkpt>
      <trkpt lat="47.18701" lon="5.55229">
        <ele>373.86444091797</ele>
        <time>2011-01-15T10:33:35Z</time>
      </trkpt>
      <trkpt lat="47.18691" lon="5.55208">
        <ele>373.17456054688</ele>
        <time>2011-01-15T10:33:39Z</time>
      </trkpt>
      <trkpt lat="47.18689" lon="5.55199">
        <ele>373.02487182617</ele>
        <time>2011-01-15T10:33:41Z</time>
      </trkpt>
      <trkpt lat="47.18684" lon="5.55182">
        <ele>372.71438598633</ele>
        <time>2011-01-15T10:33:45Z</time>
      </trkpt>
      <trkpt lat="47.18684" lon="5.55177">
        <ele>372.66198730469</ele>
        <time>2011-01-15T10:33:46Z</time>
      </trkpt>
      <trkpt lat="47.18679" lon="5.55157">
        <ele>372.49230957031</ele>
        <time>2011-01-15T10:33:51Z</time>
      </trkpt>
      <trkpt lat="47.18678" lon="5.55142">
        <ele>372.53433227539</ele>
        <time>2011-01-15T10:33:55Z</time>
      </trkpt>
      <trkpt lat="47.18676" lon="5.55122">
        <ele>372.63424682617</ele>
        <time>2011-01-15T10:34:00Z</time>
      </trkpt>
      <trkpt lat="47.18677" lon="5.55108">
        <ele>372.72790527344</ele>
        <time>2011-01-15T10:34:04Z</time>
      </trkpt>
      <trkpt lat="47.18676" lon="5.55104">
        <ele>372.75134277344</ele>
        <time>2011-01-15T10:34:05Z</time>
      </trkpt>
      <trkpt lat="47.18676" lon="5.55079">
        <ele>372.92947387695</ele>
        <time>2011-01-15T10:34:11Z</time>
      </trkpt>
      <trkpt lat="47.18676" lon="5.55062">
        <ele>373.07711791992</ele>
        <time>2011-01-15T10:34:15Z</time>
      </trkpt>
      <trkpt lat="47.18674" lon="5.55041">
        <ele>373.3171081543</ele>
        <time>2011-01-15T10:34:20Z</time>
      </trkpt>
      <trkpt lat="47.18676" lon="5.55024">
        <ele>373.44372558594</ele>
        <time>2011-01-15T10:34:25Z</time>
      </trkpt>
      <trkpt lat="47.18678" lon="5.55007">
        <ele>373.53265380859</ele>
        <time>2011-01-15T10:34:30Z</time>
      </trkpt>
      <trkpt lat="47.18678" lon="5.55001">
        <ele>373.60104370117</ele>
        <time>2011-01-15T10:34:32Z</time>
      </trkpt>
      <trkpt lat="47.18678" lon="5.54998">
        <ele>373.52926635742</ele>
        <time>2011-01-15T10:34:33Z</time>
      </trkpt>
    </trkseg>
  </trk>
</gpx>